[[{"header":{"parameterUnit":"m.s-1","parameterCategory":1,"la1":30.6,"la2":29.2853,"lo1":-89.7004,"lo2":-87.6739,"dy":0.0162,"dx":0.0183,"nx":112,"ny":82,"refTime":"2023-03-25T00:00:00:Z","depth":0,"parameterNumber":2,"parameterNumberName":"U-component_of_WINDS"},"data":[0.0,0.0,0.0,0.0,0.0,0.0,0.0,0.0,0.0,0.0,0.0,0.0,0.0,0.0,0.0,0.0,0.0,0.0,0.0,0.0,0.0,0.0,0.0,0.0,0.0,0.0,0.0,0.0,0.0,0.0,0.0,0.0,0.0,0.0,0.0,0.0,0.0,0.0,0.0,0.0,0.0,0.0,0.0,0.0,0.0,0.0,0.0,0.0,0.0,0.0,0.0,0.0,0.0,0.0,0.0,0.0,0.0,0.0,0.0,0.0,0.0,0.0,0.0,0.0,0.0,0.0,0.0,0.0,0.0,0.0,0.0,0.0,0.0,0.0,0.0,0.0,0.0,0.0,0.0,0.0,0.0,0.0,0.0,0.0,0.0,0.0,0.0,0.0,0.0,0.0,-4.8218,-4.9771,-5.2981,-5.6007,-5.8447,-5.7981,-5.6645,-5.4576,0.0,0.0,0.0,0.0,0.0,0.0,0.0,0.0,0.0,0.0,0.0,0.0,0.0,0.0,0.0,0.0,0.0,0.0,0.0,0.0,0.0,0.0,0.0,0.0,0.0,0.0,0.0,0.0,0.0,0.0,0.0,0.0,0.0,0.0,0.0,0.0,0.0,0.0,0.0,0.0,0.0,0.0,0.0,0.0,0.0,0.0,0.0,0.0,0.0,0.0,0.0,0.0,0.0,0.0,0.0,0.0,0.0,0.0,0.0,0.0,0.0,0.0,0.0,0.0,0.0,0.0,0.0,0.0,0.0,0.0,0.0,0.0,0.0,0.0,0.0,0.0,0.0,0.0,0.0,0.0,0.0,0.0,0.0,0.0,0.0,0.0,0.0,0.0,0.0,0.0,0.0,0.0,0.0,0.0,0.0,0.0,0.0,0.0,0.0,0.0,0.0,0.0,0.0,0.0,-4.9382,-5.0349,-5.3022,-5.5357,-5.6993,-5.5877,-5.4704,-5.3743,0.0,0.0,0.0,0.0,0.0,0.0,0.0,0.0,0.0,0.0,0.0,0.0,0.0,0.0,0.0,0.0,0.0,0.0,0.0,0.0,0.0,0.0,0.0,0.0,0.0,0.0,0.0,0.0,0.0,0.0,0.0,0.0,0.0,0.0,0.0,0.0,0.0,0.0,0.0,0.0,0.0,0.0,0.0,0.0,0.0,0.0,0.0,0.0,0.0,0.0,0.0,0.0,0.0,0.0,0.0,0.0,0.0,0.0,0.0,0.0,0.0,0.0,0.0,0.0,0.0,0.0,0.0,0.0,0.0,0.0,0.0,0.0,0.0,0.0,0.0,0.0,0.0,0.0,0.0,0.0,0.0,0.0,0.0,0.0,0.0,0.0,0.0,0.0,0.0,0.0,0.0,0.0,0.0,0.0,0.0,0.0,0.0,0.0,0.0,0.0,0.0,0.0,0.0,-4.9763,-4.9118,-5.0133,-5.1641,-5.3145,-5.4399,-5.3527,-5.2844,-5.2639,-5.289,0.0,0.0,0.0,0.0,0.0,0.0,0.0,0.0,0.0,0.0,0.0,0.0,0.0,0.0,0.0,0.0,0.0,0.0,0.0,0.0,0.0,0.0,0.0,0.0,0.0,0.0,0.0,0.0,0.0,0.0,0.0,0.0,0.0,0.0,0.0,0.0,0.0,0.0,0.0,0.0,0.0,0.0,0.0,0.0,0.0,0.0,0.0,0.0,0.0,0.0,0.0,0.0,0.0,0.0,0.0,0.0,0.0,0.0,0.0,0.0,0.0,0.0,0.0,0.0,0.0,0.0,0.0,0.0,0.0,0.0,0.0,0.0,0.0,0.0,0.0,0.0,0.0,0.0,0.0,0.0,0.0,0.0,0.0,0.0,0.0,0.0,0.0,0.0,0.0,0.0,0.0,0.0,0.0,0.0,0.0,0.0,0.0,0.0,0.0,0.0,0.0,0.0,-4.9224,-4.8356,-4.9729,-5.0505,-5.1309,-5.2253,-5.166,-5.1374,-5.1654,-5.0967,0.0,0.0,0.0,0.0,0.0,0.0,0.0,0.0,0.0,0.0,0.0,0.0,0.0,0.0,0.0,0.0,0.0,0.0,0.0,0.0,0.0,0.0,0.0,0.0,0.0,0.0,0.0,0.0,0.0,0.0,0.0,0.0,0.0,0.0,0.0,0.0,0.0,0.0,0.0,0.0,0.0,0.0,0.0,0.0,0.0,0.0,0.0,0.0,0.0,0.0,0.0,0.0,0.0,0.0,0.0,0.0,0.0,0.0,0.0,0.0,0.0,0.0,0.0,0.0,0.0,0.0,0.0,0.0,0.0,0.0,0.0,0.0,0.0,0.0,0.0,0.0,0.0,0.0,0.0,0.0,0.0,0.0,0.0,0.0,0.0,0.0,0.0,0.0,0.0,0.0,0.0,0.0,0.0,0.0,0.0,0.0,0.0,0.0,0.0,0.0,0.0,0.0,-4.8402,-4.7329,-4.9636,-5.0505,-5.1049,-5.1549,-5.0961,-5.0644,-5.0867,-5.0255,0.0,0.0,0.0,0.0,0.0,0.0,0.0,0.0,0.0,0.0,0.0,0.0,0.0,0.0,0.0,0.0,0.0,0.0,0.0,0.0,0.0,0.0,0.0,0.0,0.0,0.0,0.0,0.0,0.0,0.0,0.0,0.0,0.0,0.0,0.0,0.0,0.0,0.0,0.0,0.0,0.0,0.0,0.0,0.0,0.0,0.0,0.0,0.0,0.0,0.0,0.0,0.0,0.0,0.0,0.0,0.0,0.0,0.0,0.0,0.0,0.0,0.0,0.0,0.0,0.0,0.0,0.0,0.0,0.0,0.0,0.0,0.0,0.0,0.0,0.0,0.0,0.0,0.0,0.0,0.0,0.0,0.0,0.0,0.0,0.0,0.0,0.0,0.0,0.0,0.0,0.0,0.0,0.0,0.0,0.0,0.0,0.0,0.0,0.0,0.0,0.0,0.0,-4.9075,-4.7722,-4.8225,-4.8511,-4.8712,-4.8859,-4.8255,-4.8446,-4.9786,0.0,0.0,0.0,0.0,0.0,0.0,0.0,0.0,0.0,0.0,0.0,0.0,0.0,0.0,0.0,0.0,0.0,0.0,0.0,0.0,0.0,0.0,0.0,0.0,0.0,0.0,0.0,0.0,0.0,0.0,0.0,0.0,0.0,0.0,0.0,0.0,0.0,0.0,0.0,0.0,0.0,0.0,0.0,0.0,0.0,0.0,0.0,0.0,0.0,0.0,0.0,0.0,0.0,0.0,0.0,0.0,0.0,0.0,0.0,0.0,0.0,0.0,0.0,0.0,0.0,0.0,0.0,0.0,0.0,0.0,0.0,0.0,0.0,0.0,0.0,0.0,0.0,0.0,0.0,0.0,0.0,0.0,0.0,0.0,0.0,0.0,0.0,0.0,0.0,0.0,0.0,0.0,0.0,0.0,0.0,0.0,0.0,0.0,0.0,0.0,0.0,0.0,-5.0853,-4.8805,-4.7339,-4.7309,-4.7309,-4.7309,-4.7309,-4.6501,-4.692,-4.9179,0.0,0.0,0.0,0.0,0.0,0.0,0.0,0.0,0.0,0.0,0.0,0.0,0.0,0.0,0.0,0.0,0.0,0.0,0.0,0.0,0.0,0.0,0.0,0.0,0.0,0.0,0.0,0.0,0.0,0.0,0.0,0.0,0.0,0.0,0.0,0.0,0.0,0.0,0.0,0.0,0.0,0.0,0.0,0.0,0.0,0.0,0.0,0.0,0.0,0.0,0.0,0.0,0.0,0.0,0.0,0.0,0.0,0.0,0.0,0.0,0.0,0.0,0.0,0.0,0.0,0.0,0.0,0.0,0.0,0.0,0.0,0.0,0.0,0.0,0.0,0.0,0.0,0.0,0.0,0.0,0.0,0.0,0.0,0.0,0.0,0.0,0.0,0.0,0.0,0.0,0.0,0.0,0.0,0.0,0.0,0.0,0.0,0.0,0.0,0.0,0.0,0.0,-5.0016,-4.7339,-4.5813,-4.716,-4.7309,-4.7309,-4.7309,-4.6082,-4.6411,0.0,0.0,0.0,0.0,0.0,0.0,0.0,0.0,0.0,0.0,0.0,0.0,0.0,0.0,0.0,0.0,0.0,0.0,0.0,0.0,0.0,0.0,0.0,0.0,0.0,0.0,0.0,0.0,0.0,0.0,0.0,0.0,0.0,0.0,0.0,0.0,0.0,0.0,0.0,0.0,0.0,0.0,0.0,0.0,0.0,0.0,0.0,0.0,0.0,0.0,0.0,0.0,0.0,0.0,0.0,0.0,0.0,0.0,0.0,0.0,0.0,0.0,0.0,0.0,0.0,0.0,0.0,0.0,0.0,0.0,0.0,0.0,0.0,0.0,0.0,0.0,0.0,0.0,0.0,0.0,0.0,0.0,0.0,0.0,0.0,0.0,0.0,0.0,0.0,0.0,0.0,0.0,0.0,0.0,0.0,0.0,0.0,0.0,0.0,0.0,0.0,0.0,0.0,-4.9924,-4.7339,-4.5813,-4.716,-4.7309,-4.7309,-4.7309,-4.6082,-4.6411,-4.9149,0.0,0.0,0.0,0.0,0.0,0.0,0.0,0.0,0.0,0.0,0.0,0.0,0.0,0.0,0.0,0.0,0.0,0.0,0.0,0.0,0.0,0.0,0.0,0.0,0.0,0.0,0.0,0.0,0.0,0.0,0.0,0.0,0.0,0.0,0.0,0.0,0.0,0.0,0.0,0.0,0.0,0.0,0.0,0.0,0.0,0.0,0.0,0.0,0.0,0.0,0.0,0.0,0.0,0.0,0.0,0.0,0.0,0.0,0.0,0.0,0.0,0.0,0.0,0.0,0.0,0.0,0.0,0.0,0.0,0.0,0.0,0.0,0.0,0.0,0.0,0.0,0.0,0.0,0.0,0.0,0.0,0.0,0.0,0.0,0.0,0.0,0.0,0.0,0.0,0.0,0.0,0.0,0.0,0.0,0.0,0.0,0.0,0.0,0.0,0.0,0.0,0.0,-4.9582,-4.7189,-4.5813,-4.716,-4.7309,-4.7309,-4.7309,-4.6082,-4.6202,-4.8356,0.0,0.0,0.0,0.0,0.0,0.0,0.0,0.0,0.0,0.0,0.0,0.0,0.0,0.0,0.0,0.0,0.0,0.0,0.0,0.0,0.0,0.0,0.0,0.0,0.0,0.0,0.0,0.0,0.0,0.0,0.0,0.0,0.0,0.0,0.0,0.0,0.0,0.0,0.0,0.0,0.0,0.0,0.0,0.0,0.0,0.0,0.0,0.0,0.0,0.0,0.0,0.0,0.0,0.0,0.0,0.0,0.0,0.0,0.0,0.0,0.0,0.0,0.0,0.0,0.0,0.0,0.0,0.0,0.0,0.0,0.0,0.0,0.0,0.0,0.0,0.0,0.0,0.0,0.0,0.0,0.0,0.0,0.0,0.0,0.0,0.0,0.0,0.0,0.0,0.0,0.0,0.0,0.0,0.0,0.0,0.0,0.0,0.0,0.0,0.0,0.0,0.0,-4.9105,-4.701,-4.5873,-4.716,-4.7249,-4.7249,-4.7309,-4.6022,-4.5813,-4.7219,0.0,0.0,0.0,0.0,0.0,0.0,0.0,0.0,0.0,0.0,0.0,0.0,0.0,0.0,0.0,0.0,0.0,0.0,0.0,0.0,0.0,0.0,0.0,0.0,0.0,0.0,0.0,0.0,0.0,0.0,0.0,0.0,0.0,0.0,0.0,0.0,0.0,0.0,0.0,0.0,0.0,0.0,0.0,0.0,0.0,0.0,0.0,0.0,0.0,0.0,0.0,0.0,0.0,0.0,0.0,0.0,0.0,0.0,0.0,0.0,-4.3269,0.0,0.0,0.0,0.0,0.0,0.0,0.0,0.0,0.0,0.0,0.0,0.0,0.0,0.0,0.0,0.0,0.0,0.0,0.0,0.0,0.0,0.0,0.0,0.0,0.0,0.0,0.0,0.0,0.0,0.0,0.0,0.0,0.0,0.0,0.0,0.0,0.0,0.0,0.0,0.0,0.0,-4.9074,-4.7429,-4.6411,-4.7219,-4.683,-4.6741,-4.7249,-4.5603,-4.5334,-4.7189,-4.6052,0.0,0.0,0.0,0.0,0.0,0.0,0.0,0.0,0.0,0.0,0.0,0.0,0.0,0.0,0.0,0.0,0.0,0.0,0.0,0.0,0.0,0.0,0.0,0.0,0.0,0.0,0.0,0.0,0.0,0.0,0.0,0.0,0.0,0.0,0.0,0.0,0.0,0.0,0.0,0.0,0.0,0.0,0.0,0.0,0.0,0.0,0.0,0.0,0.0,0.0,0.0,0.0,0.0,0.0,0.0,0.0,0.0,0.0,0.0,0.0,-4.4678,0.0,0.0,0.0,0.0,0.0,0.0,0.0,0.0,0.0,0.0,0.0,0.0,0.0,0.0,0.0,0.0,0.0,0.0,0.0,0.0,0.0,0.0,0.0,0.0,0.0,0.0,0.0,0.0,0.0,0.0,0.0,0.0,0.0,0.0,0.0,0.0,0.0,0.0,0.0,0.0,-4.9119,-4.7249,-4.6082,-4.677,-4.6232,-4.5963,-4.6322,-4.5095,-4.4766,-4.5813,-4.4697,0.0,0.0,0.0,0.0,0.0,0.0,0.0,0.0,0.0,0.0,0.0,0.0,0.0,0.0,0.0,0.0,0.0,0.0,0.0,0.0,0.0,0.0,0.0,0.0,0.0,0.0,0.0,0.0,0.0,0.0,0.0,0.0,0.0,0.0,0.0,0.0,0.0,0.0,0.0,0.0,0.0,0.0,0.0,0.0,0.0,0.0,0.0,0.0,0.0,0.0,0.0,0.0,0.0,-4.434,-4.5522,-4.698,-4.7638,-4.7429,-4.6446,-4.5975,-4.5167,-4.4414,-4.7126,0.0,0.0,0.0,0.0,0.0,0.0,0.0,0.0,0.0,0.0,0.0,0.0,0.0,0.0,0.0,0.0,0.0,0.0,0.0,0.0,0.0,0.0,0.0,0.0,-5.2426,-5.2336,-5.3443,0.0,0.0,0.0,0.0,0.0,0.0,0.0,0.0,0.0,0.0,0.0,-4.909,-4.698,-4.5693,-4.6219,-4.5603,-4.5155,-4.5274,-4.4586,-4.4116,-4.4002,-4.3324,-4.3533,0.0,0.0,0.0,0.0,0.0,0.0,0.0,0.0,0.0,0.0,0.0,0.0,0.0,0.0,0.0,0.0,0.0,0.0,0.0,0.0,0.0,0.0,0.0,0.0,0.0,0.0,0.0,0.0,0.0,0.0,0.0,0.0,-4.2228,-4.2386,0.0,0.0,0.0,0.0,0.0,0.0,0.0,0.0,0.0,0.0,0.0,0.0,0.0,-4.0594,-4.2724,-4.3375,-4.3881,-4.4279,-4.5475,-4.5883,-4.5574,-4.6262,-4.68,-4.7219,-4.7672,0.0,-4.6883,-4.7896,0.0,0.0,0.0,0.0,0.0,0.0,0.0,0.0,0.0,0.0,0.0,0.0,0.0,0.0,0.0,0.0,0.0,0.0,0.0,0.0,0.0,0.0,-5.2396,-5.1648,-5.1409,-5.1409,0.0,-5.2431,-5.299,-5.2334,-5.0971,-5.0392,0.0,0.0,0.0,0.0,0.0,0.0,-4.8476,-4.713,-4.619,-4.6279,-4.5185,-4.4676,-4.5244,-4.4167,-4.3256,-4.2847,-4.3602,-4.398,-4.3834,-4.6773,0.0,0.0,0.0,0.0,0.0,0.0,0.0,0.0,0.0,0.0,0.0,0.0,0.0,0.0,0.0,0.0,0.0,0.0,0.0,0.0,0.0,0.0,0.0,0.0,0.0,0.0,0.0,0.0,0.0,-4.2596,-4.324,-4.248,-4.3299,-4.3503,0.0,0.0,0.0,0.0,0.0,0.0,0.0,0.0,0.0,-3.9897,-4.0965,-4.2003,-4.3041,-4.4075,-4.5039,-4.602,-4.6959,-4.7459,-4.7549,-4.8207,-4.885,-4.9553,-5.0212,-5.0331,-5.0032,-4.9583,-4.9284,-4.9164,0.0,0.0,0.0,0.0,-5.0401,-5.0808,-5.1947,-5.2755,-5.3533,-5.47,0.0,0.0,0.0,0.0,0.0,0.0,0.0,-5.3331,0.0,0.0,-5.1947,-5.0853,-5.0614,-5.0614,-5.0614,-5.084,-5.1109,-5.1558,-5.1706,-5.1778,-5.1673,-5.0283,0.0,0.0,0.0,-4.7638,-4.7728,-4.6262,-4.5185,-4.5185,-4.4306,-4.3858,-4.4167,-4.3618,-4.318,-4.3001,-4.3231,-4.3962,-4.5402,-4.7054,-4.9616,0.0,0.0,0.0,0.0,0.0,0.0,0.0,0.0,0.0,0.0,0.0,0.0,0.0,0.0,0.0,0.0,0.0,0.0,0.0,0.0,0.0,0.0,0.0,0.0,0.0,0.0,0.0,0.0,-4.2157,-4.2668,-4.1355,-4.2251,-4.2648,0.0,0.0,0.0,0.0,0.0,0.0,-3.8481,-3.9995,-4.0941,-4.1117,-4.2713,-4.3816,-4.4383,-4.5391,-4.6609,-4.8057,-4.8716,-4.9374,-5.0032,-5.069,-5.1302,-5.2007,-5.2516,-5.2725,-5.2606,-5.1063,-4.9912,-4.9075,-4.9404,-4.9123,-4.8639,-4.9961,-5.0674,-5.1187,-5.2702,-5.3503,-5.4042,-5.4551,-5.4371,-5.3892,-5.3533,0.0,0.0,0.0,0.0,-5.2725,-5.1917,-5.1828,-5.1648,-5.0465,-5.0196,-5.0136,-5.0032,-4.9733,-4.9703,0.0,-5.1259,-5.1558,-5.0421,-4.9404,0.0,-4.9149,-4.7535,-4.6441,-4.6741,-4.5334,-4.4317,-4.4317,-4.3678,-4.329,-4.329,-4.3439,-4.3409,-4.3138,-4.3643,-4.4732,-4.6625,-4.7947,-5.0299,-5.3913,0.0,0.0,0.0,0.0,0.0,0.0,0.0,0.0,0.0,0.0,0.0,0.0,0.0,0.0,0.0,0.0,0.0,0.0,0.0,0.0,0.0,0.0,0.0,0.0,0.0,0.0,0.0,0.0,0.0,-3.8075,-3.8668,0.0,0.0,0.0,0.0,-3.7965,-3.8517,-3.914,-3.9781,-4.0521,-4.1976,-4.4352,-4.5194,-4.6663,-4.897,-4.903,-4.9388,-5.0046,-5.0704,-5.1409,-5.2067,-5.2725,-5.3414,-5.4072,-5.4102,-5.4102,-5.3952,-5.1977,-5.1139,-5.102,-5.0375,-5.0913,-5.1882,-5.1332,-5.1959,-5.3066,-5.3174,-5.3204,-5.3563,-5.5499,-5.6098,-5.5777,-5.4551,-5.4162,0.0,0.0,-5.2229,-5.1947,-5.0614,-5.0764,-5.1079,-5.0345,-5.0196,-5.0016,-4.9464,-4.9763,-4.9853,0.0,-4.8476,-4.8327,-4.7608,0.0,-4.7189,-4.6578,-4.6369,-4.6082,-4.5484,-4.4766,-4.4317,-4.4317,-4.3678,-4.329,-4.329,-4.3858,-4.3779,-4.2691,-4.5716,-4.714,-4.6184,-5.0377,-5.3003,-5.3632,-5.5306,0.0,0.0,0.0,0.0,0.0,0.0,0.0,0.0,0.0,0.0,0.0,0.0,0.0,0.0,0.0,0.0,0.0,0.0,0.0,0.0,0.0,0.0,0.0,0.0,0.0,0.0,0.0,0.0,-3.9149,-3.962,0.0,-3.967,-3.916,-3.9094,-3.98,-4.0369,-4.1218,-4.2324,-4.3751,-4.5127,-4.6391,-4.7871,-4.901,-4.9883,-5.0301,-5.0631,-5.0823,-5.1528,-5.1977,-5.2247,-5.3354,-5.3982,-5.4221,-5.467,-5.485,-5.476,-5.3623,-5.2636,-5.1798,-5.1139,-5.1409,-5.2187,-5.1947,-5.2965,-5.4461,-5.4461,-5.4461,-5.4371,-5.3803,-5.3623,-5.3207,-5.1062,-5.0969,-5.1339,-5.0044,-5.0011,-5.0301,-5.0196,-5.0092,-4.9912,-4.9673,-4.9284,-4.8925,-4.8686,-4.8476,-4.8207,-4.7728,-4.8327,-4.8566,-4.7489,-4.695,-4.6741,-4.692,-4.6232,-4.5574,-4.5334,-4.4706,-4.4137,-4.3678,-4.3439,-4.3469,-4.3888,-4.4167,-4.4629,-4.5294,-4.6893,-4.7915,-4.8216,-5.0243,-5.1891,-5.3171,-5.4306,-5.5776,0.0,0.0,0.0,0.0,0.0,0.0,0.0,0.0,0.0,0.0,0.0,0.0,0.0,0.0,0.0,0.0,0.0,0.0,0.0,0.0,0.0,0.0,0.0,0.0,0.0,0.0,-3.9081,-3.9485,-4.0013,-4.0372,-4.0395,-4.023,-4.0484,-4.1421,-4.2208,-4.3415,-4.5203,-4.6461,-4.7503,-4.8313,-4.9766,-5.0524,-5.0524,-5.099,-5.1319,-5.1558,-5.2217,-5.2665,-5.2905,-5.4042,-5.4551,-5.4551,-5.4999,-5.5179,-5.5149,-5.473,-5.4132,-5.3443,-5.2576,-5.2636,-5.3234,-5.3473,-5.467,-5.6137,-5.5927,-5.5538,-5.491,-5.3114,-5.2366,-5.1834,-4.9868,-4.971,-5.0027,-4.9175,-4.9284,-4.9643,-4.9853,-4.9763,-4.9494,-4.909,-4.8596,-4.8297,-4.8297,-4.7758,-4.7369,-4.7578,-4.8147,-4.8267,-4.716,-4.6578,-4.6381,-4.6591,-4.5693,-4.4975,-4.4975,-4.4377,-4.3768,-4.3349,-4.3499,-4.3958,-4.4749,-4.5243,-4.615,-4.7652,-4.831,-4.9,-4.9731,-5.0141,-5.1192,-5.2818,-5.4142,-5.5611,-5.7244,0.0,0.0,0.0,0.0,0.0,0.0,0.0,0.0,0.0,0.0,0.0,0.0,0.0,0.0,0.0,0.0,0.0,0.0,0.0,0.0,0.0,0.0,0.0,-3.7789,-3.8475,-3.8886,-3.8969,-3.9501,-3.9455,-3.8362,-3.9976,-4.1595,-4.2814,-4.4086,-4.585,-4.8307,-4.8413,-4.8968,-5.0179,-5.0853,-5.1229,-5.1229,-5.1229,-5.1558,-5.2217,-5.2875,-5.3563,-5.4221,-5.488,-5.5179,-5.5179,-5.5179,-5.5179,-5.5179,-5.5179,-5.5598,-5.6047,-5.476,-5.467,-5.5359,-5.5987,-5.7004,-5.7992,-5.7334,-5.6286,-5.4999,-5.3623,-5.2755,-5.2097,-5.1439,-5.0734,-5.0226,-5.0226,-5.0226,-5.0076,-4.9434,-4.9733,-4.9837,-4.8566,-4.8267,-4.8267,-4.8267,-4.7758,-4.7489,-4.8117,-4.7728,-4.71,-4.6471,-4.6309,-4.6142,-4.5454,-4.4825,0.0,-4.4347,-4.3738,-4.3389,-4.3359,-4.3968,-4.4809,-4.5911,-4.7122,-4.8302,-4.9379,-5.0051,-5.0358,-5.0358,-5.0358,-5.103,-5.2485,-5.4946,-5.6645,-5.7437,0.0,0.0,0.0,0.0,0.0,0.0,0.0,0.0,0.0,0.0,0.0,0.0,0.0,0.0,0.0,0.0,0.0,0.0,0.0,0.0,0.0,0.0,-3.6505,-3.6832,-3.7653,-3.8774,-4.0204,-4.1229,-4.2415,-4.3945,-4.497,-4.6283,-4.8069,-4.8482,-4.9395,-5.1017,-5.0698,-5.0525,-5.0913,-5.1109,-5.1229,-5.1229,-5.1678,-5.2007,-5.2217,-5.3384,-5.4012,-5.4221,-5.488,-5.5179,-5.5179,-5.5179,-5.5179,-5.5179,-5.5179,-5.5598,-5.6188,-5.5777,-5.6316,-5.7274,-5.6944,-5.7064,-5.7363,-5.7154,-5.6555,-5.5598,-5.3773,-5.3054,-5.2695,-5.1558,-5.1079,-5.096,-5.096,-5.096,-5.069,-4.9553,-4.9449,-4.9194,-4.7878,-4.7578,-4.7578,-4.7578,-4.7429,-4.7369,-4.7549,-4.7429,-4.7249,-4.707,-4.704,-4.698,-4.677,-4.6591,-4.6112,-4.5155,-4.4855,-4.4881,-4.5164,-4.5364,-4.6253,-4.8294,-4.8745,-4.9267,-5.0077,-5.0301,-5.0048,-4.9256,-4.9215,-5.0285,-5.2525,-5.5246,-5.7275,0.0,0.0,0.0,0.0,0.0,0.0,0.0,0.0,0.0,0.0,0.0,0.0,0.0,0.0,0.0,0.0,0.0,0.0,0.0,0.0,0.0,0.0,-3.7792,-3.8376,-3.856,-3.8946,-4.0129,-4.2528,-4.3864,-4.5119,-4.6643,-4.8065,-4.949,-5.0962,-5.1029,-5.1503,-5.2557,-5.1738,-5.1349,-5.1618,-5.1618,-5.1768,-5.2037,-5.2426,-5.2755,-5.3054,-5.3832,-5.4371,-5.464,-5.5029,-5.5179,-5.5179,-5.5179,-5.5179,-5.5209,-5.5478,-5.5987,0.0,0.0,0.0,0.0,0.0,-5.7573,-5.7094,-5.7094,-5.6496,-5.5478,-5.3743,-5.3174,-5.2935,-5.1618,-5.1229,-5.1229,-5.1229,-5.102,-5.0571,-4.9523,-4.912,-4.8596,-4.7549,-4.7309,-4.7369,-4.7668,-4.7489,-4.7399,-4.7668,-4.7489,0.0,-4.7309,-4.7309,-4.7309,-4.7309,-4.707,-4.6621,-4.5813,-4.5867,-4.607,-4.6307,-4.6955,-4.811,-4.9876,-4.9898,0.0,0.0,0.0,-4.9456,-4.8841,-4.9537,0.0,0.0,0.0,-5.7374,-5.8558,-5.9742,0.0,0.0,-6.1535,-6.2379,0.0,0.0,0.0,0.0,0.0,0.0,0.0,0.0,0.0,0.0,0.0,0.0,0.0,0.0,0.0,0.0,-3.9485,-4.1249,-4.2315,-4.207,-4.2852,-4.5594,-4.6891,-4.7694,-4.8042,-5.0074,-5.1628,-5.2317,-5.224,-5.2456,-5.3025,0.0,0.0,0.0,0.0,-5.2606,-5.3174,-5.3264,-5.3593,-5.4221,-5.4281,-5.461,-5.5179,-5.5179,-5.5239,-5.5299,-5.5299,-5.5329,-5.5448,-5.6047,-5.6585,-5.7124,-5.7274,-5.7693,-5.8291,-5.88,-5.8201,-5.7094,-5.7004,0.0,0.0,-5.3623,-5.3174,-5.2935,-5.1618,-5.1229,-5.1229,-5.1229,-5.0704,-5.0046,-4.9434,-4.882,-4.8117,-4.7459,-4.7309,-4.7459,-4.8057,-4.7728,-4.7489,-4.8057,-4.7698,-4.7309,-4.7309,-4.7309,-4.7309,-4.7309,-4.68,-4.6454,-4.6491,-4.6793,-4.7076,-4.7348,0.0,0.0,-5.09,-5.0728,-5.0855,-5.1488,-4.9821,-4.8831,-4.8934,-5.0708,-5.2469,-5.4199,-5.5926,-5.7171,-5.7881,-5.8558,-5.893,-5.9099,-6.1839,-6.2787,0.0,0.0,0.0,0.0,0.0,0.0,0.0,0.0,0.0,0.0,0.0,0.0,0.0,0.0,0.0,-3.9804,-4.0584,-4.2328,-4.6458,-4.7401,-4.7918,-4.8485,-4.8772,-4.9944,-5.2623,-5.2833,-5.307,-5.3754,-5.2789,-5.2247,-5.2396,-5.2157,-5.2067,-5.2187,-5.2725,-5.3054,-5.3174,-5.3743,-5.4072,-5.4221,0.0,0.0,-5.5179,-5.5179,-5.5478,-5.5987,-5.5987,-5.6256,-5.6735,-5.6855,-5.6974,-5.7214,-5.8291,-5.88,-5.886,-5.8471,-5.7812,-5.7034,-5.6526,-5.5837,-5.497,-5.3623,-5.3174,-5.2935,-5.1618,-5.1229,0.0,-5.1229,-5.0704,-5.0046,-4.9434,-4.882,-4.8117,-4.7459,-4.7309,-4.7339,-4.7459,-4.7399,-4.7339,-4.7459,-4.7399,-4.7309,-4.7309,-4.7309,-4.7309,-4.7309,-4.7189,-4.7189,-4.7466,-4.7574,-4.8278,-4.9964,-5.0418,-5.0889,-5.1658,-5.1641,-5.1005,-4.9496,-4.9013,-4.9058,-4.9667,-5.1637,-5.3452,-5.5028,-5.6194,-5.7171,-5.7881,-5.8017,-5.8423,-5.9032,-6.0216,-6.0689,0.0,0.0,0.0,0.0,0.0,0.0,0.0,0.0,0.0,0.0,0.0,-3.7763,0.0,0.0,-3.8981,-4.1779,-4.3009,-4.4814,-4.8247,-4.962,-5.0239,-5.0239,-5.0846,-5.1767,-5.3096,-5.3204,-5.3324,-5.3653,-5.3084,-5.2695,-5.2695,-5.2695,-5.2845,-5.3204,-5.3533,-5.3862,-5.4192,-5.4521,-5.47,-5.47,-5.5029,-5.5179,-5.5209,-5.5538,-5.5867,-5.6248,-5.6496,-5.6795,-5.7094,-5.7094,-5.7094,-5.7154,-5.7842,-5.8112,-5.8052,-5.7723,-5.7184,-5.6585,-5.6286,-5.5538,-5.4521,-5.3503,-5.2965,-5.2516,-5.1498,-5.1229,-5.1229,-5.1229,-5.0511,-4.9673,-4.9389,-4.8536,-4.7728,-4.7369,-4.7309,-4.7309,-4.7309,-4.7309,-4.7309,-4.7309,-4.7578,-4.7698,-4.7369,-4.7578,-4.7698,-4.7369,-4.7722,-4.8087,-4.8295,-4.9197,-5.0268,-5.129,-5.1853,-5.2124,-5.1924,-5.0935,-4.9821,-4.8614,-4.9046,-4.9905,-5.1137,-5.2714,-5.4324,-5.6007,-5.6549,-5.7171,-5.7881,-5.7881,-5.8084,-5.8457,-5.9201,-5.9742,0.0,0.0,0.0,0.0,0.0,0.0,0.0,0.0,-3.8505,-3.7481,-3.8034,-3.8657,-3.8493,-3.9459,-4.1091,-4.3561,-4.5504,-4.7384,-4.9319,-5.0644,-5.1319,-5.105,-5.2187,-5.2845,-5.2426,-5.2755,-5.3054,-5.3174,-5.3054,-5.3054,-5.3174,-5.3294,-5.3623,-5.4192,-5.4341,-5.464,-5.5179,-5.5179,-5.5179,-5.5179,-5.5179,-5.5179,-5.5209,-5.5748,-5.6107,-5.6406,-5.7154,-5.7483,-5.7483,-5.7363,-5.7214,-5.7094,-5.6974,-5.6825,-5.6735,-5.6885,-5.6585,-5.6166,-5.6017,-5.5209,-5.4102,-5.3414,-5.2725,-5.2067,-5.1409,-5.1229,-5.1229,-5.1229,-5.0272,-4.9299,-4.9299,-4.8297,-4.7309,-4.7309,-4.7309,-4.7309,-4.7309,-4.7309,-4.7309,-4.7309,-4.7848,-4.8117,-4.7578,-4.8027,-4.8295,-4.7701,-4.8293,-4.8932,-4.9376,-5.086,-5.1921,-5.1921,-5.2662,-5.2729,-5.1573,-4.9963,-4.8963,-4.8826,-4.9976,-5.1412,-5.2989,-5.4033,-5.5399,-5.7002,-5.7002,-5.7306,-5.7881,-5.8017,-5.8118,-5.8118,-5.9032,-5.9607,-4.3021,-4.2611,0.0,-4.1594,-4.101,-4.0194,0.0,0.0,-4.1223,-3.8753,-3.9886,-4.0872,-3.9318,-4.0889,-4.3105,-4.4976,-4.6874,-4.876,-5.0704,-5.1613,-5.1648,-5.0435,-5.1498,-5.2516,-5.3025,-5.2606,-5.2546,-5.3144,-5.2636,-5.2576,-5.3144,-5.3773,-5.4132,-5.4221,-5.479,-5.5119,-5.5179,-5.5179,-5.5179,-5.5179,-5.5179,-5.5179,-5.5179,-5.5269,-5.5927,-5.7064,-5.8321,-5.889,-5.883,-5.8261,-5.7633,-5.7034,-5.6496,-5.5927,-5.5478,-5.6047,-5.6278,-5.6077,-5.5508,-5.482,-5.4102,-5.3414,-5.2725,-5.2067,-5.1409,-5.1229,-5.1229,-5.1229,-5.0272,-4.9299,-4.9299,-4.8297,-4.7309,-4.7309,-4.7309,-4.7309,-4.7309,-4.7309,-4.7309,-4.7309,-4.7848,-4.8267,-4.8177,-4.8716,-4.904,-4.8686,-4.8718,-4.9496,-5.1303,-5.1776,-5.1921,-5.1921,-5.1993,-5.1527,-5.0141,-4.9874,-5.0029,-5.0542,-5.2508,-5.4033,-5.4941,-5.5944,-5.6894,-5.7746,-5.778,-5.7814,-5.7881,-5.8558,-5.8896,-5.893,-6.0385,-6.0351,-4.0935,0.0,0.0,0.0,-4.0876,-4.098,-4.0917,-4.195,-4.2426,-4.0633,-4.1608,-4.2522,-4.1808,-4.3101,-4.4864,0.0,-4.8035,-4.9359,-5.0981,-5.1139,-5.072,-4.9793,-4.9491,-4.994,-5.1314,-5.0833,-5.1061,-5.2498,-5.2725,-5.3054,-5.3743,-5.479,-5.5179,-5.479,-5.5418,-5.5568,-5.5179,-5.5179,-5.5179,-5.5179,-5.5598,-5.5568,-5.5239,-5.6376,-5.7393,-5.8291,-5.886,-5.865,-5.7902,-5.7633,-5.6915,-5.5957,-5.5718,-5.5448,-5.5209,-5.5508,-5.5359,-5.4999,-5.473,-5.3922,-5.2995,-5.2695,-5.2157,-5.1588,-5.1289,-5.1229,-5.1229,-5.1229,-5.0272,-4.9299,-4.9299,-4.8297,-4.7309,-4.7309,-4.7309,-4.7309,-4.7309,-4.7608,-4.7878,-4.7878,-4.8716,-4.9314,-4.8925,-4.997,-5.0697,-5.0353,-5.0294,-5.0689,-5.1773,-5.1921,-5.1831,-5.1626,-5.1051,-5.0866,-5.1322,-5.0809,-5.1048,-5.2396,-5.3955,-5.5127,-5.5781,-5.6862,-5.7577,-5.7881,-5.8321,-5.8558,-5.8558,-5.9302,-5.9641,-5.9674,-6.1231,-6.1603,-3.9858,0.0,0.0,-4.0756,-4.1025,-4.1632,-4.25,-4.3299,-4.3715,-4.327,-4.3875,-4.4409,-4.4065,-4.4872,-4.6034,-4.7438,-4.8391,-4.9417,-5.0743,-5.0186,-4.9317,-4.8401,-4.6962,-4.6833,-4.8752,-4.8931,-4.9922,-5.23,-5.2905,-5.3563,-5.4431,-5.5388,-5.5688,-5.5209,-5.5658,-5.5658,-5.5179,-5.5179,-5.5269,-5.5478,-5.6008,-5.6017,-5.5777,-5.7393,-5.8381,-5.883,-5.9039,-5.8441,-5.7363,-5.7184,-5.6466,-5.5448,-5.5269,-5.5179,-5.5179,-5.5179,-5.479,-5.4221,-5.4221,-5.3324,-5.2187,-5.2187,-5.1768,-5.1229,-5.1229,-5.1229,-5.1229,-5.1229,-5.0391,-4.9523,-4.9523,-4.8686,-4.7788,-4.7608,-4.7578,-4.7519,-4.7339,-4.7818,-4.8297,-4.8297,-4.9344,-5.0046,-4.9613,-5.0842,-5.1818,-5.1662,-5.1745,-5.1929,-5.2305,-5.1977,-5.168,-5.1467,-5.0649,-5.0819,-5.2661,-5.24,-5.2727,-5.4205,-5.5402,-5.6208,-5.663,-5.7648,-5.8186,-5.8186,-5.893,-5.9302,-5.9336,-6.0283,-6.0723,-6.0757,-6.2279,-6.299,0.0,0.0,-4.0576,-4.1205,-4.1354,-4.1782,-4.306,-4.4347,-4.5603,-4.6877,-4.7176,-4.6785,-4.5463,-4.5864,-4.6367,-4.6367,-4.7482,-4.8748,-5.0057,-4.9128,-4.7662,-4.583,-4.3912,-4.3514,0.0,-4.7286,-4.9678,-5.2946,-5.3174,-5.3773,-5.5089,-5.5209,-5.5209,-5.5179,-5.5209,-5.5209,-5.5179,-5.5179,-5.5508,-5.6188,-5.6218,-5.6466,-5.7064,-5.7782,-5.8141,-5.8201,-5.883,-5.871,-5.8052,-5.7363,-5.6705,-5.6128,-5.5448,-5.5179,-5.5179,-5.5179,-5.479,-5.4221,-5.4221,-5.3324,-5.2187,-5.2187,-5.1768,-5.1229,-5.1229,-5.1229,-5.1229,-5.1229,-5.0674,-5.0166,-5.0166,-4.9703,-4.909,-4.8416,-4.8267,-4.8087,-4.7429,-4.7818,-4.8297,-4.8297,-4.9344,-5.0196,-5.0166,-5.1058,-5.1888,-5.2227,-5.261,-5.2997,-5.3416,-5.2253,-5.1421,-5.1499,-5.114,-5.1623,-5.3396,-5.4535,-5.5446,-5.6099,-5.7189,-5.7811,-5.7845,-5.8555,-5.8998,-5.8998,-5.9708,-6.008,-6.008,-6.1569,-6.2313,-6.2347,-6.3835,-6.4546,0.0,0.0,-4.2402,-4.2611,-4.3329,-4.4227,-4.5125,-4.6352,-4.7279,-4.7309,-4.6371,-4.5167,-4.3798,-4.378,-4.3937,-4.3864,-4.5586,-4.7109,-4.7551,-4.7158,-4.6482,-4.5573,-4.4411,0.0,0.0,0.0,0.0,-5.2222,-5.2935,-5.3773,-5.5119,-5.5987,-5.6256,-5.5867,-5.6675,-5.6915,-5.6466,-5.6466,-5.6555,-5.6795,-5.6795,-5.7363,-5.8411,-5.7752,-5.7693,-5.8112,-5.7872,-5.7423,-5.6825,-5.6585,-5.6107,-5.5508,-5.5269,-5.5179,-5.5179,-5.5179,-5.479,-5.4132,-5.3683,-5.2935,-5.2127,-5.1678,-5.1409,-5.1229,-5.1229,-5.1229,-5.1229,-5.1229,-5.0704,-5.0196,-5.0196,-4.9763,-4.9239,-4.903,-4.897,-4.891,-4.87,-4.9134,-4.9583,-4.9583,-5.0255,-5.0853,-5.0853,-5.1773,-5.266,-5.3031,-5.2622,-5.2039,-5.1516,-5.143,-5.1375,-5.113,-5.2039,-5.3396,-5.5154,-5.5686,-5.6282,-5.7264,-5.7665,-5.7881,-5.7881,-5.8626,-5.9032,-5.9032,-6.0723,-6.1637,-6.1637,-6.3125,-6.3869,-6.3869,-6.4377,-6.4613,0.0,-4.2701,-4.3708,-4.3917,-4.4855,-4.5843,-4.6501,-4.7339,-4.7818,-4.7399,-4.5726,-4.3874,-4.2395,-4.1434,-4.0993,-4.1377,-4.2765,-4.4435,-4.6126,-4.5699,-4.5372,-4.5758,-4.4781,-4.5025,0.0,0.0,0.0,-5.2222,-5.3174,-5.4132,-5.5478,-5.6526,-5.6915,-5.6526,-5.7334,-5.7543,-5.7094,-5.7094,-5.7094,-5.7094,-5.7573,-5.8022,-5.8351,-5.7752,-5.7573,-5.7723,-5.7304,-5.6735,-5.6218,-5.6218,-5.5777,-5.5179,-5.5179,-5.5179,-5.5179,-5.5179,-5.491,-5.4431,-5.3503,-5.2755,-5.2097,-5.1439,-5.1229,-5.1229,-5.1229,-5.1229,-5.1229,-5.1229,-5.0853,-5.0554,-5.0554,-5.0272,-4.9912,-4.9673,-4.9613,-4.9553,-4.9359,-4.9763,-5.0196,-5.0196,-5.0734,-5.1229,-5.1229,-5.1926,-5.2566,-5.2713,-5.1841,-5.0903,-5.0272,-5.0929,-5.1471,-5.1486,-5.3085,-5.4868,-5.6635,-5.6816,-5.7114,-5.7845,-5.7881,-5.8017,-5.8287,-5.8998,-5.9539,-5.9844,-6.1772,-6.2787,-6.2787,-6.4275,-6.485,-6.4613,-6.5155,-6.4952,-4.259,-4.3509,-4.4676,-4.5274,-4.5963,-4.6621,-4.7219,-4.7339,-4.7236,-4.7133,-4.5169,-4.2897,0.0,0.0,-3.782,-3.915,-3.9389,-4.1129,-4.5849,-4.4903,-4.448,0.0,0.0,0.0,0.0,0.0,0.0,-5.3036,0.0,-5.479,-5.6158,-5.6795,-5.7154,-5.7154,-5.7154,-5.7154,-5.7184,-5.7184,-5.7184,-5.7154,-5.8441,-5.8351,-5.7124,-5.7752,-5.7663,-5.7034,-5.7004,-5.6675,-5.6188,-5.6188,-5.5748,-5.5179,-5.5179,-5.5179,-5.5179,-5.5179,-5.5179,-5.4999,-5.3653,-5.2785,-5.2127,-5.1439,-5.1229,-5.1229,-5.1229,-5.1229,-5.1229,-5.1229,-5.1229,-5.1229,-5.1229,-5.1229,-5.105,-5.0375,-5.0255,-5.0076,-4.9494,-4.9853,-5.0255,-5.0255,-5.0734,-5.1229,-5.1229,-5.147,-5.1647,-5.1406,-5.0464,-4.9738,-4.976,-5.0704,-5.1709,-5.2493,-5.415,-5.5937,-5.7741,-5.7881,-5.7881,-5.7881,-5.7881,-5.822,-5.8998,-5.9708,-6.0486,-6.1298,-6.2787,-6.3565,-6.3531,-6.4986,-6.5324,-6.4681,-6.6068,-6.5595,-4.5035,-4.6262,-4.7309,-4.7489,-4.8027,-4.8446,-4.8117,-4.7668,-4.6794,-4.4995,-4.2353,-3.9786,0.0,0.0,0.0,-3.9494,-4.0914,0.0,-4.5915,-4.6289,0.0,-4.7731,0.0,-4.8538,-5.0562,-5.0894,0.0,0.0,-5.4401,-5.479,-5.6158,-5.7244,-5.7872,-5.7872,-5.7872,-5.8082,-5.859,-5.859,-5.8351,-5.7872,-5.8201,-5.7932,-5.7094,-5.6795,-5.6585,-5.6376,-5.5897,-5.5598,-5.5448,-5.5448,-5.5329,-5.5179,-5.5179,-5.5179,-5.5179,-5.5179,-5.5179,-5.4999,-5.3653,-5.3084,-5.2725,-5.1588,-5.1229,-5.1229,-5.1229,-5.1229,-5.1229,-5.1229,-5.1229,-5.1229,-5.1229,-5.1229,-5.1169,-5.102,-5.0913,-5.093,-5.075,-5.084,-5.0913,-5.0913,-5.1063,-5.1229,-5.1229,-5.0892,-5.0744,-5.1181,-5.0213,-4.9344,-4.9089,-5.0469,-5.1748,-5.2533,-5.4868,-5.678,-5.7814,-5.7881,-5.7881,-5.7881,-5.7881,-5.822,-5.8998,-5.9708,-6.0486,-6.1298,-6.3294,-6.4072,-6.3531,-6.4986,-6.5595,-6.5425,-6.5256,-6.5155,-4.689,-4.8147,-4.9134,-4.9134,-4.9434,-4.9374,-4.8147,-4.7339,-4.6152,-4.3649,-4.1155,0.0,0.0,0.0,0.0,0.0,0.0,0.0,-4.6328,-4.7095,-4.8048,0.0,-5.0495,0.0,-5.2498,-5.2636,-5.3234,0.0,-5.47,-5.5209,-5.6496,-5.7274,-5.7663,-5.7663,-5.7663,-5.7842,-5.8231,-5.88,-5.862,-5.7663,-5.7992,-5.7633,-5.6675,-5.6316,-5.6068,-5.5718,0.0,-5.5179,-5.5179,-5.5179,-5.5179,-5.5179,-5.5179,-5.5179,-5.5149,-5.488,-5.476,-5.4581,-5.3204,-5.2755,-5.2576,-5.1558,-5.1229,-5.1229,-5.1229,-5.1229,-5.1229,-5.1229,-5.1229,-5.1229,-5.1229,-5.1229,-5.1229,-5.1229,-5.1229,-5.1229,-5.1229,-5.1229,-5.1229,-5.1229,-5.1229,-5.1229,-5.1229,-5.0853,-5.0644,-5.0734,-5.0152,-4.9509,-4.9078,-5.0429,-5.1748,-5.2493,-5.4829,-5.663,-5.734,-5.7712,-5.8017,-5.8355,-5.8389,-5.8863,-5.9979,-6.0419,-6.1129,-6.2245,-6.3802,-6.441,-6.4005,-6.5459,-6.5831,-6.5222,-6.5459,-6.5459,-4.8506,-4.9643,-5.0554,-5.0465,-5.0375,-4.9807,-4.7878,-4.6711,-4.5293,-4.2643,0.0,-3.8688,-3.6626,-3.6212,-3.6427,-3.7165,0.0,-4.2273,-4.7282,-4.7974,-4.9333,-5.2897,-5.2815,-5.2725,-5.3384,-5.3443,-5.3743,-5.4431,-5.491,-5.5718,-5.6915,-5.7064,-5.7094,-5.7094,-5.7184,-5.7244,-5.7244,-5.8471,-5.8471,-5.7244,-5.7842,-5.7483,-5.6286,-5.6286,-5.5927,-5.5329,-5.5329,-5.5269,-5.5179,-5.5179,-5.5179,-5.5179,-5.5179,-5.5149,-5.4999,-5.4431,-5.4162,-5.3892,-5.2636,-5.2187,-5.2097,-5.1439,-5.1229,-5.1229,-5.1229,-5.1229,-5.1229,-5.1229,-5.1229,-5.1229,-5.1229,-5.1229,-5.1229,-5.1229,-5.1289,-5.1349,-5.1349,-5.1409,-5.1439,-5.1259,-5.1289,-5.1319,-5.1229,-5.1229,-5.102,-5.0405,-5.0315,-5.0106,-4.9629,-5.0736,-5.1797,-5.2581,-5.456,-5.619,-5.7036,-5.7679,-5.8355,-5.9099,-5.9167,-5.981,-6.1231,-6.1298,-6.1941,-6.3328,-6.4174,-6.4546,-6.4478,-6.5933,-6.6,-6.4783,-6.6068,-6.6034,-5.0541,-5.1678,-5.2546,-5.2007,-5.1439,-5.0541,-4.8566,-4.6322,0.0,0.0,-3.8399,-3.6559,-3.567,-3.5143,0.0,-4.0236,0.0,0.0,0.0,0.0,-5.1411,0.0,0.0,0.0,0.0,0.0,0.0,0.0,0.0,-5.5538,-5.6286,-5.6825,-5.7094,-5.7094,-5.7633,-5.7932,-5.7932,-5.871,-5.871,-5.7962,-5.8052,-5.7693,-5.6944,-5.6944,-5.6585,-5.6068,-5.6068,0.0,-5.5179,-5.5179,-5.5179,-5.5179,-5.5179,-5.485,-5.4371,-5.4251,-5.3832,-5.3234,-5.2456,-5.2187,-5.2097,-5.1439,-5.1229,-5.1229,-5.1229,-5.1229,-5.1229,-5.1229,-5.1229,-5.1229,-5.1229,-5.1229,-5.1229,-5.1229,-5.1618,-5.2037,-5.2037,-5.2456,-5.2516,-5.1439,-5.1648,-5.1858,-5.1319,-5.1229,-5.1169,-5.1033,-5.105,-5.102,-5.09,-5.1701,-5.2613,-5.3317,-5.5359,-5.7171,-5.8524,-5.8761,-5.9133,-5.9877,-5.9911,-6.0317,-6.1264,-6.1298,-6.1704,-6.255,-6.3903,-6.4309,-6.37,-6.5155,-6.5764,-6.5493,-6.5764,-6.6068,-5.1887,-5.3204,-5.4162,-5.3832,-5.2725,-5.105,-4.8386,0.0,0.0,0.0,-3.8402,-3.7098,-3.6222,0.0,0.0,0.0,0.0,0.0,0.0,0.0,0.0,0.0,0.0,0.0,0.0,0.0,0.0,0.0,0.0,-5.5478,-5.6188,-5.6436,-5.6615,-5.6615,-5.7244,-5.7573,-5.7573,-5.8261,-5.8441,-5.8112,-5.8112,-5.7962,-5.7633,-5.7244,-5.6944,-5.6645,-5.6368,-5.6038,-5.5658,-5.5329,-5.4999,-5.467,-5.467,-5.4251,-5.3623,-5.3294,-5.2965,-5.2576,-5.1917,-5.1678,-5.1648,-5.1319,-5.1229,-5.1229,-5.1229,-5.1229,-5.1229,-5.1229,-5.1229,-5.1229,-5.1229,-5.1229,-5.1319,-5.1648,-5.2247,-5.2725,-5.2725,-5.2965,-5.2995,-5.2366,-5.2486,-5.2516,-5.1858,-5.2007,-5.2214,-5.2094,-5.2414,-5.2826,-5.3427,-5.4431,-5.4834,-5.4159,-5.6089,-5.7814,-5.893,-5.937,-5.9911,-6.0689,-6.0723,-6.1061,-6.1839,-6.2245,-6.2787,-6.3531,-6.4613,-6.4986,-6.4647,-6.573,-6.6068,-6.5696,-6.6102,-6.6474,-5.3114,-5.4581,-5.5568,-5.5448,-5.3683,-5.1169,-4.8027,-4.5155,0.0,0.0,-3.8782,-3.802,-3.7085,0.0,0.0,0.0,0.0,0.0,0.0,0.0,0.0,0.0,0.0,0.0,0.0,0.0,0.0,0.0,0.0,0.0,-5.6188,-5.6286,-5.6376,-5.6376,-5.6974,-5.7304,-5.7304,-5.7992,-5.8321,-5.8321,-5.8321,-5.8321,-5.8321,-5.7782,-5.7453,-5.7274,-5.6645,-5.6286,-5.6188,-5.5478,-5.479,-5.4221,-5.4221,-5.3713,-5.2905,-5.2396,-5.2127,-5.1917,-5.1409,-5.1229,-5.1229,-5.1229,-5.1229,-5.1229,-5.1229,-5.1229,-5.1229,-5.1229,-5.1229,-5.1229,-5.1229,-5.1229,-5.1409,-5.2217,-5.2905,-5.3384,-5.3384,-5.3503,-5.3533,-5.3234,-5.3294,-5.3204,-5.2516,-5.3056,-5.352,-5.3386,-5.3992,-5.487,-5.5826,-5.6947,-5.7142,-5.5827,-5.7299,-5.866,-5.9438,-6.0013,-6.0689,-6.1501,-6.167,-6.2042,-6.2618,-6.3362,-6.4005,-6.458,-6.5324,-6.5696,-6.5696,-6.644,-6.6508,-6.5933,-6.6542,-6.6812,-5.464,-5.5927,-5.6795,-5.6226,-5.3683,-5.0601,-4.7908,0.0,0.0,-3.9828,-3.859,-3.7746,-3.7426,-3.7139,0.0,0.0,0.0,-4.2102,0.0,0.0,0.0,0.0,0.0,0.0,0.0,0.0,0.0,0.0,0.0,0.0,-5.6248,-5.6705,-5.7004,-5.7004,-5.7663,-5.8022,-5.8022,-5.868,-5.9009,-5.9009,-5.9009,-5.9009,-5.9009,-5.8949,-5.859,-5.7992,-5.7304,-5.6705,0.0,-5.5478,-5.479,-5.4221,-5.4221,-5.3414,-5.2276,-5.2217,-5.1828,-5.1289,-5.1229,-5.1229,-5.1229,-5.1229,-5.1229,-5.1229,-5.1229,-5.1229,-5.1229,-5.1229,-5.1229,-5.1229,-5.1229,-5.1229,-5.1528,-5.2785,-5.3623,-5.4132,-5.4132,-5.4581,-5.464,-5.3414,-5.3683,-5.3892,-5.3204,-5.406,-5.4823,-5.4837,-5.5797,-5.6573,-5.6659,-5.7706,-5.8584,-5.9095,-5.9594,-6.0216,-6.1028,-6.1163,-6.1501,-6.2245,-6.2922,-6.3362,-6.3396,-6.4106,-6.4546,-6.4613,-6.5324,-6.5696,-6.5696,-6.644,-6.6779,-6.6711,-6.6779,-6.6812,-5.473,-5.6436,-5.7543,-5.6885,-5.3952,-5.0631,-4.8416,0.0,0.0,-4.0247,-3.9023,-3.8138,-3.8023,-3.754,-3.7517,0.0,0.0,0.0,0.0,0.0,0.0,0.0,0.0,0.0,0.0,0.0,0.0,0.0,0.0,0.0,-5.6765,-5.6944,-5.7094,-5.7094,-5.7363,-5.7693,-5.8112,-5.7962,-5.8291,-5.9099,-5.871,-5.871,-5.9099,-5.871,-5.8381,-5.8052,-5.7004,-5.6166,0.0,-5.488,-5.3982,-5.2995,-5.2995,-5.2426,-5.1618,-5.1618,-5.1439,-5.1229,-5.1229,-5.1229,-5.1229,-5.1229,-5.1229,-5.1229,-5.1229,-5.1229,-5.1229,-5.1229,-5.1229,-5.1229,-5.1229,-5.1798,-5.2546,-5.3054,-5.4012,-5.479,-5.479,-5.4999,-5.5029,-5.4491,-5.461,-5.4799,-5.487,-5.5625,-5.6432,-5.7045,-5.8258,-5.9156,-5.9496,-6.0305,-6.1113,-6.1884,-6.1267,-6.1129,-6.1907,-6.1941,-6.2279,-6.3024,-6.3362,-6.37,-6.414,-6.4884,-6.5459,-6.5933,-6.6643,-6.7015,-6.7015,-6.732,-6.7252,-6.6812,-6.6812,-6.6812,-5.4162,-5.6166,-5.7573,-5.6496,-5.3563,-5.0361,0.0,0.0,0.0,-4.0576,-3.9649,-3.8871,-3.8452,-3.8182,-3.8093,0.0,0.0,-3.92,0.0,0.0,0.0,0.0,0.0,0.0,0.0,0.0,0.0,0.0,0.0,0.0,-5.7423,-5.7034,-5.6825,-5.6825,-5.7004,-5.7244,-5.7543,-5.7453,-5.7782,-5.8501,-5.8261,-5.8261,-5.8501,-5.8022,-5.7812,-5.7752,-5.6436,-5.5628,0.0,-5.4251,-5.3234,-5.2187,-5.2187,-5.1798,-5.1229,-5.1229,-5.1229,-5.1229,-5.1229,-5.1229,-5.1229,-5.1229,-5.1349,-5.1468,-5.1289,-5.1229,-5.1229,-5.1229,-5.1229,-5.1229,-5.1229,-5.2067,-5.2935,-5.3144,-5.4072,-5.497,-5.5149,-5.5179,-5.5179,-5.5179,-5.5179,-5.545,-5.6182,-5.6981,-5.7983,-5.9216,-6.0622,-6.1673,-6.2234,-6.2719,-6.326,-6.3768,-6.2922,-6.2415,-6.2685,-6.2719,-6.2956,-6.3497,-6.3903,-6.4478,-6.5222,-6.5967,-6.6711,-6.7489,-6.7996,-6.8267,-6.8267,-6.803,-6.7624,-6.7117,-6.6914,-6.6812,-5.3025,-5.5119,-5.6645,-5.473,-5.2169,-4.9508,0.0,0.0,0.0,-4.0666,-4.0397,-3.9978,-3.8631,-3.8931,-3.917,-3.8512,0.0,0.0,0.0,0.0,0.0,0.0,0.0,0.0,0.0,0.0,0.0,0.0,0.0,0.0,-5.8112,-5.6885,-5.6248,-5.6248,-5.6765,-5.6795,-5.6248,-5.7453,-5.7782,-5.7124,-5.7812,-5.7782,-5.7124,-5.7094,-5.7094,-5.7034,-5.5748,-5.5209,0.0,-5.3743,-5.2785,-5.2187,-5.2187,-5.1798,-5.1229,-5.1229,-5.1229,-5.1229,-5.1229,-5.1229,-5.1229,-5.1229,-5.1648,-5.2067,-5.1409,-5.1229,-5.1229,-5.1229,-5.1229,-5.1229,-5.1229,-5.1708,-5.2366,-5.3025,-5.3713,-5.4401,-5.5059,-5.5179,-5.5179,-5.5179,-5.5179,-5.5601,-5.68,-5.7993,-5.9439,-6.138,-6.2706,-6.3728,-6.4478,-6.458,-6.458,-6.458,-6.458,-6.4275,-6.3565,-6.3497,-6.3497,-6.3531,-6.4884,-6.6,-6.6779,-6.7489,-6.8267,-6.9079,-6.9079,-6.9079,-6.9079,-6.8301,-6.7895,-6.7861,-6.7151,-6.6812,-5.1109,-5.2426,-5.3384,-5.1858,-4.9807,-4.7908,-4.6578,0.0,0.0,0.0,-4.1422,-4.0935,-4.0516,-4.0247,-4.0157,-4.0397,-4.0247,0.0,0.0,0.0,0.0,0.0,0.0,0.0,0.0,0.0,0.0,0.0,0.0,0.0,-5.6825,-5.6406,-5.6218,-5.6218,-5.6428,-5.6376,-5.6218,-5.6585,-5.6885,-5.7094,-5.6885,-5.6885,-5.7094,-5.6645,-5.6226,-5.5748,-5.488,-5.4012,-5.3114,-5.2695,-5.2127,-5.1528,-5.1528,-5.1409,-5.1229,-5.1229,-5.1229,-5.1229,-5.1229,-5.1229,-5.1229,-5.1229,-5.1349,-5.1498,-5.1289,-5.1528,-5.1798,-5.1349,-5.1229,-5.1229,-5.1229,-5.1708,-5.2366,-5.3025,-5.3713,-5.4619,-5.6128,-5.6445,-5.6686,-5.7512,-5.7668,-5.8039,-5.9226,-6.0174,-6.1248,-6.2706,-6.4106,-6.4715,-6.3971,-6.4309,-6.441,-6.3903,-6.3869,-6.3971,-6.4241,-6.4241,-6.4681,-6.5696,-6.6203,-6.7049,-6.8335,-6.8605,-6.9079,-6.9823,-6.9857,-6.9857,-6.9857,-6.9079,-6.8199,-6.7151,-6.6914,-6.6812,0.0,-5.0451,-5.1079,-4.9523,-4.8027,0.0,0.0,0.0,0.0,0.0,0.0,0.0,0.0,-4.0846,-4.0546,0.0,0.0,0.0,0.0,0.0,0.0,0.0,0.0,0.0,0.0,0.0,0.0,0.0,0.0,0.0,-5.6248,-5.5927,-5.5807,-5.5807,-5.5807,-5.5807,-5.5807,-5.6047,-5.6226,-5.6376,-5.6226,-5.6226,-5.6346,-5.5718,-5.5209,-5.476,-5.3862,-5.2965,0.0,-5.1947,-5.1588,-5.1229,-5.1229,-5.1229,-5.1229,-5.1229,-5.1229,-5.1229,-5.1229,-5.1229,-5.1229,-5.1229,-5.1229,-5.1259,-5.1498,-5.1708,-5.1738,-5.1319,-5.1229,-5.1289,-5.1528,-5.1887,-5.2426,-5.3354,-5.3892,-5.4688,-5.6597,-5.6991,-5.7339,-5.8587,-5.8812,-5.917,-6.0374,-6.0948,-6.1899,-6.364,-6.4681,-6.5053,-6.441,-6.4715,-6.485,-6.4377,-6.458,-6.5053,-6.5797,-6.5595,-6.5933,-6.7151,-6.7523,-6.8233,-6.9451,-6.9519,-6.9857,-7.0601,-7.0601,-7.0601,-7.0601,-6.9857,-6.8707,-6.7218,-6.7523,-6.7692,0.0,0.0,0.0,0.0,0.0,0.0,0.0,0.0,0.0,0.0,0.0,0.0,0.0,0.0,0.0,0.0,0.0,0.0,0.0,0.0,0.0,0.0,0.0,0.0,0.0,0.0,0.0,0.0,0.0,0.0,-5.6158,-5.5478,-5.5119,-5.5119,-5.5059,-5.5059,-5.5119,-5.5777,-5.5777,-5.5119,-5.5748,-5.5718,-5.5089,-5.4431,-5.4102,0.0,-5.2755,-5.2187,-5.2067,-5.1468,-5.1229,-5.1229,-5.1229,-5.1229,-5.1229,-5.1229,-5.1229,-5.1229,-5.1229,-5.1229,-5.1229,-5.1229,-5.1229,-5.1349,-5.2007,-5.1738,-5.1229,-5.1289,-5.1289,-5.1439,-5.2097,-5.2276,-5.2606,-5.3892,-5.4271,-5.4835,-5.6693,-5.7198,-5.7621,-5.8812,-5.9036,-5.939,-6.0544,-6.0811,-6.175,-6.4214,-6.4681,-6.4986,-6.5527,-6.5662,-6.5662,-6.5527,-6.6305,-6.7117,-6.7827,-6.732,-6.7286,-6.803,-6.8774,-6.9519,-7.0229,-7.0263,-7.0567,-7.121,-7.1176,-7.1142,-7.1075,-7.0432,-6.935,-6.7929,-6.8741,-6.9113,-4.6112,0.0,-4.6112,-4.4605,-4.4097,-4.3917,0.0,0.0,0.0,0.0,0.0,0.0,0.0,0.0,0.0,0.0,0.0,0.0,0.0,0.0,0.0,0.0,0.0,0.0,0.0,0.0,0.0,0.0,0.0,-5.5418,-5.5418,-5.479,-5.4431,-5.4431,-5.3922,-5.3922,-5.4431,-5.5089,-5.5089,-5.4431,-5.461,-5.4581,-5.4431,-5.3743,-5.3144,-5.2665,-5.2336,-5.1917,-5.1439,-5.1289,-5.1229,-5.1229,-5.1229,-5.1229,-5.1229,-5.1229,-5.1229,-5.1229,-5.1229,-5.1229,-5.1229,-5.1229,-5.1229,-5.1349,-5.2007,-5.1738,-5.1319,-5.1828,-5.1977,-5.2127,-5.2785,-5.2935,-5.3174,-5.4012,-5.4916,-5.606,-5.7973,-5.9125,-6.0085,-6.1317,-6.1521,-6.1635,-6.1951,-6.2899,-6.3889,-6.4505,-6.5561,-6.5933,-6.4986,-6.5358,-6.5256,-6.414,-6.5696,-6.7117,-6.7827,-6.8301,-6.8876,-6.9586,-6.9823,-7.0263,-7.1007,-7.1041,-7.0872,-7.0466,-6.9891,-6.9316,-6.8707,-6.9147,-6.8842,-6.7929,-6.8741,-6.9113,-4.5574,-4.5065,-4.4586,-4.3559,-4.329,-4.329,-4.329,0.0,0.0,0.0,0.0,0.0,0.0,0.0,0.0,0.0,0.0,0.0,0.0,0.0,0.0,0.0,0.0,0.0,0.0,0.0,0.0,0.0,0.0,-5.461,-5.4281,-5.3922,-5.3743,-5.3743,-5.3384,-5.3354,-5.3743,-5.4102,-5.4102,-5.3743,-5.3743,-5.3743,-5.3713,-5.3025,-5.2546,-5.2187,-5.1887,-5.1558,-5.1229,-5.1229,-5.1229,-5.1229,-5.1229,-5.1229,-5.1229,-5.1229,-5.1229,-5.1229,-5.1229,-5.1229,-5.1229,-5.1229,-5.1439,-5.1738,-5.2097,-5.2157,-5.2187,-5.2546,-5.2665,-5.2815,-5.3473,-5.3653,-5.3832,-5.4491,-5.5585,-5.6903,-5.8446,-5.974,-6.0953,-6.2183,-6.2381,-6.2516,-6.2854,-6.3565,-6.4343,-6.4986,-6.5797,-6.6,-6.5222,-6.5425,-6.5527,-6.5087,-6.6406,-6.776,-6.8842,-6.9654,-7.0297,-7.0669,-7.0703,-7.0872,-7.1312,-7.1312,-7.0973,-7.0195,-6.9485,-6.8876,-6.8436,-6.9214,-6.9383,-6.8977,-6.9755,-7.0128,-4.5633,-4.4885,-4.4287,-4.3469,-4.329,-4.329,-4.329,0.0,0.0,0.0,0.0,0.0,0.0,0.0,0.0,0.0,0.0,0.0,0.0,0.0,0.0,0.0,0.0,0.0,0.0,0.0,0.0,0.0,0.0,-5.3803,-5.3204,-5.3084,-5.3025,-5.3025,-5.2935,-5.2875,-5.2875,-5.3084,-5.3144,-5.3025,-5.3025,-5.3025,-5.2995,-5.2336,-5.2067,-5.2007,0.0,0.0,-5.1229,-5.1229,-5.1229,-5.1229,-5.1229,-5.1229,-5.1229,-5.1229,-5.1229,-5.1229,-5.1229,-5.1229,-5.1229,-5.1229,-5.1648,-5.2217,-5.2306,-5.2875,-5.3503,-5.3503,-5.3503,-5.3623,-5.4221,-5.4431,-5.466,-5.531,-5.6396,-5.7621,-5.8812,-6.0,-6.1227,-6.2358,-6.255,-6.2821,-6.37,-6.3937,-6.4478,-6.5831,-6.6136,-6.617,-6.6034,-6.6136,-6.6406,-6.6914,-6.776,-6.8774,-7.0094,-7.0872,-7.1312,-7.1312,-7.1312,-7.1278,-7.1142,-7.1041,-7.0669,-7.0026,-6.9282,-6.8977,-6.9113,-6.9823,-7.0195,-7.0195,-7.0973,-7.1312,-4.5514,-4.5214,-4.4855,-4.3589,-4.329,-4.329,0.0,0.0,0.0,0.0,0.0,0.0,0.0,0.0,0.0,0.0,0.0,0.0,0.0,0.0,0.0,0.0,0.0,0.0,0.0,0.0,0.0,0.0,0.0,-5.3294,-5.3174,-5.2665,-5.2336,-5.2336,-5.1798,-5.1528,-5.1528,-5.2636,-5.2905,-5.2336,-5.2336,-5.2336,-5.2336,-5.1678,-5.1379,-5.1379,0.0,-5.1229,-5.1229,-5.1229,-5.1229,-5.1229,-5.1229,-5.1229,-5.1229,-5.1229,-5.1229,-5.1229,-5.1229,-5.1229,-5.1229,-5.1229,-5.1648,-5.2306,-5.2845,-5.3892,-5.488,-5.488,-5.488,-5.491,-5.4999,-5.5448,-5.6022,-5.6616,-5.7621,-5.8857,-6.0043,-6.1276,-6.2352,-6.3187,-6.3328,-6.3768,-6.5121,-6.5899,-6.6609,-6.7421,-6.8132,-6.8335,-6.7658,-6.8166,-6.8368,-6.7793,-6.8977,-6.9925,-7.0161,-7.0872,-7.1312,-7.1312,-7.1312,-7.1041,-7.0398,-6.9755,-6.9383,-6.9282,-6.8504,-6.8402,-6.9113,-6.9823,-7.0195,-7.0195,-7.0973,-7.1312,-4.5574,-4.5304,-4.4975,-4.3618,-4.3559,-4.3738,0.0,0.0,0.0,0.0,0.0,0.0,0.0,0.0,0.0,0.0,0.0,0.0,0.0,0.0,0.0,0.0,0.0,0.0,0.0,0.0,0.0,0.0,0.0,-5.2486,-5.2127,-5.1498,-5.1139,-5.1139,-5.0511,-5.0152,-5.0152,-5.075,-5.1259,-5.1678,-5.1319,-5.1319,-5.1648,-5.099,-5.0853,-5.1229,0.0,-5.1229,-5.1229,-5.1229,-5.1229,-5.1229,-5.1229,-5.1229,-5.1229,-5.1229,-5.1229,-5.1229,-5.1229,-5.1229,-5.1289,-5.1618,-5.2187,-5.2905,-5.3952,-5.494,-5.5718,-5.5718,-5.5718,-5.5658,-5.5269,-5.5418,-5.5892,-5.6796,-5.7946,-5.9125,-6.0332,-6.1855,-6.3091,-6.3463,-6.414,-6.5019,-6.6102,-6.6576,-6.7049,-6.7793,-6.8199,-6.8335,-6.7963,-6.8605,-6.9113,-6.9147,-6.9755,-7.0364,-7.077,-7.1109,-7.1312,-7.1312,-7.1312,-7.1142,-7.0804,-7.0094,-6.9688,-6.9688,-6.9483,-6.9483,-6.9688,-7.0576,-7.0942,-7.0804,-7.1142,-7.1312,-4.5574,-4.5304,-4.4975,-4.3618,0.0,0.0,0.0,0.0,0.0,0.0,0.0,0.0,0.0,0.0,0.0,0.0,0.0,0.0,0.0,0.0,0.0,0.0,0.0,0.0,0.0,0.0,0.0,0.0,-5.2067,-5.1738,-5.1259,-5.0554,-5.0196,-5.0196,-4.9613,-4.9299,-4.9299,-4.9299,-4.9763,-5.075,-5.0242,-5.0272,-5.075,-5.0242,-5.0272,-5.075,-5.075,-5.075,-5.075,-5.075,-5.084,-5.099,-5.099,-5.1079,-5.1169,-5.087,-5.096,-5.1199,-5.1003,-5.1199,-5.1528,-5.2037,-5.2755,-5.3623,-5.464,-5.5538,-5.6188,-5.5987,-5.6302,-5.6496,-5.5832,-5.5721,-5.6199,-5.7512,-5.8542,-5.9631,-6.0985,-6.242,-6.3666,-6.4174,-6.5189,-6.6305,-6.7421,-6.759,-6.7861,-6.8605,-6.8707,-6.8707,-6.8707,-6.9248,-6.9823,-7.0398,-7.0466,-7.0703,-7.1278,-7.1312,-7.1312,-7.1312,-7.1312,-7.1244,-7.1075,-7.05,-7.0294,-7.0565,-7.0511,-7.058,-7.0837,-7.1369,-7.1508,-7.1312,-7.1312,-7.1312,-4.5334,-4.5304,-4.4975,-4.3618,-4.3319,0.0,-4.4107,-4.4257,0.0,-4.5035,0.0,0.0,0.0,0.0,0.0,0.0,0.0,0.0,0.0,0.0,0.0,0.0,0.0,0.0,0.0,0.0,0.0,-5.2187,-5.1618,-5.1259,-5.1229,-5.0554,-5.0196,-5.0196,-4.9613,-4.9299,-4.9299,-4.9299,-4.9359,-4.9449,-4.9389,-4.9389,-4.9449,-4.9389,-4.9419,-4.9449,-4.9449,-4.9449,-4.9449,-4.9449,-4.9763,-5.0255,-5.0255,-5.0644,-5.1079,-4.9853,-5.0182,-5.1139,-5.0465,-5.1109,-5.2127,-5.2187,-5.3084,-5.4162,-5.4251,-5.5149,-5.6047,-5.5448,-5.6534,-5.7744,-5.7033,-5.7342,-5.823,-5.9946,-6.0417,-6.0994,-6.2865,-6.3383,-6.414,-6.617,-6.6677,-6.7421,-6.9586,-6.9958,-7.0195,-7.0939,-7.1075,-7.1075,-7.1075,-7.1109,-7.1176,-7.1244,-7.1244,-7.1244,-7.1312,-7.1312,-7.1312,-7.1312,-7.1312,-7.1007,-7.0297,-7.0229,-7.0652,-7.1566,-7.0712,-7.1011,-7.2604,-7.1761,-7.1334,-7.1312,-7.1312,-7.1312,-4.4796,-4.4676,-4.4466,-4.3529,-4.303,0.0,0.0,-4.4317,-4.4377,-4.4646,-4.4616,0.0,0.0,0.0,0.0,0.0,0.0,0.0,0.0,0.0,0.0,0.0,0.0,0.0,0.0,-5.1498,-5.1259,-5.0451,-5.0511,-5.0421,-5.0032,-4.9374,-4.9015,-4.9015,-4.8386,-4.8057,-4.8057,-4.8057,-4.8057,-4.8057,-4.8446,-4.891,-4.9299,-4.888,-4.894,-4.9299,-4.9299,-4.9299,-4.9299,-4.9299,-4.9449,-4.9643,-4.9643,-4.9793,-5.0002,-4.9912,-5.0182,-5.0584,-5.0734,-5.1439,-5.2276,-5.2665,-5.3443,-5.4371,-5.5179,-5.5777,-5.6312,-5.6816,-5.7469,-5.7841,-5.7177,-5.7746,-5.886,-6.0269,-6.0948,-6.1682,-6.3188,-6.458,-6.5797,-6.6643,-6.7963,-6.918,-7.0026,-7.0195,-7.0297,-7.0567,-7.0601,-7.0601,-7.0601,-7.1041,-7.1312,-7.1312,-7.1312,-7.1312,-7.1312,-7.1312,-7.1312,-7.1312,-7.1312,-7.1176,-7.0906,-7.1473,-7.1696,-7.1464,-7.2334,-7.2437,-7.1873,-7.2099,-7.1917,-7.1312,-7.1312,-7.1312,-4.4317,-4.4018,-4.3629,-4.3349,0.0,0.0,-4.4317,-4.4466,-4.4556,-4.5394,-4.5244,-4.4855,-4.4407,0.0,0.0,0.0,0.0,0.0,0.0,0.0,0.0,0.0,0.0,0.0,-4.9972,-5.0331,-5.0242,-4.9389,-4.9673,-4.9733,-4.9329,-4.8626,-4.8297,-4.8297,-4.7638,-4.7309,-4.7309,-4.7309,-4.7309,-4.7309,-4.7758,-4.8207,-4.8626,-4.8177,-4.8207,-4.87,-4.87,-4.87,-4.87,-4.87,-4.882,-4.9,-4.9,-4.912,-4.9329,-4.9523,-4.9837,-5.0255,-5.0704,-5.1618,-5.2576,-5.3025,-5.3803,-5.47,-5.5598,-5.5867,-5.6143,-5.7346,-5.7945,-5.8248,-5.8165,-5.8767,-5.9653,-6.087,-6.1725,-6.2599,-6.391,-6.5595,-6.7015,-6.7726,-6.9113,-7.0263,-7.05,-7.0534,-7.0534,-7.0534,-7.0534,-7.0534,-7.0534,-7.1007,-7.1312,-7.1312,-7.1312,-7.1312,-7.1312,-7.1312,-7.1312,-7.1312,-7.1312,-7.1312,-7.1312,-7.196,-7.2142,-7.1786,-7.2832,-7.2832,-7.1742,-7.2142,-7.1969,-7.1312,-7.1312,-7.1312,-4.3958,-4.3359,-4.256,0.0,0.0,0.0,-4.5005,-4.4796,-4.5065,-4.7728,-4.6172,-4.4317,-4.4347,0.0,0.0,0.0,0.0,0.0,0.0,0.0,0.0,0.0,0.0,-4.9299,-4.9299,-4.9299,-4.9299,-4.9299,-4.9299,-4.9299,-4.9299,-4.8626,-4.8267,-4.8267,-4.7638,-4.7309,-4.7309,-4.7309,-4.7309,-4.7309,-4.7309,-4.7309,-4.7309,-4.7309,-4.7309,-4.7309,-4.7309,-4.7309,-4.7309,-4.7309,-4.7698,-4.8267,-4.8267,-4.8686,-4.9209,-4.8536,-4.9134,-5.0196,-5.0196,-5.1528,-5.3174,-5.3174,-5.4102,-5.5179,-5.5179,-5.5179,-5.5451,-5.6686,-5.79,-5.9081,-6.0289,-6.0619,-6.0945,-6.2144,-6.299,-6.3937,-6.5392,-6.6305,-6.7523,-6.9755,-7.0195,-7.0432,-7.1176,-7.1312,-7.1312,-7.1312,-7.1312,-7.1312,-7.1312,-7.1312,-7.1312,-7.1312,-7.1312,-7.1312,-7.1312,-7.1312,-7.1312,-7.1312,-7.1312,-7.1312,-7.1312,-7.1312,-7.1742,-7.2756,-7.183,-7.1786,-7.2756,-7.1786,-7.1312,-7.1312,-7.1312,-7.1312,-4.3469,-4.3329,0.0,0.0,0.0,0.0,0.0,-4.4796,0.0,0.0,-4.6202,-4.5155,-4.5633,0.0,0.0,-4.5574,-4.7279,-4.8656,0.0,0.0,0.0,0.0,0.0,-4.912,-4.8626,-4.903,-4.894,-4.7967,-4.8327,-4.8386,-4.7908,-4.7698,-4.7608,-4.7608,-4.7399,-4.7309,-4.7309,-4.7309,-4.7309,-4.7309,-4.7309,-4.7309,-4.7309,-4.7309,-4.7309,-4.7309,-4.7309,-4.7309,-4.7309,-4.7309,-4.7429,-4.7608,-4.7608,-4.7997,-4.864,-4.891,-4.9523,-5.0255,-5.0734,-5.1917,-5.3174,-5.3174,-5.4102,-5.5179,-5.5179,-5.5769,-5.6735,-5.7946,-5.9524,-6.0998,-6.1688,-6.2609,-6.3362,-6.3214,-6.414,-6.529,-6.6271,-6.7895,-6.9383,-7.006,-7.0635,-7.1041,-7.1278,-7.1312,-7.1312,-7.1312,-7.1312,-7.1312,-7.1312,-7.1312,-7.1312,-7.1312,-7.1312,-7.1312,-7.1312,-7.1312,-7.1312,-7.1312,-7.1312,-7.1312,-7.1312,-7.2004,-7.215,-7.1742,-7.2142,-7.2185,-7.1742,-7.1457,-7.1312,-7.1312,-7.1312,-7.1688,-4.294,0.0,0.0,0.0,0.0,0.0,0.0,0.0,0.0,0.0,0.0,-4.5903,-4.6591,-4.6262,0.0,-4.6082,-4.7339,-4.8297,0.0,0.0,0.0,0.0,0.0,-4.8327,-4.7938,-4.8267,-4.8147,-4.7369,-4.7668,-4.7728,-4.7339,-4.7309,-4.7309,-4.7309,-4.7309,-4.7189,-4.692,-4.7189,-4.7189,-4.692,-4.7189,-4.7309,-4.7309,-4.7309,-4.7309,-4.7309,-4.7309,-4.7309,-4.7309,-4.7309,-4.7309,-4.7309,-4.7309,-4.7698,-4.8356,-4.906,-4.9673,-5.0407,-5.1834,-5.2674,-5.3301,-5.4074,-5.4696,-5.5179,-5.5179,-5.6035,-5.7307,-5.8815,-6.0411,-6.1938,-6.298,-6.3937,-6.441,-6.37,-6.485,-6.6339,-6.7083,-6.8808,-7.0297,-7.0567,-7.1007,-7.1312,-7.1312,-7.1312,-7.1312,-7.1312,-7.1312,-7.1312,-7.1312,-7.1312,-7.1312,-7.1312,-7.1312,-7.1312,-7.1312,-7.1312,-7.1312,-7.1312,-7.1312,-7.1312,-7.1312,-7.1873,-7.1917,-7.1312,-7.1917,-7.1917,-7.1312,-7.1312,-7.1312,-7.1312,-7.1312,-7.183,0.0,0.0,0.0,0.0,0.0,0.0,0.0,0.0,0.0,0.0,0.0,0.0,0.0,0.0,0.0,0.0,-4.7728,-4.8117,-4.8177,0.0,0.0,0.0,0.0,-4.7309,-4.7309,-4.7309,-4.7309,-4.7309,-4.7309,-4.7309,-4.7309,-4.7309,-4.7309,-4.7309,-4.7249,-4.692,-4.6322,-4.686,-4.683,-4.6232,-4.683,-4.713,-4.713,-4.7249,-4.7309,-4.7309,-4.7309,-4.7309,-4.7309,-4.7309,-4.7309,-4.7309,-4.7309,-4.7758,-4.8446,-4.909,-4.9824,-5.0863,-5.3219,-5.3791,-5.3766,-5.547,-5.5669,-5.529,-5.535,-5.6232,-5.759,-5.9507,-6.0978,-6.2363,-6.4132,-6.4715,-6.4647,-6.3971,-6.5392,-6.7117,-6.7929,-6.9248,-7.05,-7.1176,-7.1312,-7.1312,-7.1312,-7.1312,-7.1312,-7.1312,-7.1312,-7.1312,-7.1312,-7.1312,-7.1312,-7.1312,-7.1312,-7.1312,-7.1312,-7.1312,-7.1312,-7.1312,-7.1312,-7.1312,-7.1312,-7.1312,-7.1312,-7.1312,-7.1312,-7.1312,-7.1312,-7.1312,-7.1312,-7.1312,-7.1312,-7.1873,0.0,0.0,0.0,0.0,0.0,0.0,0.0,0.0,0.0,0.0,0.0,0.0,0.0,0.0,0.0,0.0,0.0,-4.692,-4.7429,-4.7519,-4.7519,-4.7519,-4.7399,-4.7309,-4.7309,-4.7309,-4.7309,-4.7309,-4.7309,-4.7309,-4.7309,-4.7309,-4.7309,-4.7309,-4.68,-4.6429,-4.6279,-4.5933,-4.5663,-4.5514,-4.5663,-4.5723,-4.5753,-4.683,-4.7309,-4.7309,-4.7309,-4.7309,-4.7309,-4.7309,-4.7309,-4.7309,-4.7309,-4.8027,-4.912,-4.9269,-5.0955,-5.325,-5.3799,-5.4867,-5.5947,-5.5999,-5.5904,-5.5865,-5.6436,-5.7434,-5.8805,-6.0761,-6.2614,-6.4057,-6.4505,-6.5459,-6.6305,-6.6136,-6.6914,-6.803,-6.9383,-7.0432,-7.1109,-7.1278,-7.1312,-7.1312,-7.1312,-7.1312,-7.1312,-7.1312,-7.1312,-7.1312,-7.1312,-7.1312,-7.1312,-7.1312,-7.1312,-7.1312,-7.1312,-7.1312,-7.1312,-7.1312,-7.1312,-7.1312,-7.1312,-7.1312,-7.1312,-7.1312,-7.1312,-7.1312,-7.1312,-7.1312,-7.1312,-7.1312,-7.1312,-7.2236,0.0,0.0,0.0,0.0,0.0,0.0,0.0,0.0,0.0,0.0,0.0,0.0,0.0,0.0,0.0,0.0,0.0,0.0,-4.6292,-4.6352,-4.6471,-4.68,-4.683,-4.695,-4.7279,-4.7309,-4.7189,-4.686,-4.713,-4.716,-4.686,-4.683,-4.683,-4.683,-4.6172,-4.5693,-4.5364,-4.5304,-4.5125,-4.4825,-4.5155,-4.5304,-4.5304,-4.6022,-4.6352,-4.6352,-4.6681,-4.683,-4.686,-4.7189,-4.7309,-4.7309,-4.7309,-4.8117,-4.9299,-4.9299,-5.1287,-5.4072,-5.4618,-5.5617,-5.6742,-5.6821,-5.6387,-5.6091,-5.7177,-5.8404,-5.9724,-6.171,-6.3384,-6.4681,-6.5019,-6.5696,-6.6542,-6.7658,-6.8199,-6.8774,-6.9925,-7.077,-7.1312,-7.1312,-7.1312,-7.1312,-7.1312,-7.1312,-7.1312,-7.1312,-7.1312,-7.1312,-7.1312,-7.1312,-7.1312,-7.1312,-7.1616,-7.1684,-7.1345,-7.1616,-7.1684,-7.1345,-7.1312,-7.1312,-7.1312,-7.1312,-7.1312,-7.1312,-7.1312,-7.1312,-7.1312,-7.1312,-7.1312,-7.1312,-7.1312,-7.2364,0.0,0.0,0.0,0.0,0.0,0.0,0.0,0.0,0.0,0.0,0.0,0.0,0.0,0.0,0.0,0.0,0.0,0.0,0.0,-4.5304,-4.5514,-4.6082,-4.6142,-4.6352,-4.689,-4.695,-4.6741,-4.6202,-4.6651,-4.6711,-4.6172,-4.6142,-4.6142,-4.6142,-4.5484,-4.4855,-4.4317,-4.4736,-4.4676,-4.4137,-4.4706,-4.4945,-4.4945,-4.4945,-4.5065,-4.5334,-4.5903,-4.6202,-4.6309,-4.692,-4.7319,-4.7538,-4.7516,-4.8339,-4.9568,-4.9733,-5.1693,-5.4429,-5.5388,-5.6199,-5.6884,-5.7248,-5.6798,-5.6295,-5.7932,-5.9236,-6.0631,-6.2738,-6.4011,-6.4952,-6.5696,-6.5967,-6.6576,-6.8605,-6.9214,-6.9485,-7.0229,-7.0872,-7.1312,-7.1312,-7.1312,-7.1312,-7.1312,-7.1312,-7.1312,-7.1312,-7.1312,-7.1312,-7.1312,-7.1413,-7.1515,-7.1515,-7.2157,-7.2293,-7.1548,-7.2056,-7.209,-7.1379,-7.1312,-7.1312,-7.1312,-7.1312,-7.1312,-7.1312,-7.1312,-7.1312,-7.1312,-7.1457,-7.159,-7.159,-7.159,-7.2624,0.0,0.0,0.0,0.0,0.0,0.0,0.0,0.0,0.0,0.0,0.0,0.0,0.0,0.0,0.0,0.0,0.0,0.0,0.0,-4.5304,-4.5334,-4.5424,-4.5424,-4.5454,-4.5544,-4.5574,-4.5514,-4.5454,-4.5514,-4.5514,-4.5424,-4.5424,-4.5424,-4.5424,-4.4796,-4.4407,-4.4317,-4.3798,-4.3499,-4.3409,-4.3499,-4.3559,-4.3559,-4.3559,-4.4227,-4.5304,-4.5394,-4.5783,-4.6279,-4.6369,-4.7292,-4.8573,-4.827,-4.9152,-5.0691,-5.132,-5.322,-5.5474,-5.5645,-5.6413,-5.716,-5.6496,-5.6406,-5.6993,-5.9047,-6.0514,-6.2022,-6.459,-6.5444,-6.573,-6.6474,-6.7151,-6.7861,-6.8876,-6.9586,-7.0263,-7.1007,-7.1244,-7.1312,-7.1312,-7.1312,-7.1312,-7.1312,-7.1312,-7.1312,-7.1312,-7.1312,-7.1312,-7.1312,-7.1853,-7.2259,-7.2259,-7.2902,-7.3037,-7.2326,-7.2326,-7.209,-7.1379,-7.1312,-7.1312,-7.1312,-7.1312,-7.1312,-7.1312,-7.1312,-7.1312,-7.1312,-7.215,-7.2624,-7.2624,-7.2624,-7.3655,0.0,0.0,0.0,0.0,0.0,0.0,0.0,0.0,0.0,0.0,0.0,0.0,0.0,0.0,0.0,0.0,0.0,0.0,0.0,0.0,-4.4347,-4.4706,-4.4736,-4.4885,-4.5244,-4.5304,-4.5304,-4.5304,-4.5304,-4.5304,-4.5304,-4.4945,-4.4736,-4.4736,-4.4107,-4.3738,-4.3738,-4.3439,-4.329,-4.329,-4.329,-4.329,-4.329,-4.329,-4.3618,-4.4227,-4.4586,-4.5125,-4.5825,-4.675,-4.7804,-4.8821,-4.9028,-5.0224,-5.1716,-5.1138,-5.2965,-5.5538,-5.4514,-5.5834,-5.7846,-5.6738,-5.7512,-5.9209,-6.101,-6.2179,-6.3229,-6.4697,-6.5358,-6.5662,-6.5595,-6.644,-6.759,-6.8808,-6.9654,-7.0398,-7.1142,-7.1312,-7.1312,-7.1312,-7.1312,-7.1312,-7.1312,-7.1312,-7.1447,-7.1853,-7.1921,-7.209,-7.2462,-7.28,-7.3003,-7.3003,-7.368,-7.3646,-7.2496,-7.2766,-7.2529,-7.1379,-7.1312,-7.1312,-7.1312,-7.1312,-7.1312,-7.1312,-7.1873,-7.2142,-7.2142,-7.3166,-7.365,-7.365,-7.305,-7.3889,0.0,0.0,0.0,0.0,0.0,0.0,0.0,0.0,0.0,0.0,0.0,0.0,0.0,0.0,0.0,0.0,0.0,0.0,0.0,0.0,-4.3469,-4.4018,-4.4077,-4.4257,-4.4736,-4.4796,-4.4796,-4.4796,-4.4796,-4.4796,-4.4796,-4.4317,-4.4077,-4.4077,-4.3559,-4.329,-4.329,-4.329,-4.32,-4.309,-4.323,-4.32,-4.309,-4.3476,-4.3654,-4.3684,-4.3918,-4.482,-4.6133,-4.7154,-4.848,-4.993,-5.0297,-5.1602,-5.303,-5.1778,-5.3259,-5.5587,-5.3931,-5.5473,-5.8092,-5.7249,-5.8615,-6.0924,-6.2573,-6.3649,-6.4447,-6.478,-6.5392,-6.5831,-6.529,-6.6271,-6.7726,-6.9045,-6.9925,-7.0635,-7.1176,-7.1312,-7.1312,-7.1312,-7.1312,-7.1312,-7.1312,-7.1312,-7.1548,-7.2293,-7.2394,-7.2665,-7.3409,-7.3646,-7.3781,-7.3781,-7.4424,-7.4356,-7.3071,-7.3274,-7.2935,-7.1684,-7.1413,-7.1312,-7.1312,-7.1312,-7.1312,-7.1312,-7.254,-7.3084,-7.2797,-7.4082,-7.4535,-7.4272,-7.3772,-7.4385,0.0,0.0,0.0,0.0,0.0,0.0,0.0,0.0,0.0,0.0,0.0,0.0,0.0,0.0,0.0,0.0,0.0,0.0,0.0,0.0,-4.329,-4.3349,-4.3349,-4.3349,-4.3379,-4.3379,-4.3379,-4.3379,-4.3379,-4.3379,-4.3379,-4.3349,-4.3349,-4.3349,-4.3319,-4.329,-4.329,-4.329,-4.303,-4.244,-4.303,-4.3,-4.2509,-4.4044,-4.4737,-4.4662,-4.3723,-4.5164,-4.8063,-4.7293,-4.9267,-5.2753,-5.2441,-5.342,-5.4951,-5.4516,-5.5134,-5.6001,-5.4879,-5.5807,-5.746,-5.7678,-5.9047,-6.1108,-6.3177,-6.4676,-6.5621,-6.5628,-6.617,-6.6745,-6.6711,-6.7827,-6.918,-6.9958,-7.0703,-7.1278,-7.1312,-7.1312,-7.1312,-7.1312,-7.1312,-7.1312,-7.1312,-7.1312,-7.1548,-7.2293,-7.2394,-7.2665,-7.3409,-7.4119,-7.4559,-7.4559,-7.5202,-7.5337,-7.4559,-7.3883,-7.3172,-7.2394,-7.1684,-7.1312,-7.1312,-7.1312,-7.1312,-7.1312,-7.3247,-7.3733,-7.2797,-7.4757,-7.5227,-7.431,-7.5192,-7.5684,0.0,0.0,0.0,0.0,0.0,0.0,0.0,0.0,0.0,0.0,0.0,0.0,0.0,0.0,0.0,0.0,0.0,0.0,0.0,0.0,0.0,-4.329,-4.329,-4.329,-4.329,-4.329,-4.3469,-4.3888,-4.3529,-4.3469,-4.3917,-4.3529,-4.329,-4.329,-4.329,-4.312,-4.2731,-4.312,-4.2791,-4.1782,-4.3487,-4.3945,-4.3346,-4.4956,-4.6028,-4.6555,-4.6076,-4.6797,-4.8322,-4.8651,-5.046,-5.3041,-5.3319,-5.4599,-5.607,-5.4988,-5.5256,-5.6113,-5.5518,-5.6538,-5.828,-5.932,-6.1267,-6.3441,-6.4682,-6.5708,-6.6305,-6.5831,-6.6576,-6.7421,-6.6948,-6.8301,-6.9992,-7.0737,-7.1109,-7.1312,-7.1312,-7.1312,-7.1312,-7.1312,-7.1312,-7.1312,-7.1312,-7.1684,-7.2259,-7.3003,-7.351,-7.4086,-7.4796,-7.5134,-7.5303,-7.5303,-7.554,-7.5405,-7.4661,-7.3916,-7.3172,-7.2462,-7.1718,-7.1312,-7.1312,-7.1312,-7.1312,-7.1312,-7.3287,-7.412,-7.3768,-7.512,-7.5614,-7.5263,-7.4976,-7.5156,0.0,0.0,0.0,0.0,0.0,0.0,0.0,0.0,0.0,0.0,0.0,0.0,0.0,0.0,0.0,0.0,0.0,0.0,0.0,0.0,0.0,-4.3,-4.3,-4.309,-4.326,-4.329,-4.3469,-4.3958,-4.3529,0.0,-4.3958,-4.3529,-4.329,-4.329,-4.329,-4.303,-4.241,-4.3,-4.2827,-4.1917,-4.3864,-4.4625,-4.4338,-4.5923,-4.7167,-4.8001,-4.8191,-4.8642,-4.9328,-4.9908,-5.1643,-5.395,-5.4413,-5.5649,-5.7024,-5.5647,-5.6013,-5.7056,-5.6442,-5.783,-5.9978,-6.0943,-6.2803,-6.4681,-6.5189,-6.5662,-6.5967,-6.5459,-6.6406,-6.7489,-6.7252,-6.8876,-7.0703,-7.121,-7.1312,-7.1312,-7.1312,-7.1312,-7.1312,-7.1312,-7.1312,-7.1379,-7.165,-7.209,-7.2732,-7.3713,-7.4289,-7.4864,-7.5608,-7.5709,-7.5709,-7.5709,-7.5709,-7.5506,-7.4999,-7.4052,-7.3274,-7.28,-7.1853,-7.1312,-7.1312,-7.1312,-7.1457,-7.1786,-7.3452,-7.4272,-7.431,-7.5334,-7.5475,-7.4794,-7.4794,-7.5513,0.0,0.0,0.0,0.0,0.0,0.0,0.0,0.0,0.0,0.0,0.0,0.0,0.0,0.0,0.0,0.0,0.0,0.0,0.0,0.0,0.0,-4.244,-4.244,-4.2641,-4.323,-4.329,-4.329,-4.326,-4.329,-4.329,-4.326,-4.329,-4.329,-4.329,-4.329,-4.303,-4.241,-4.3,-4.3114,-4.2807,-4.4167,-4.4997,-4.5287,-4.6945,-4.8034,-4.8794,-4.975,-5.0574,-5.122,-5.1023,-5.2829,-5.5683,-5.5716,-5.6596,-5.7738,-5.6663,-5.7463,-5.8849,-5.7858,-5.9637,-6.2347,-6.2415,-6.3396,-6.458,-6.458,-6.4613,-6.4647,-6.4647,-6.573,-6.7049,-6.7793,-6.9654,-7.1312,-7.1312,-7.1312,-7.1312,-7.1312,-7.1312,-7.1312,-7.1312,-7.1312,-7.1548,-7.2259,-7.2428,-7.2935,-7.439,-7.4627,-7.4897,-7.5608,-7.5709,-7.5709,-7.5709,-7.5709,-7.5676,-7.5676,-7.4322,-7.3477,-7.3443,-7.209,-7.1312,-7.1312,-7.1312,-7.1786,-7.2756,-7.3846,-7.431,-7.4234,-7.5299,-7.4757,-7.2838,-7.4866,-7.6802,-4.0068,0.0,0.0,0.0,0.0,0.0,0.0,0.0,0.0,0.0,0.0,0.0,0.0,0.0,0.0,0.0,0.0,0.0,0.0,0.0,0.0,0.0,-4.306,-4.315,-4.326,-4.329,-4.315,0.0,-4.306,-4.312,-4.2641,-4.306,-4.329,-4.329,-4.329,-4.303,-4.241,-4.3,-4.3114,-4.2807,-4.4863,-4.5961,-4.6291,-4.8425,-4.9515,-4.9782,-5.112,-5.1792,-5.1996,-5.1967,-5.3078,-5.4972,-5.5513,-5.6292,-5.7203,-5.7958,-5.8534,-5.913,-5.9944,-6.0829,-6.1772,-6.2854,-6.3497,-6.3903,-6.4444,-6.4952,-6.5493,-6.6034,-6.7286,-6.8774,-7.0026,-7.0838,-7.1312,-7.1312,-7.1312,-7.1312,-7.1312,-7.1312,-7.1312,-7.1312,-7.1312,-7.1548,-7.2259,-7.2834,-7.351,-7.4458,-7.5067,-7.5473,-7.5676,-7.5709,-7.5709,-7.5709,-7.5709,-7.5473,-7.4965,-7.4018,-7.3274,-7.2732,-7.1819,-7.1312,-7.1312,-7.1969,-7.2498,-7.2797,-7.4498,-7.4684,-7.3212,-7.4234,-7.4043,-7.2838,-7.4723,-7.6658,-4.0397,-4.0876,0.0,0.0,0.0,0.0,-4.2611,-4.2761,-4.288,0.0,0.0,0.0,0.0,0.0,0.0,0.0,0.0,0.0,0.0,0.0,0.0,0.0,-4.291,-4.303,-4.326,-4.309,-4.288,-4.2761,-4.288,-4.288,-4.2761,-4.312,-4.329,-4.329,-4.329,-4.303,-4.241,-4.34,-4.3881,-4.3815,-4.5835,-4.7241,-4.809,-4.9472,-5.0439,-5.1048,-5.1928,-5.2503,-5.2807,-5.2807,-5.3687,-5.5108,-5.5547,-5.6528,-5.7814,-5.8693,-5.9438,-6.008,-6.0994,-6.1704,-6.2313,-6.2854,-6.3463,-6.4005,-6.4106,-6.4884,-6.5831,-6.6609,-6.8132,-6.9823,-7.1007,-7.1312,-7.1312,-7.1312,-7.1312,-7.1312,-7.1312,-7.1312,-7.1312,-7.1312,-7.1312,-7.165,-7.2665,-7.3206,-7.3849,-7.4897,-7.5709,-7.6183,-7.6183,-7.6183,-7.6183,-7.6183,-7.5608,-7.5067,-7.4661,-7.3646,-7.2868,-7.2428,-7.1718,-7.1501,-7.1917,-7.2498,-7.3212,-7.4043,-7.4794,-7.4752,-7.3907,-7.4181,-7.4181,-7.3982,-7.5776,-7.77,-4.0606,-4.1085,-4.1743,-4.2351,-4.25,0.0,-4.317,-4.329,-4.329,-4.329,0.0,0.0,0.0,0.0,0.0,0.0,0.0,0.0,0.0,0.0,0.0,0.0,-4.25,-4.2701,-4.323,-4.2791,-4.2671,-4.314,-4.2671,-4.2641,-4.326,-4.329,-4.329,-4.329,-4.329,-4.3099,-4.2655,-4.4082,-4.5023,-4.5486,-4.6945,-4.8495,-5.0101,-5.0168,-5.098,-5.23,-5.2401,-5.2841,-5.3518,-5.3585,-5.4397,-5.5615,-5.5683,-5.6968,-5.8795,-5.9032,-6.0013,-6.1197,-6.1366,-6.2279,-6.3294,-6.2719,-6.3396,-6.4377,-6.3903,-6.4715,-6.6,-6.6914,-6.8707,-7.0466,-7.1142,-7.1312,-7.1312,-7.1312,-7.1312,-7.1312,-7.1312,-7.1312,-7.1312,-7.1312,-7.1312,-7.1785,-7.324,-7.3477,-7.4018,-7.5608,-7.6352,-7.6792,-7.6893,-7.6826,-7.6758,-7.6758,-7.5473,-7.4593,-7.4492,-7.3206,-7.2406,-7.244,-7.183,-7.1917,-7.2921,-7.305,-7.3928,-7.5614,-7.4828,-7.477,-7.5481,-7.4656,-7.4803,-7.5849,-7.7559,-7.9306,-4.1871,-4.2462,-4.2931,-4.308,-4.315,0.0,-4.326,-4.329,-4.329,0.0,0.0,0.0,0.0,0.0,0.0,0.0,0.0,0.0,0.0,0.0,0.0,0.0,0.0,-4.314,-4.329,-4.317,-4.297,-4.262,-4.247,-4.2641,-4.326,-4.329,-4.329,-4.329,-4.329,-4.3633,-4.4326,-4.4637,-4.557,-4.7143,-4.744,-4.8495,-5.0101,-5.071,-5.1488,-5.2334,-5.2976,-5.3348,-5.3551,-5.4126,-5.4532,-5.4871,-5.548,-5.6325,-5.7442,-5.9235,-6.008,-6.052,-6.1738,-6.2347,-6.2685,-6.3159,-6.3497,-6.3903,-6.4952,-6.5899,-6.7015,-6.8977,-7.0297,-7.1142,-7.1278,-7.1312,-7.1312,-7.1312,-7.1312,-7.1312,-7.1312,-7.1312,-7.1312,-7.1312,-7.1312,-7.1785,-7.324,-7.3477,-7.4221,-7.6352,-7.6251,-7.6183,-7.6826,-7.6318,-7.5946,-7.5946,-7.5134,-7.4356,-7.3747,-7.2902,-7.2495,-7.2732,-7.2602,-7.2962,-7.3966,-7.4794,-7.5012,-7.461,-7.5026,-7.534,-7.5481,-7.4552,-7.5309,-7.7667,-7.8747,-7.9885,-4.2321,-4.2851,-4.329,-4.329,-4.329,0.0,0.0,-4.329,-4.329,-4.329,0.0,0.0,0.0,0.0,0.0,0.0,0.0,0.0,0.0,0.0,0.0,0.0,0.0,-4.329,-4.329,-4.303,-4.2731,-4.241,-4.2671,-4.3,-4.326,-4.329,-4.329,-4.329,-4.303,-4.3477,-4.4774,-4.4919,-4.5888,-4.7638,-4.8462,-4.9451,-5.0676,-5.142,-5.2164,-5.2909,-5.3315,-5.3518,-5.3551,-5.4296,-5.4803,-5.5209,-5.5953,-5.6934,-5.8084,-5.9573,-6.0351,-6.0858,-6.2009,-6.2618,-6.3024,-6.3396,-6.4005,-6.4816,-6.5899,-6.7049,-6.8199,-6.9316,-7.0161,-7.0737,-7.0737,-7.1041,-7.1312,-7.1312,-7.1312,-7.1312,-7.1312,-7.1312,-7.1312,-7.1312,-7.1616,-7.2191,-7.3308,-7.3815,-7.4559,-7.6082,-7.6284,-7.6454,-7.686,-7.6555,-7.6149,-7.5743,-7.4695,-7.3747,-7.3003,-7.2731,-7.2648,-7.279,-7.3252,-7.4005,-7.5012,-7.5048,-7.5009,-7.4876,-7.5304,-7.6174,-7.7482,-7.7385,-7.783,-7.8889,-8.0214,-8.113,-4.2839,-4.3378,-4.3858,-4.3858,-4.3732,-4.3636,0.0,0.0,0.0,0.0,0.0,0.0,0.0,0.0,0.0,0.0,0.0,0.0,0.0,0.0,0.0,0.0,-4.323,-4.3309,-4.3395,-4.3072,-4.2784,-4.259,-4.303,-4.329,-4.329,-4.329,-4.329,-4.329,-4.3016,-4.3571,-4.5042,-4.5454,-4.6481,-4.81,-4.9446,-5.0574,-5.1454,-5.2029,-5.2739,-5.3518,-5.3518,-5.3585,-5.3788,-5.4499,-5.5243,-5.5987,-5.6562,-5.7611,-5.8896,-5.9776,-6.052,-6.1231,-6.2245,-6.299,-6.3565,-6.3835,-6.4918,-6.6237,-6.6846,-6.7996,-6.9113,-6.9113,-6.9519,-6.9992,-7.0161,-7.0635,-7.1142,-7.1278,-7.1312,-7.1312,-7.1312,-7.1312,-7.1345,-7.1481,-7.2124,-7.28,-7.3375,-7.4119,-7.4897,-7.5811,-7.6352,-7.6724,-7.6893,-7.6657,-7.6217,-7.5574,-7.4153,-7.3129,-7.2711,-7.2734,-7.2962,-7.3372,-7.412,-7.494,-7.5753,-7.4973,-7.4841,-7.5481,-7.6133,-7.7551,-7.972,-8.0875,-8.0982,-8.004,-8.1706,-8.2333,-4.4384,-4.517,-4.5854,-4.5854,-4.5232,-4.4778,-4.5295,0.0,-4.4197,-4.4197,0.0,0.0,0.0,0.0,0.0,0.0,0.0,0.0,0.0,0.0,0.0,0.0,-4.297,-4.3413,-4.3723,-4.4229,-4.4152,-4.3249,-4.326,-4.329,-4.329,-4.329,-4.329,-4.329,-4.4106,-4.4986,-4.6032,-4.6905,-4.8166,-4.9839,-5.0002,-5.0811,-5.2198,-5.2266,-5.2739,-5.3518,-5.3518,-5.3856,-5.4532,-5.5277,-5.6021,-5.6697,-5.6765,-5.7306,-5.8186,-5.9573,-6.0148,-6.0554,-6.2651,-6.3463,-6.3734,-6.5019,-6.644,-6.7658,-6.776,-6.8402,-6.9113,-6.9113,-6.9147,-6.9383,-7.0026,-7.0263,-7.0466,-7.1142,-7.1312,-7.1312,-7.1312,-7.1312,-7.1515,-7.2157,-7.2868,-7.3375,-7.3477,-7.4119,-7.51,-7.6555,-7.6217,-7.6082,-7.6826,-7.5709,-7.483,-7.4728,-7.3409,-7.2835,-7.3644,-7.3164,-7.3536,-7.5369,-7.558,-7.5684,-7.5787,-7.5545,-7.541,-7.5481,-7.8562,-8.0262,-8.0551,-8.2963,-8.3374,-8.1908,-8.2851,-8.2884,-4.5539,-4.5889,-4.6067,-4.5525,-4.536,-4.5272,-4.4926,-4.5401,-4.5834,-4.5834,0.0,0.0,0.0,0.0,0.0,0.0,-4.4145,0.0,0.0,0.0,0.0,0.0,0.0,0.0,-4.5724,-4.5697,-4.542,-4.4872,-4.4342,-4.3819,-4.3329,-4.3648,-4.3997,-4.4159,-4.4185,-4.5115,-4.697,-4.744,-4.8461,-5.0101,-5.0947,-5.1691,-5.2334,-5.2773,-5.3179,-5.3518,-5.3957,-5.4296,-5.4668,-5.5852,-5.6292,-5.6258,-5.7103,-5.7611,-5.8084,-5.9573,-6.0114,-6.0419,-6.2719,-6.3802,-6.4377,-6.5865,-6.6779,-6.7252,-6.7252,-6.7523,-6.7793,-6.7793,-6.8402,-6.918,-6.9485,-7.0195,-7.0939,-7.1244,-7.1312,-7.1312,-7.1312,-7.165,-7.2022,-7.2326,-7.3341,-7.4153,-7.4153,-7.4762,-7.5473,-7.6115,-7.5912,-7.5811,-7.6149,-7.527,-7.4458,-7.4018,-7.3037,-7.2652,-7.3233,-7.3507,-7.4272,-7.5718,-7.6185,-7.5908,-7.4752,-7.5613,-7.6615,-7.7575,-7.9642,-8.1453,-8.2964,-8.4513,-8.4719,-8.3581,-8.3471,-8.2994,-4.6592,-4.6765,-4.6799,-4.6134,-4.6249,-4.641,-4.5905,-4.6734,-4.7582,-4.7582,-4.7712,0.0,0.0,0.0,0.0,0.0,0.0,-4.5582,0.0,0.0,0.0,0.0,0.0,0.0,0.0,-4.6547,-4.6205,-4.5996,-4.5372,-4.4699,-4.3974,-4.4704,-4.5086,-4.5053,-4.4929,-4.5827,-4.7869,-4.8199,-4.9154,-5.071,-5.1792,-5.2435,-5.2638,-5.3247,-5.3518,-5.3551,-5.4262,-5.4702,-5.5006,-5.6292,-5.6596,-5.6427,-5.7476,-5.8017,-5.8355,-5.9641,-6.025,-6.0757,-6.3024,-6.4275,-6.5087,-6.617,-6.6508,-6.6508,-6.6508,-6.6643,-6.6846,-6.7049,-6.7929,-6.8876,-6.9282,-7.0195,-7.1075,-7.1278,-7.1312,-7.1312,-7.1312,-7.1887,-7.2462,-7.2665,-7.3747,-7.4661,-7.4864,-7.5337,-7.5709,-7.5709,-7.5709,-7.5709,-7.5709,-7.4897,-7.4086,-7.3544,-7.2915,-7.2725,-7.32,-7.412,-7.5119,-7.6043,-7.6337,-7.5929,-7.4682,-7.6323,-7.8012,-7.9497,-8.1236,-8.3041,-8.4939,-8.5747,-8.571,-8.4903,-8.4095,-8.3324,-4.7539,-4.8225,-4.8892,-4.8861,-4.8727,-4.8755,-4.9376,-4.9422,-4.9315,-4.9315,-4.9352,-4.9199,-4.8718,0.0,0.0,0.0,0.0,0.0,0.0,0.0,0.0,0.0,0.0,0.0,0.0,-4.6384,-4.642,-4.6208,-4.6138,-4.5995,-4.5634,-4.6645,-4.6719,-4.5703,-4.6846,-4.7869,-4.866,-4.9553,-5.0745,-5.2232,-5.2266,-5.2706,-5.345,-5.3484,-5.3518,-5.3551,-5.4262,-5.5006,-5.575,-5.6494,-5.7205,-5.7814,-5.7881,-5.8355,-5.9066,-5.981,-6.0588,-6.1569,-6.3802,-6.5053,-6.5662,-6.5696,-6.573,-6.573,-6.573,-6.6237,-6.6948,-6.7658,-6.7895,-6.8267,-6.9755,-7.0195,-7.0398,-7.1142,-7.1312,-7.1312,-7.1312,-7.1887,-7.2597,-7.3308,-7.4086,-7.483,-7.554,-7.5676,-7.5709,-7.5709,-7.5709,-7.5709,-7.5709,-7.4424,-7.351,-7.3477,-7.3077,-7.3166,-7.4158,-7.5156,-7.6077,-7.6835,-7.5971,-7.5797,-7.6466,-7.8102,-7.9539,-8.0623,-8.391,-8.5676,-8.5747,-8.6591,-8.6554,-8.5747,-8.4939,-8.4132,-4.8513,-4.8767,-4.8861,-4.8225,-4.8729,-4.9243,-4.8871,-4.9989,-5.1055,-5.1055,-5.1199,-5.1092,-5.0458,0.0,0.0,0.0,0.0,0.0,0.0,0.0,0.0,0.0,0.0,0.0,0.0,0.0,0.0,-4.7173,-4.707,-4.6756,-4.6095,-4.7239,-4.7662,-4.698,-4.832,-4.9227,-4.9618,-5.0919,-5.1792,-5.23,-5.2841,-5.3247,-5.3518,-5.3518,-5.3518,-5.3585,-5.4803,-5.5209,-5.5074,-5.6292,-5.6664,-5.6562,-5.7509,-5.8051,-5.8423,-5.9641,-6.0622,-6.1637,-6.3835,-6.4749,-6.5121,-6.6102,-6.5764,-6.5155,-6.6136,-6.6609,-6.6948,-6.7692,-6.8639,-6.9519,-7.006,-7.0567,-7.1007,-7.1244,-7.1312,-7.1447,-7.1921,-7.2597,-7.3206,-7.3443,-7.4492,-7.527,-7.5033,-7.5371,-7.5709,-7.5709,-7.5709,-7.5506,-7.5033,-7.4086,-7.3561,-7.3738,-7.3169,-7.3492,-7.5156,-7.6048,-7.6338,-7.5934,-7.7086,-7.7566,-7.7146,-8.0056,-8.2092,-8.3007,-8.4821,-8.604,-8.6591,-8.6885,-8.6885,-8.6591,-8.5783,-8.4976,-4.9018,-4.9018,-4.8928,-4.8557,-4.936,-5.0155,-4.9798,-5.1135,-5.2487,-5.2487,-5.2404,-5.2063,-5.1352,0.0,0.0,0.0,0.0,0.0,0.0,-4.9221,0.0,0.0,0.0,0.0,0.0,0.0,-4.8195,-4.8094,-4.7831,-4.7474,-4.7052,-4.8239,-4.878,-4.8362,-4.936,-5.0225,-5.0879,-5.1826,-5.2435,-5.2739,-5.3247,-5.3518,-5.3518,-5.3518,-5.3518,-5.3585,-5.4803,-5.504,-5.4668,-5.5919,-5.6292,-5.6224,-5.7408,-5.822,-5.8829,-6.008,-6.1197,-6.2381,-6.4309,-6.4816,-6.4816,-6.6,-6.5764,-6.5222,-6.644,-6.6981,-6.7354,-6.8098,-6.9214,-7.0195,-7.0195,-7.0737,-7.1312,-7.1312,-7.1312,-7.1447,-7.1921,-7.2597,-7.3105,-7.3105,-7.4289,-7.5168,-7.4695,-7.5202,-7.5608,-7.5337,-7.5303,-7.5033,-7.4289,-7.3878,-7.3709,-7.3891,-7.3872,-7.4642,-7.6629,-7.7238,-7.73,-7.6829,-7.8538,-7.9369,-7.9005,-8.1855,-8.3988,-8.5155,-8.5874,-8.6628,-8.7435,-8.7142,-8.6995,-8.6995,-8.6481,-8.5967]},{"header":{"parameterUnit":"m.s-1","parameterCategory":1,"la1":30.6,"la2":29.2853,"lo1":-89.7004,"lo2":-87.6739,"dy":0.0162,"dx":0.0183,"nx":112,"ny":82,"refTime":"2023-03-25T00:00:00:Z","depth":0,"parameterNumber":3,"parameterNumberName":"V-component_of_WINDS"},"data":[0.0,0.0,0.0,0.0,0.0,0.0,0.0,0.0,0.0,0.0,0.0,0.0,0.0,0.0,0.0,0.0,0.0,0.0,0.0,0.0,0.0,0.0,0.0,0.0,0.0,0.0,0.0,0.0,0.0,0.0,0.0,0.0,0.0,0.0,0.0,0.0,0.0,0.0,0.0,0.0,0.0,0.0,0.0,0.0,0.0,0.0,0.0,0.0,0.0,0.0,0.0,0.0,0.0,0.0,0.0,0.0,0.0,0.0,0.0,0.0,0.0,0.0,0.0,0.0,0.0,0.0,0.0,0.0,0.0,0.0,0.0,0.0,0.0,0.0,0.0,0.0,0.0,0.0,0.0,0.0,0.0,0.0,0.0,0.0,0.0,0.0,0.0,0.0,0.0,0.0,-3.9396,-3.7932,-3.6498,-3.5167,-3.4,-3.5618,-3.7138,-3.8037,0.0,0.0,0.0,0.0,0.0,0.0,0.0,0.0,0.0,0.0,0.0,0.0,0.0,0.0,0.0,0.0,0.0,0.0,0.0,0.0,0.0,0.0,0.0,0.0,0.0,0.0,0.0,0.0,0.0,0.0,0.0,0.0,0.0,0.0,0.0,0.0,0.0,0.0,0.0,0.0,0.0,0.0,0.0,0.0,0.0,0.0,0.0,0.0,0.0,0.0,0.0,0.0,0.0,0.0,0.0,0.0,0.0,0.0,0.0,0.0,0.0,0.0,0.0,0.0,0.0,0.0,0.0,0.0,0.0,0.0,0.0,0.0,0.0,0.0,0.0,0.0,0.0,0.0,0.0,0.0,0.0,0.0,0.0,0.0,0.0,0.0,0.0,0.0,0.0,0.0,0.0,0.0,0.0,0.0,0.0,0.0,0.0,0.0,0.0,0.0,0.0,0.0,0.0,0.0,-3.9634,-3.5831,-3.6783,-3.6467,-3.3237,-3.2668,-3.3935,-3.7456,0.0,0.0,0.0,0.0,0.0,0.0,0.0,0.0,0.0,0.0,0.0,0.0,0.0,0.0,0.0,0.0,0.0,0.0,0.0,0.0,0.0,0.0,0.0,0.0,0.0,0.0,0.0,0.0,0.0,0.0,0.0,0.0,0.0,0.0,0.0,0.0,0.0,0.0,0.0,0.0,0.0,0.0,0.0,0.0,0.0,0.0,0.0,0.0,0.0,0.0,0.0,0.0,0.0,0.0,0.0,0.0,0.0,0.0,0.0,0.0,0.0,0.0,0.0,0.0,0.0,0.0,0.0,0.0,0.0,0.0,0.0,0.0,0.0,0.0,0.0,0.0,0.0,0.0,0.0,0.0,0.0,0.0,0.0,0.0,0.0,0.0,0.0,0.0,0.0,0.0,0.0,0.0,0.0,0.0,0.0,0.0,0.0,0.0,0.0,0.0,0.0,0.0,0.0,-4.1756,-3.9775,-3.6928,-3.7778,-3.7559,-3.5075,-3.4265,-3.5309,-3.8597,-4.0219,0.0,0.0,0.0,0.0,0.0,0.0,0.0,0.0,0.0,0.0,0.0,0.0,0.0,0.0,0.0,0.0,0.0,0.0,0.0,0.0,0.0,0.0,0.0,0.0,0.0,0.0,0.0,0.0,0.0,0.0,0.0,0.0,0.0,0.0,0.0,0.0,0.0,0.0,0.0,0.0,0.0,0.0,0.0,0.0,0.0,0.0,0.0,0.0,0.0,0.0,0.0,0.0,0.0,0.0,0.0,0.0,0.0,0.0,0.0,0.0,0.0,0.0,0.0,0.0,0.0,0.0,0.0,0.0,0.0,0.0,0.0,0.0,0.0,0.0,0.0,0.0,0.0,0.0,0.0,0.0,0.0,0.0,0.0,0.0,0.0,0.0,0.0,0.0,0.0,0.0,0.0,0.0,0.0,0.0,0.0,0.0,0.0,0.0,0.0,0.0,0.0,0.0,-4.1304,-3.9597,-3.8244,-3.8579,-3.8227,-3.6588,-3.6005,-3.6814,-3.9457,-3.9197,0.0,0.0,0.0,0.0,0.0,0.0,0.0,0.0,0.0,0.0,0.0,0.0,0.0,0.0,0.0,0.0,0.0,0.0,0.0,0.0,0.0,0.0,0.0,0.0,0.0,0.0,0.0,0.0,0.0,0.0,0.0,0.0,0.0,0.0,0.0,0.0,0.0,0.0,0.0,0.0,0.0,0.0,0.0,0.0,0.0,0.0,0.0,0.0,0.0,0.0,0.0,0.0,0.0,0.0,0.0,0.0,0.0,0.0,0.0,0.0,0.0,0.0,0.0,0.0,0.0,0.0,0.0,0.0,0.0,0.0,0.0,0.0,0.0,0.0,0.0,0.0,0.0,0.0,0.0,0.0,0.0,0.0,0.0,0.0,0.0,0.0,0.0,0.0,0.0,0.0,0.0,0.0,0.0,0.0,0.0,0.0,0.0,0.0,0.0,0.0,0.0,0.0,-4.0704,-3.8755,-3.8173,-3.8579,-3.812,-3.6095,-3.5435,-3.6291,-3.8943,-3.8649,0.0,0.0,0.0,0.0,0.0,0.0,0.0,0.0,0.0,0.0,0.0,0.0,0.0,0.0,0.0,0.0,0.0,0.0,0.0,0.0,0.0,0.0,0.0,0.0,0.0,0.0,0.0,0.0,0.0,0.0,0.0,0.0,0.0,0.0,0.0,0.0,0.0,0.0,0.0,0.0,0.0,0.0,0.0,0.0,0.0,0.0,0.0,0.0,0.0,0.0,0.0,0.0,0.0,0.0,0.0,0.0,0.0,0.0,0.0,0.0,0.0,0.0,0.0,0.0,0.0,0.0,0.0,0.0,0.0,0.0,0.0,0.0,0.0,0.0,0.0,0.0,0.0,0.0,0.0,0.0,0.0,0.0,0.0,0.0,0.0,0.0,0.0,0.0,0.0,0.0,0.0,0.0,0.0,0.0,0.0,0.0,0.0,0.0,0.0,0.0,0.0,0.0,-4.1178,-3.969,-3.9139,-3.9283,-3.9096,-3.8345,-3.7786,-3.8364,-4.0316,0.0,0.0,0.0,0.0,0.0,0.0,0.0,0.0,0.0,0.0,0.0,0.0,0.0,0.0,0.0,0.0,0.0,0.0,0.0,0.0,0.0,0.0,0.0,0.0,0.0,0.0,0.0,0.0,0.0,0.0,0.0,0.0,0.0,0.0,0.0,0.0,0.0,0.0,0.0,0.0,0.0,0.0,0.0,0.0,0.0,0.0,0.0,0.0,0.0,0.0,0.0,0.0,0.0,0.0,0.0,0.0,0.0,0.0,0.0,0.0,0.0,0.0,0.0,0.0,0.0,0.0,0.0,0.0,0.0,0.0,0.0,0.0,0.0,0.0,0.0,0.0,0.0,0.0,0.0,0.0,0.0,0.0,0.0,0.0,0.0,0.0,0.0,0.0,0.0,0.0,0.0,0.0,0.0,0.0,0.0,0.0,0.0,0.0,0.0,0.0,0.0,0.0,-4.2766,-4.0953,-3.9722,-3.9697,-3.9697,-3.9697,-3.9697,-3.9019,-3.9371,-4.1175,0.0,0.0,0.0,0.0,0.0,0.0,0.0,0.0,0.0,0.0,0.0,0.0,0.0,0.0,0.0,0.0,0.0,0.0,0.0,0.0,0.0,0.0,0.0,0.0,0.0,0.0,0.0,0.0,0.0,0.0,0.0,0.0,0.0,0.0,0.0,0.0,0.0,0.0,0.0,0.0,0.0,0.0,0.0,0.0,0.0,0.0,0.0,0.0,0.0,0.0,0.0,0.0,0.0,0.0,0.0,0.0,0.0,0.0,0.0,0.0,0.0,0.0,0.0,0.0,0.0,0.0,0.0,0.0,0.0,0.0,0.0,0.0,0.0,0.0,0.0,0.0,0.0,0.0,0.0,0.0,0.0,0.0,0.0,0.0,0.0,0.0,0.0,0.0,0.0,0.0,0.0,0.0,0.0,0.0,0.0,0.0,0.0,0.0,0.0,0.0,0.0,0.0,-4.2062,-3.9722,-3.8442,-3.9572,-3.9697,-3.9697,-3.9697,-3.8668,-3.8944,0.0,0.0,0.0,0.0,0.0,0.0,0.0,0.0,0.0,0.0,0.0,0.0,0.0,0.0,0.0,0.0,0.0,0.0,0.0,0.0,0.0,0.0,0.0,0.0,0.0,0.0,0.0,0.0,0.0,0.0,0.0,0.0,0.0,0.0,0.0,0.0,0.0,0.0,0.0,0.0,0.0,0.0,0.0,0.0,0.0,0.0,0.0,0.0,0.0,0.0,0.0,0.0,0.0,0.0,0.0,0.0,0.0,0.0,0.0,0.0,0.0,0.0,0.0,0.0,0.0,0.0,0.0,0.0,0.0,0.0,0.0,0.0,0.0,0.0,0.0,0.0,0.0,0.0,0.0,0.0,0.0,0.0,0.0,0.0,0.0,0.0,0.0,0.0,0.0,0.0,0.0,0.0,0.0,0.0,0.0,0.0,0.0,0.0,0.0,0.0,0.0,0.0,0.0,-4.2171,-3.9722,-3.8442,-3.9572,-3.9697,-3.9697,-3.9697,-3.8668,-3.8944,-4.115,0.0,0.0,0.0,0.0,0.0,0.0,0.0,0.0,0.0,0.0,0.0,0.0,0.0,0.0,0.0,0.0,0.0,0.0,0.0,0.0,0.0,0.0,0.0,0.0,0.0,0.0,0.0,0.0,0.0,0.0,0.0,0.0,0.0,0.0,0.0,0.0,0.0,0.0,0.0,0.0,0.0,0.0,0.0,0.0,0.0,0.0,0.0,0.0,0.0,0.0,0.0,0.0,0.0,0.0,0.0,0.0,0.0,0.0,0.0,0.0,0.0,0.0,0.0,0.0,0.0,0.0,0.0,0.0,0.0,0.0,0.0,0.0,0.0,0.0,0.0,0.0,0.0,0.0,0.0,0.0,0.0,0.0,0.0,0.0,0.0,0.0,0.0,0.0,0.0,0.0,0.0,0.0,0.0,0.0,0.0,0.0,0.0,0.0,0.0,0.0,0.0,0.0,-4.1789,-3.9597,-3.8442,-3.9572,-3.9697,-3.9697,-3.9697,-3.8668,-3.8768,-4.0576,0.0,0.0,0.0,0.0,0.0,0.0,0.0,0.0,0.0,0.0,0.0,0.0,0.0,0.0,0.0,0.0,0.0,0.0,0.0,0.0,0.0,0.0,0.0,0.0,0.0,0.0,0.0,0.0,0.0,0.0,0.0,0.0,0.0,0.0,0.0,0.0,0.0,0.0,0.0,0.0,0.0,0.0,0.0,0.0,0.0,0.0,0.0,0.0,0.0,0.0,0.0,0.0,0.0,0.0,0.0,0.0,0.0,0.0,0.0,0.0,0.0,0.0,0.0,0.0,0.0,0.0,0.0,0.0,0.0,0.0,0.0,0.0,0.0,0.0,0.0,0.0,0.0,0.0,0.0,0.0,0.0,0.0,0.0,0.0,0.0,0.0,0.0,0.0,0.0,0.0,0.0,0.0,0.0,0.0,0.0,0.0,0.0,0.0,0.0,0.0,0.0,0.0,-4.1204,-3.9446,-3.8492,-3.9572,-3.9647,-3.9647,-3.9697,-3.8617,-3.8442,-3.9622,0.0,0.0,0.0,0.0,0.0,0.0,0.0,0.0,0.0,0.0,0.0,0.0,0.0,0.0,0.0,0.0,0.0,0.0,0.0,0.0,0.0,0.0,0.0,0.0,0.0,0.0,0.0,0.0,0.0,0.0,0.0,0.0,0.0,0.0,0.0,0.0,0.0,0.0,0.0,0.0,0.0,0.0,0.0,0.0,0.0,0.0,0.0,0.0,0.0,0.0,0.0,0.0,0.0,0.0,0.0,0.0,0.0,0.0,0.0,0.0,-4.4611,0.0,0.0,0.0,0.0,0.0,0.0,0.0,0.0,0.0,0.0,0.0,0.0,0.0,0.0,0.0,0.0,0.0,0.0,0.0,0.0,0.0,0.0,0.0,0.0,0.0,0.0,0.0,0.0,0.0,0.0,0.0,0.0,0.0,0.0,0.0,0.0,0.0,0.0,0.0,0.0,0.0,-4.1361,-3.9798,-3.8944,-3.9622,-3.9295,-3.922,-3.9647,-3.8266,-3.804,-3.9597,-3.8642,0.0,0.0,0.0,0.0,0.0,0.0,0.0,0.0,0.0,0.0,0.0,0.0,0.0,0.0,0.0,0.0,0.0,0.0,0.0,0.0,0.0,0.0,0.0,0.0,0.0,0.0,0.0,0.0,0.0,0.0,0.0,0.0,0.0,0.0,0.0,0.0,0.0,0.0,0.0,0.0,0.0,0.0,0.0,0.0,0.0,0.0,0.0,0.0,0.0,0.0,0.0,0.0,0.0,0.0,0.0,0.0,0.0,0.0,0.0,0.0,-4.3145,0.0,0.0,0.0,0.0,0.0,0.0,0.0,0.0,0.0,0.0,0.0,0.0,0.0,0.0,0.0,0.0,0.0,0.0,0.0,0.0,0.0,0.0,0.0,0.0,0.0,0.0,0.0,0.0,0.0,0.0,0.0,0.0,0.0,0.0,0.0,0.0,0.0,0.0,0.0,0.0,-4.1307,-3.9647,-3.8668,-3.9245,-3.8793,-3.8567,-3.8868,-3.7839,-3.7563,-3.8442,-3.8428,0.0,0.0,0.0,0.0,0.0,0.0,0.0,0.0,0.0,0.0,0.0,0.0,0.0,0.0,0.0,0.0,0.0,0.0,0.0,0.0,0.0,0.0,0.0,0.0,0.0,0.0,0.0,0.0,0.0,0.0,0.0,0.0,0.0,0.0,0.0,0.0,0.0,0.0,0.0,0.0,0.0,0.0,0.0,0.0,0.0,0.0,0.0,0.0,0.0,0.0,0.0,0.0,0.0,-4.0364,-4.0098,-3.9421,-3.9973,-3.9798,-3.9146,-4.0765,-4.0848,-3.9991,-4.2525,0.0,0.0,0.0,0.0,0.0,0.0,0.0,0.0,0.0,0.0,0.0,0.0,0.0,0.0,0.0,0.0,0.0,0.0,0.0,0.0,0.0,0.0,0.0,0.0,-4.3991,-4.3915,-4.4844,0.0,0.0,0.0,0.0,0.0,0.0,0.0,0.0,0.0,0.0,0.0,-4.11,-3.9421,-3.8341,-3.8869,-3.8266,-3.7889,-3.799,-3.7412,-3.7182,-3.7498,-3.8161,-3.8515,0.0,0.0,0.0,0.0,0.0,0.0,0.0,0.0,0.0,0.0,0.0,0.0,0.0,0.0,0.0,0.0,0.0,0.0,0.0,0.0,0.0,0.0,0.0,0.0,0.0,0.0,0.0,0.0,0.0,0.0,0.0,0.0,-3.6146,-3.5962,0.0,0.0,0.0,0.0,0.0,0.0,0.0,0.0,0.0,0.0,0.0,0.0,0.0,-4.3437,-4.3287,-4.1795,-4.092,-4.0663,-3.9618,-3.8843,-3.8241,-3.8818,-3.927,-3.9622,-4.0357,0.0,-3.9778,-4.0637,0.0,0.0,0.0,0.0,0.0,0.0,0.0,0.0,0.0,0.0,0.0,0.0,0.0,0.0,0.0,0.0,0.0,0.0,0.0,0.0,0.0,0.0,-4.3966,-4.3338,-4.3137,-4.3137,0.0,-4.4288,-4.4958,-4.4402,-4.5493,-4.6075,0.0,0.0,0.0,0.0,0.0,0.0,-4.0676,-3.9546,-3.8844,-3.8919,-3.7914,-3.7487,-3.7965,-3.7061,-3.7108,-3.8579,-3.7903,-3.8063,-3.9468,-3.8386,0.0,0.0,0.0,0.0,0.0,0.0,0.0,0.0,0.0,0.0,0.0,0.0,0.0,0.0,0.0,0.0,0.0,0.0,0.0,0.0,0.0,0.0,0.0,0.0,0.0,0.0,0.0,0.0,0.0,-3.9203,-3.8256,-3.7583,-3.9244,-4.0924,0.0,0.0,0.0,0.0,0.0,0.0,0.0,0.0,0.0,-4.3444,-4.298,-4.2187,-4.0844,-4.0653,-4.0465,-4.0182,-3.993,-3.9823,-3.9898,-4.045,-4.1081,-4.158,-4.2133,-4.2233,-4.1982,-4.1605,-4.1354,-4.1254,0.0,0.0,0.0,0.0,-4.3237,-4.4557,-4.4074,-4.4267,-4.492,-4.5899,0.0,0.0,0.0,0.0,0.0,0.0,0.0,-4.636,0.0,0.0,-4.3589,-4.2766,-4.2564,-4.2564,-4.2564,-4.266,-4.2886,-4.3263,-4.4356,-4.4812,-4.3551,-4.3136,0.0,0.0,0.0,-3.9973,-4.0049,-3.8818,-3.7914,-3.7914,-3.726,-3.6883,-3.7061,-3.6681,-3.6716,-3.7463,-3.7912,-3.7964,-3.7593,-3.8103,-3.7814,0.0,0.0,0.0,0.0,0.0,0.0,0.0,0.0,0.0,0.0,0.0,0.0,0.0,0.0,0.0,0.0,0.0,0.0,0.0,0.0,0.0,0.0,0.0,0.0,0.0,0.0,0.0,0.0,-4.0356,-3.9528,-3.8988,-3.9746,-4.0916,0.0,0.0,0.0,0.0,0.0,0.0,-4.4857,-4.4516,-4.3808,-4.2671,-4.2249,-4.1218,-3.944,-4.0247,-4.0517,-4.0325,-4.0877,-4.143,-4.1982,-4.2534,-4.3143,-4.3639,-4.4066,-4.4242,-4.4141,-4.2942,-4.1882,-4.1178,-4.1455,-4.2327,-4.3412,-4.2671,-4.376,-4.5486,-4.4814,-4.4895,-4.5347,-4.5773,-4.5623,-4.5221,-4.492,0.0,0.0,0.0,0.0,-4.4242,-4.3564,-4.3489,-4.3338,-4.2439,-4.2213,-4.2162,-4.1982,-4.1731,-4.1706,0.0,-4.3011,-4.3263,-4.2308,-4.1455,0.0,-4.1333,-3.9975,-3.8969,-3.922,-3.804,-3.7186,-3.7186,-3.6732,-3.6405,-3.6405,-3.6531,-3.6748,-3.7006,-3.7855,-3.7785,-3.6509,-3.7292,-3.6965,-3.5179,0.0,0.0,0.0,0.0,0.0,0.0,0.0,0.0,0.0,0.0,0.0,0.0,0.0,0.0,0.0,0.0,0.0,0.0,0.0,0.0,0.0,0.0,0.0,0.0,0.0,0.0,0.0,0.0,0.0,-3.8325,-3.8837,0.0,0.0,0.0,0.0,-4.5244,-4.5903,-4.5424,-4.3603,-4.3931,-4.309,-4.0641,-4.1051,-4.1284,-4.1182,-4.1232,-4.1534,-4.2087,-4.264,-4.3137,-4.3689,-4.4242,-4.4819,-4.5372,-4.5397,-4.5397,-4.5271,-4.3614,-4.2911,-4.2811,-4.2363,-4.2816,-4.3727,-4.3168,-4.3696,-4.4626,-4.4618,-4.4644,-4.4945,-4.6466,-4.6968,-4.6803,-4.5773,-4.5447,0.0,0.0,-4.3922,-4.3589,-4.2564,-4.269,-4.2861,-4.2338,-4.2213,-4.2062,-4.1505,-4.1756,-4.1831,0.0,-4.0676,-4.0551,-3.9948,0.0,-3.9597,-3.917,-3.8994,-3.8668,-3.8165,-3.7563,-3.7186,-3.7186,-3.6732,-3.6405,-3.6405,-3.6883,-3.7639,-3.8693,-3.7518,-3.7245,-3.8241,-3.5521,-3.4999,-3.7206,-3.626,0.0,0.0,0.0,0.0,0.0,0.0,0.0,0.0,0.0,0.0,0.0,0.0,0.0,0.0,0.0,0.0,0.0,0.0,0.0,0.0,0.0,0.0,0.0,0.0,0.0,0.0,0.0,0.0,-4.1526,-4.2209,0.0,-4.3387,-4.5148,-4.5773,-4.469,-4.523,-4.4883,-4.3352,-4.3088,-4.2731,-4.2231,-4.1982,-4.1859,-4.1856,-4.2208,-4.2484,-4.274,-4.3237,-4.3614,-4.384,-4.4769,-4.5296,-4.5497,-4.5874,-4.6024,-4.5949,-4.4995,-4.4166,-4.3463,-4.2911,-4.3137,-4.379,-4.3589,-4.4443,-4.5698,-4.5698,-4.5698,-4.5623,-4.5146,-4.4995,-4.4943,-4.4682,-4.4015,-4.3462,-4.3888,-4.3092,-4.2208,-4.2213,-4.2032,-4.1882,-4.1681,-4.1354,-4.1053,-4.0852,-4.0676,-4.045,-4.0049,-4.0551,-4.0752,-3.9848,-3.9396,-3.922,-3.9371,-3.8793,-3.8241,-3.804,-3.7513,-3.7036,-3.6732,-3.6531,-3.6556,-3.6908,-3.7061,-3.7117,-3.6924,-3.6802,-3.6436,-3.5841,-3.5099,-3.4836,-3.5027,-3.4931,-3.5533,0.0,0.0,0.0,0.0,0.0,0.0,0.0,0.0,0.0,0.0,0.0,0.0,0.0,0.0,0.0,0.0,0.0,0.0,0.0,0.0,0.0,0.0,0.0,0.0,0.0,0.0,-4.3025,-4.4239,-4.4342,-4.4544,-4.5259,-4.5874,-4.5859,-4.4908,-4.4869,-4.447,-4.3557,-4.3136,-4.2866,-4.2838,-4.2598,-4.2489,-4.2489,-4.2785,-4.3062,-4.3263,-4.3815,-4.4192,-4.4392,-4.5347,-4.5773,-4.5773,-4.615,-4.6301,-4.6276,-4.5924,-4.5422,-4.4844,-4.4116,-4.4166,-4.4669,-4.4869,-4.5874,-4.7104,-4.6928,-4.6602,-4.6075,-4.4568,-4.394,-4.3784,-4.3733,-4.3022,-4.2351,-4.322,-4.256,-4.1656,-4.1831,-4.1756,-4.153,-4.11,-4.0777,-4.0526,-4.0526,-4.0074,-3.9747,-3.9923,-4.04,-4.0501,-3.9572,-3.917,-3.8919,-3.9094,-3.8341,-3.7739,-3.7739,-3.7236,-3.6807,-3.6455,-3.6581,-3.6641,-3.648,-3.6801,-3.6545,-3.5422,-3.5911,-3.5764,-3.4741,-3.5109,-3.5101,-3.4711,-3.4825,-3.5428,-3.6644,0.0,0.0,0.0,0.0,0.0,0.0,0.0,0.0,0.0,0.0,0.0,0.0,0.0,0.0,0.0,0.0,0.0,0.0,0.0,0.0,0.0,0.0,0.0,-4.5035,-4.3776,-4.3568,-4.593,-4.4746,-4.4108,-4.5215,-4.4691,-4.48,-4.6013,-4.4961,-4.418,-4.4072,-4.4072,-4.3514,-4.2292,-4.2766,-4.2986,-4.2986,-4.2986,-4.3263,-4.3815,-4.4367,-4.4945,-4.5497,-4.605,-4.6301,-4.6301,-4.6301,-4.6301,-4.6301,-4.6301,-4.6652,-4.7029,-4.5949,-4.5874,-4.6451,-4.6979,-4.7832,-4.8661,-4.8109,-4.723,-4.615,-4.4995,-4.4267,-4.3714,-4.3162,-4.2665,-4.2238,-4.2238,-4.2238,-4.2112,-4.148,-4.1731,-4.1911,-4.0752,-4.0501,-4.0501,-4.0501,-4.0074,-3.9848,-4.0375,-4.0049,-3.9521,-3.8994,-3.8944,-3.8718,-3.814,-3.7613,0.0,-3.7211,-3.6782,-3.6408,-3.6383,-3.6812,-3.6529,-3.507,-3.5995,-3.5987,-3.4495,-3.4965,-3.5343,-3.5343,-3.5343,-3.5815,-3.6665,-3.6024,-3.5913,-3.6415,0.0,0.0,0.0,0.0,0.0,0.0,0.0,0.0,0.0,0.0,0.0,0.0,0.0,0.0,0.0,0.0,0.0,0.0,0.0,0.0,0.0,0.0,-4.3409,-4.3798,-4.4281,-4.4604,-4.4749,-4.5191,-4.5584,-4.5805,-4.6063,-4.6082,-4.5816,-4.5607,-4.4966,-4.3959,-4.3492,-4.3153,-4.2816,-4.2886,-4.2986,-4.2986,-4.3363,-4.3639,-4.3815,-4.4794,-4.5321,-4.5497,-4.605,-4.6301,-4.6301,-4.6301,-4.6301,-4.6301,-4.6301,-4.6652,-4.7043,-4.6803,-4.7255,-4.8058,-4.7782,-4.7883,-4.8134,-4.7958,-4.7456,-4.6652,-4.5121,-4.4518,-4.4217,-4.3263,-4.2861,-4.276,-4.276,-4.276,-4.2534,-4.158,-4.1401,-4.1279,-4.0174,-3.9923,-3.9923,-3.9923,-3.9798,-3.9747,-3.9898,-3.9798,-3.9647,-3.9496,-3.9471,-3.9421,-3.9245,-3.9094,-3.8693,-3.7889,-3.7638,-3.6997,-3.5524,-3.5522,-3.5331,-3.4607,-3.485,-3.5061,-3.5064,-3.5221,-3.5781,-3.6865,-3.6918,-3.6786,-3.6608,-3.4689,-3.399,0.0,0.0,0.0,0.0,0.0,0.0,0.0,0.0,0.0,0.0,0.0,0.0,0.0,0.0,0.0,0.0,0.0,0.0,0.0,0.0,0.0,0.0,-4.3956,-4.3759,-4.4066,-4.4507,-4.4763,-4.462,-4.5721,-4.6518,-4.644,-4.6721,-4.6759,-4.6494,-4.5545,-4.4771,-4.4199,-4.3413,-4.3087,-4.3313,-4.3313,-4.3438,-4.3664,-4.3991,-4.4267,-4.4518,-4.5171,-4.5623,-4.5849,-4.6175,-4.6301,-4.6301,-4.6301,-4.6301,-4.6326,-4.6552,-4.6979,0.0,0.0,0.0,0.0,0.0,-4.8309,-4.7908,-4.7908,-4.7405,-4.6552,-4.5095,-4.4618,-4.4418,-4.3313,-4.2986,-4.2986,-4.2986,-4.2811,-4.2434,-4.1555,-4.1125,-4.0777,-3.9898,-3.9697,-3.9747,-3.9998,-3.9848,-3.9772,-3.9998,-3.9848,0.0,-3.9697,-3.9697,-3.9697,-3.9697,-3.9496,-3.912,-3.8442,-3.7642,-3.6646,-3.5453,-3.4983,-3.4396,-3.3563,-3.4294,0.0,0.0,0.0,-3.6595,-3.7477,-3.7075,0.0,0.0,0.0,-3.3125,-3.3809,-3.4492,0.0,0.0,-3.7065,-3.7481,0.0,0.0,0.0,0.0,0.0,0.0,0.0,0.0,0.0,0.0,0.0,0.0,0.0,0.0,0.0,0.0,-4.4239,-4.4428,-4.4982,-4.4624,-4.4472,-4.5001,-4.6079,-4.6766,-4.6801,-4.6593,-4.669,-4.721,-4.5113,-4.4016,-4.4493,0.0,0.0,0.0,0.0,-4.4141,-4.4618,-4.4694,-4.497,-4.5497,-4.5547,-4.5824,-4.6301,-4.6301,-4.6351,-4.6401,-4.6401,-4.6426,-4.6527,-4.7029,-4.7481,-4.7933,-4.8058,-4.841,-4.8912,-4.9339,-4.8837,-4.7908,-4.7832,0.0,0.0,-4.4995,-4.4618,-4.4418,-4.3313,-4.2986,-4.2986,-4.2986,-4.264,-4.2087,-4.148,-4.0874,-4.0375,-3.9823,-3.9697,-3.9823,-4.0325,-4.0049,-3.9848,-4.0325,-4.0023,-3.9697,-3.9697,-3.9697,-3.9697,-3.9697,-3.927,-3.8893,-3.8666,-3.7054,-3.5797,-3.5437,0.0,0.0,-3.2427,-3.3975,-3.4626,-3.3677,-3.6031,-3.7554,-3.7548,-3.6337,-3.5307,-3.4446,-3.3355,-3.3008,-3.3418,-3.3809,-3.4023,-3.4121,-3.5703,-3.625,0.0,0.0,0.0,0.0,0.0,0.0,0.0,0.0,0.0,0.0,0.0,0.0,0.0,0.0,0.0,-4.411,-4.4192,-4.4216,-4.428,-4.459,-4.4782,-4.4917,-4.5183,-4.5465,-4.5745,-4.5323,-4.5226,-4.5809,-4.4591,-4.384,-4.3966,-4.3765,-4.3689,-4.379,-4.4242,-4.4518,-4.4618,-4.5095,-4.5372,-4.5497,0.0,0.0,-4.6301,-4.6301,-4.6552,-4.6979,-4.6979,-4.7205,-4.7606,-4.7707,-4.7807,-4.8008,-4.8912,-4.9339,-4.9389,-4.9063,-4.851,-4.7857,-4.7431,-4.6853,-4.6125,-4.4995,-4.4618,-4.4418,-4.3313,-4.2986,0.0,-4.2986,-4.264,-4.2087,-4.148,-4.0874,-4.0375,-3.9823,-3.9697,-3.9722,-3.9823,-3.9772,-3.9722,-3.9823,-3.9772,-3.9697,-3.9697,-3.9697,-3.9697,-3.9697,-3.9597,-3.8986,-3.7336,-3.6753,-3.5561,-3.3149,-3.2742,-3.2733,-3.291,-3.3297,-3.4403,-3.6541,-3.7186,-3.7643,-3.7939,-3.5489,-3.4381,-3.4888,-3.3515,-3.3008,-3.3418,-3.3496,-3.373,-3.4082,-3.4766,-3.5039,0.0,0.0,0.0,0.0,0.0,0.0,0.0,0.0,0.0,0.0,0.0,-4.1848,0.0,0.0,-4.4942,-4.393,-4.4537,-4.501,-4.4599,-4.4191,-4.3962,-4.3962,-4.4395,-4.4704,-4.4651,-4.4644,-4.4744,-4.502,-4.4543,-4.4217,-4.4217,-4.4217,-4.4342,-4.4644,-4.492,-4.5196,-4.5472,-4.5748,-4.5899,-4.5899,-4.6175,-4.6301,-4.6326,-4.6602,-4.6878,-4.7093,-4.7405,-4.7657,-4.7908,-4.7908,-4.7908,-4.7958,-4.8535,-4.8761,-4.8711,-4.8435,-4.7983,-4.7481,-4.723,-4.6602,-4.5748,-4.4895,-4.4443,-4.4066,-4.3212,-4.2986,-4.2986,-4.2986,-4.2384,-4.1681,-4.1351,-4.0727,-4.0049,-3.9747,-3.9697,-3.9697,-3.9697,-3.9697,-3.9697,-3.9697,-3.9923,-4.0023,-3.9747,-3.9923,-4.0023,-3.9747,-3.9077,-3.8251,-3.7226,-3.5826,-3.4307,-3.2833,-3.201,-3.1942,-3.3,-3.4437,-3.6363,-3.8843,-3.8233,-3.7691,-3.7409,-3.5222,-3.4028,-3.3902,-3.3144,-3.3008,-3.3418,-3.3418,-3.3535,-3.375,-3.418,-3.4492,0.0,0.0,0.0,0.0,0.0,0.0,0.0,0.0,-3.8171,-3.9931,-4.0697,-4.1184,-4.155,-4.421,-4.5737,-4.3943,-4.4815,-4.5459,-4.4701,-4.3734,-4.3062,-4.2836,-4.379,-4.4342,-4.3991,-4.4267,-4.4518,-4.4618,-4.4518,-4.4518,-4.4618,-4.4719,-4.4995,-4.5472,-4.5598,-4.5849,-4.6301,-4.6301,-4.6301,-4.6301,-4.6301,-4.6301,-4.6326,-4.6778,-4.7079,-4.733,-4.7958,-4.8234,-4.8234,-4.8134,-4.8008,-4.7908,-4.7807,-4.7682,-4.7606,-4.7732,-4.7481,-4.7129,-4.7004,-4.6326,-4.5397,-4.4819,-4.4242,-4.3689,-4.3137,-4.2986,-4.2986,-4.2986,-4.2183,-4.1275,-4.1275,-4.0526,-3.9697,-3.9697,-3.9697,-3.9697,-3.9697,-3.9697,-3.9697,-3.9697,-4.0149,-4.0375,-3.9923,-4.03,-4.0345,-3.9409,-3.8243,-3.7293,-3.6703,-3.4548,-3.3077,-3.3077,-3.2035,-3.2076,-3.3974,-3.63,-3.834,-4.0071,-3.8435,-3.7097,-3.6418,-3.4922,-3.37,-3.291,-3.291,-3.3086,-3.3418,-3.3496,-3.3555,-3.3555,-3.4082,-3.4414,-3.6179,-3.5755,0.0,-3.4901,-3.4564,-3.4557,0.0,0.0,-3.6232,-3.7751,-3.8266,-3.9212,-4.1796,-4.262,-4.3294,-4.4682,-4.4579,-4.4096,-4.3305,-4.3501,-4.3338,-4.2414,-4.3212,-4.4066,-4.4493,-4.4141,-4.4091,-4.4593,-4.4166,-4.4116,-4.4593,-4.5121,-4.5422,-4.5497,-4.5974,-4.625,-4.6301,-4.6301,-4.6301,-4.6301,-4.6301,-4.6301,-4.6301,-4.6376,-4.6928,-4.7883,-4.8937,-4.9414,-4.9364,-4.8887,-4.836,-4.7857,-4.7405,-4.6928,-4.6552,-4.7029,-4.7118,-4.7054,-4.6577,-4.5999,-4.5397,-4.4819,-4.4242,-4.3689,-4.3137,-4.2986,-4.2986,-4.2986,-4.2183,-4.1275,-4.1275,-4.0526,-3.9697,-3.9697,-3.9697,-3.9697,-3.9697,-3.9697,-3.9697,-3.9697,-4.0149,-4.0501,-4.0425,-4.0877,-4.0426,-3.8123,-3.7636,-3.6541,-3.3957,-3.3304,-3.3077,-3.3077,-3.2964,-3.4186,-3.7442,-3.7925,-3.8302,-3.9045,-3.6426,-3.4922,-3.517,-3.3781,-3.3096,-3.334,-3.3359,-3.3379,-3.3418,-3.3809,-3.4004,-3.4023,-3.4863,-3.4844,-3.4349,0.0,0.0,0.0,-3.4299,-3.4539,-3.5334,-3.575,-3.6396,-3.7643,-3.8546,-3.9914,-4.2544,-4.3574,-4.4184,0.0,-4.4598,-4.4248,-4.3159,-4.2911,-4.2559,-4.1781,-4.2738,-4.3413,-4.3249,-4.3994,-4.4386,-4.4148,-4.4242,-4.4518,-4.5095,-4.5974,-4.6301,-4.5974,-4.6502,-4.6627,-4.6301,-4.6301,-4.6301,-4.6301,-4.6652,-4.6627,-4.6351,-4.7305,-4.8159,-4.8912,-4.9389,-4.9213,-4.8586,-4.836,-4.7757,-4.6954,-4.6753,-4.6527,-4.6326,-4.6577,-4.6451,-4.615,-4.5924,-4.5246,-4.4468,-4.4217,-4.3765,-4.3288,-4.3037,-4.2986,-4.2986,-4.2986,-4.2183,-4.1275,-4.1275,-4.0526,-3.9697,-3.9697,-3.9697,-3.9697,-3.9697,-3.9948,-4.0174,-4.0174,-4.0877,-4.1379,-4.1053,-4.0646,-3.9609,-3.709,-3.6709,-3.5824,-3.3381,-3.3077,-3.3579,-3.474,-3.558,-3.645,-3.7288,-3.8114,-3.838,-3.8068,-3.5966,-3.4951,-3.5451,-3.3997,-3.3242,-3.3418,-3.3672,-3.3809,-3.3809,-3.4238,-3.4434,-3.4453,-3.5351,-3.5566,-3.3445,0.0,0.0,-3.4198,-3.4424,-3.4856,-3.5583,-3.6332,-3.7172,-3.8282,-3.9246,-4.0694,-4.3492,-4.4288,-4.4552,-4.4722,-4.4732,-4.4301,-4.2957,-4.2768,-4.2401,-4.143,-4.2938,-4.3482,-4.21,-4.3672,-4.4557,-4.408,-4.4392,-4.4945,-4.5673,-4.6476,-4.6728,-4.6326,-4.6702,-4.6702,-4.6301,-4.6301,-4.6376,-4.6552,-4.6892,-4.7004,-4.6803,-4.8159,-4.8987,-4.9364,-4.954,-4.9038,-4.8134,-4.7983,-4.738,-4.6527,-4.6376,-4.6301,-4.6301,-4.6301,-4.5974,-4.5497,-4.5497,-4.4744,-4.379,-4.379,-4.3438,-4.2986,-4.2986,-4.2986,-4.2986,-4.2986,-4.2283,-4.1555,-4.1555,-4.0852,-4.0099,-3.9948,-3.9923,-3.9873,-3.9722,-4.0124,-4.0526,-4.0526,-4.1404,-4.2087,-4.163,-4.0623,-3.9047,-3.668,-3.5813,-3.478,-3.2763,-3.3353,-3.445,-3.5871,-3.7478,-3.8035,-3.6959,-3.7463,-3.761,-3.6993,-3.5465,-3.4698,-3.5129,-3.4127,-3.3594,-3.3594,-3.4023,-3.4238,-3.4258,-3.4805,-3.5059,-3.5078,-3.5957,-3.6367,0.0,0.0,-3.4048,-3.4575,-3.47,-3.4981,-3.6132,-3.7211,-3.8266,-3.9422,-3.9673,-4.0849,-4.4579,-4.3714,-4.3238,-4.5664,-4.496,-4.3701,-4.2377,-4.3274,-4.3388,-4.1629,-4.42,-4.4864,0.0,-4.3046,-4.4242,-4.4526,-4.4618,-4.5121,-4.6225,-4.6326,-4.6326,-4.6301,-4.6326,-4.6326,-4.6301,-4.6301,-4.6577,-4.7043,-4.7068,-4.738,-4.7883,-4.8485,-4.8786,-4.8837,-4.9364,-4.9264,-4.8711,-4.8134,-4.7581,-4.6993,-4.6527,-4.6301,-4.6301,-4.6301,-4.5974,-4.5497,-4.5497,-4.4744,-4.379,-4.379,-4.3438,-4.2986,-4.2986,-4.2986,-4.2986,-4.2986,-4.2615,-4.2187,-4.2187,-4.1706,-4.11,-4.0626,-4.0501,-4.035,-3.9798,-4.0124,-4.0526,-4.0526,-4.1404,-4.2213,-4.2187,-4.0978,-3.9278,-3.7167,-3.5236,-3.3277,-3.1229,-3.3933,-3.6005,-3.5893,-3.7669,-3.8461,-3.7475,-3.601,-3.5323,-3.5825,-3.4363,-3.3461,-3.3481,-3.3892,-3.4062,-3.4062,-3.4473,-3.4687,-3.4687,-3.5547,-3.5976,-3.5996,-3.6855,-3.7266,0.0,0.0,-3.5579,-3.5755,-3.6358,-3.7111,-3.7864,-3.8894,-3.9672,-3.9697,-3.9956,-4.0848,-4.304,-4.2835,-4.3177,-4.5721,-4.5785,-4.5294,-4.483,-4.5243,-4.4594,-4.1852,-4.3642,0.0,0.0,0.0,0.0,-4.4112,-4.4418,-4.5121,-4.625,-4.6979,-4.7205,-4.6878,-4.7556,-4.7757,-4.738,-4.738,-4.7456,-4.7657,-4.7657,-4.8134,-4.9012,-4.846,-4.841,-4.8761,-4.856,-4.8184,-4.7682,-4.7481,-4.7079,-4.6577,-4.6376,-4.6301,-4.6301,-4.6301,-4.5974,-4.5422,-4.5045,-4.4418,-4.374,-4.3363,-4.3137,-4.2986,-4.2986,-4.2986,-4.2986,-4.2986,-4.264,-4.2213,-4.2213,-4.1756,-4.1225,-4.105,-4.1,-4.0949,-4.0774,-4.1229,-4.1605,-4.1605,-4.2263,-4.2766,-4.2766,-4.146,-3.9682,-3.7653,-3.5078,-3.3473,-3.3776,-3.5099,-3.6477,-3.7748,-3.7895,-3.7475,-3.6419,-3.5818,-3.5169,-3.4238,-3.3713,-3.3418,-3.3418,-3.3848,-3.4082,-3.4082,-3.5059,-3.5586,-3.5586,-3.6445,-3.6875,-3.6875,-3.7168,-3.7305,0.0,-3.583,-3.6757,-3.6933,-3.7638,-3.8467,-3.9019,-3.9722,-4.0124,-3.9772,-3.9925,-4.0468,-4.157,-4.1706,-4.2357,-4.4469,-4.4771,-4.4726,-4.4738,-4.5007,-4.4392,-4.2113,-4.315,-4.3291,0.0,0.0,0.0,-4.4112,-4.4618,-4.5422,-4.6552,-4.7431,-4.7757,-4.7431,-4.8109,-4.8284,-4.7908,-4.7908,-4.7908,-4.7908,-4.8309,-4.8686,-4.8962,-4.846,-4.8309,-4.8435,-4.8083,-4.7606,-4.7068,-4.7068,-4.6803,-4.6301,-4.6301,-4.6301,-4.6301,-4.6301,-4.6075,-4.5673,-4.4895,-4.4267,-4.3714,-4.3162,-4.2986,-4.2986,-4.2986,-4.2986,-4.2986,-4.2986,-4.2766,-4.2514,-4.2514,-4.2183,-4.1882,-4.1681,-4.163,-4.158,-4.1326,-4.1756,-4.2213,-4.2213,-4.2665,-4.2986,-4.2986,-4.1582,-3.9612,-3.7427,-3.588,-3.5313,-3.6274,-3.616,-3.6545,-3.7924,-3.717,-3.6144,-3.5047,-3.4902,-3.4487,-3.3481,-3.3418,-3.3496,-3.3652,-3.4062,-3.4375,-3.4551,-3.5664,-3.625,-3.625,-3.7109,-3.7441,-3.7305,-3.7617,-3.75,-3.5658,-3.6508,-3.7487,-3.799,-3.8567,-3.912,-3.9622,-3.9722,-3.9724,-3.9725,-3.9612,-3.9741,0.0,0.0,-4.1003,-4.2167,-4.2424,-4.2497,-4.2475,-4.3079,-4.3236,0.0,0.0,0.0,0.0,0.0,0.0,-4.4601,0.0,-4.5974,-4.7018,-4.7657,-4.7958,-4.7958,-4.7958,-4.7958,-4.7983,-4.7983,-4.7983,-4.7958,-4.9038,-4.8962,-4.7933,-4.846,-4.8385,-4.7857,-4.7832,-4.7556,-4.7043,-4.7043,-4.6778,-4.6301,-4.6301,-4.6301,-4.6301,-4.6301,-4.6301,-4.615,-4.502,-4.4292,-4.374,-4.3162,-4.2986,-4.2986,-4.2986,-4.2986,-4.2986,-4.2986,-4.2986,-4.2986,-4.2986,-4.2986,-4.2836,-4.2363,-4.2263,-4.2112,-4.153,-4.1831,-4.2263,-4.2263,-4.2665,-4.2986,-4.2986,-4.1401,-3.9273,-3.6837,-3.7597,-3.8424,-3.8268,-3.7008,-3.6207,-3.6585,-3.5672,-3.4615,-3.3505,-3.3418,-3.3418,-3.3418,-3.3418,-3.3613,-3.4062,-3.4473,-3.4922,-3.5391,-3.625,-3.6699,-3.668,-3.7519,-3.7715,-3.7344,-3.8144,-3.7871,-3.7789,-3.8818,-3.9697,-3.9848,-4.03,-4.0651,-4.0375,-3.9998,-3.9702,-3.9633,-3.9236,-3.9098,0.0,0.0,0.0,-4.2912,-4.426,0.0,-4.5121,-4.5687,0.0,-4.3833,0.0,-4.4282,-4.3471,-4.3563,0.0,0.0,-4.5648,-4.5974,-4.7018,-4.8033,-4.856,-4.856,-4.856,-4.8736,-4.9163,-4.9163,-4.8962,-4.856,-4.8837,-4.8611,-4.7908,-4.7657,-4.7481,-4.7305,-4.6903,-4.6652,-4.6527,-4.6527,-4.6426,-4.6301,-4.6301,-4.6301,-4.6301,-4.6301,-4.6301,-4.615,-4.502,-4.4543,-4.4242,-4.3288,-4.2986,-4.2986,-4.2986,-4.2986,-4.2986,-4.2986,-4.2986,-4.2986,-4.2986,-4.2986,-4.2936,-4.2811,-4.2816,-4.2735,-4.2585,-4.266,-4.2816,-4.2816,-4.2942,-4.2986,-4.2986,-4.2232,-4.1552,-4.1261,-4.0843,-3.9869,-3.7923,-3.6668,-3.6151,-3.6528,-3.4703,-3.3446,-3.3379,-3.3418,-3.3418,-3.3418,-3.3418,-3.3613,-3.4062,-3.4473,-3.4922,-3.5391,-3.6543,-3.6992,-3.668,-3.7519,-3.7871,-3.7773,-3.7676,-3.7617,-3.9346,-4.04,-4.1229,-4.1229,-4.148,-4.143,-4.04,-3.9722,-3.907,-3.8027,-3.7712,0.0,0.0,0.0,0.0,0.0,0.0,0.0,-4.4641,-4.5083,-4.51,0.0,-4.4381,0.0,-4.4148,-4.4166,-4.4669,0.0,-4.5899,-4.6326,-4.7405,-4.8058,-4.8385,-4.8385,-4.8385,-4.8535,-4.8862,-4.9339,-4.9188,-4.8385,-4.8661,-4.836,-4.7556,-4.7255,-4.6943,-4.6753,0.0,-4.6301,-4.6301,-4.6301,-4.6301,-4.6301,-4.6301,-4.6301,-4.6276,-4.605,-4.5949,-4.5799,-4.4644,-4.4267,-4.4116,-4.3263,-4.2986,-4.2986,-4.2986,-4.2986,-4.2986,-4.2986,-4.2986,-4.2986,-4.2986,-4.2986,-4.2986,-4.2986,-4.2986,-4.2986,-4.2986,-4.2986,-4.2986,-4.2986,-4.2986,-4.2986,-4.2986,-4.2766,-4.259,-4.2665,-4.2082,-4.1085,-3.9389,-3.7316,-3.6151,-3.6585,-3.4178,-3.2695,-3.3105,-3.332,-3.3496,-3.3691,-3.3711,-3.3984,-3.4629,-3.4883,-3.5293,-3.5937,-3.6836,-3.7187,-3.6953,-3.7793,-3.8008,-3.7656,-3.7793,-3.7793,-4.0701,-4.1656,-4.2514,-4.2439,-4.2363,-4.1886,-4.0174,-3.9195,-3.8089,-3.602,0.0,-3.6236,-3.6071,-3.6212,-3.6988,-3.8993,0.0,-4.0291,-4.276,-4.3101,-4.3454,-4.4583,-4.4317,-4.4242,-4.4794,-4.4844,-4.5095,-4.5673,-4.6075,-4.6753,-4.7757,-4.7883,-4.7908,-4.7908,-4.7983,-4.8033,-4.8033,-4.9063,-4.9063,-4.8033,-4.8535,-4.8234,-4.723,-4.723,-4.6928,-4.6426,-4.6426,-4.6376,-4.6301,-4.6301,-4.6301,-4.6301,-4.6301,-4.6276,-4.615,-4.5673,-4.5447,-4.5221,-4.4166,-4.379,-4.3714,-4.3162,-4.2986,-4.2986,-4.2986,-4.2986,-4.2986,-4.2986,-4.2986,-4.2986,-4.2986,-4.2986,-4.2986,-4.2986,-4.3037,-4.3087,-4.3087,-4.3137,-4.3162,-4.3011,-4.3037,-4.3062,-4.2986,-4.2986,-4.2811,-4.2389,-4.2313,-4.2137,-4.1551,-3.8406,-3.6353,-3.6732,-3.4093,-3.2441,-3.293,-3.3301,-3.3691,-3.4121,-3.416,-3.4531,-3.5351,-3.5391,-3.5762,-3.6562,-3.7051,-3.7266,-3.7226,-3.8066,-3.8105,-3.7402,-3.8144,-3.8125,-4.2409,-4.3363,-4.4091,-4.3639,-4.3162,-4.2409,-4.0752,-3.8868,0.0,0.0,-3.6201,-3.6084,-3.5593,-3.6711,0.0,-3.8182,0.0,0.0,0.0,0.0,-4.3619,0.0,0.0,0.0,0.0,0.0,0.0,0.0,0.0,-4.6602,-4.723,-4.7682,-4.7908,-4.7908,-4.836,-4.8611,-4.8611,-4.9264,-4.9264,-4.8636,-4.8711,-4.841,-4.7782,-4.7782,-4.7481,-4.6943,-4.6943,0.0,-4.6301,-4.6301,-4.6301,-4.6301,-4.6301,-4.6024,-4.5623,-4.5522,-4.5171,-4.4669,-4.4016,-4.379,-4.3714,-4.3162,-4.2986,-4.2986,-4.2986,-4.2986,-4.2986,-4.2986,-4.2986,-4.2986,-4.2986,-4.2986,-4.2986,-4.2986,-4.3313,-4.3664,-4.3664,-4.4016,-4.4066,-4.3162,-4.3338,-4.3514,-4.3062,-4.2986,-4.2936,-4.2916,-4.2836,-4.2811,-4.271,-3.9137,-3.6755,-3.7247,-3.4509,-3.3008,-3.3789,-3.3926,-3.4141,-3.457,-3.459,-3.4824,-3.5371,-3.5391,-3.5625,-3.6113,-3.6894,-3.7129,-3.6777,-3.7617,-3.7969,-3.7812,-3.7969,-3.8144,-4.3539,-4.4644,-4.5447,-4.5171,-4.4242,-4.2836,-4.0601,0.0,0.0,0.0,-3.435,-3.4218,-3.4524,0.0,0.0,0.0,0.0,0.0,0.0,0.0,0.0,0.0,0.0,0.0,0.0,0.0,0.0,0.0,0.0,-4.6552,-4.7043,-4.7355,-4.7506,-4.7506,-4.8033,-4.8309,-4.8309,-4.8887,-4.9038,-4.8761,-4.8761,-4.8636,-4.836,-4.8033,-4.7782,-4.7531,-4.7193,-4.6918,-4.6702,-4.6426,-4.615,-4.5874,-4.5874,-4.5522,-4.4995,-4.4719,-4.4443,-4.4116,-4.3564,-4.3363,-4.3338,-4.3062,-4.2986,-4.2986,-4.2986,-4.2986,-4.2986,-4.2986,-4.2986,-4.2986,-4.2986,-4.2986,-4.3062,-4.3338,-4.384,-4.4242,-4.4242,-4.4443,-4.4468,-4.394,-4.4041,-4.4066,-4.3514,-4.3639,-4.333,-4.1997,-4.1973,-4.1832,-4.0996,-3.8379,-3.6899,-3.7747,-3.4963,-3.3379,-3.4023,-3.4277,-3.459,-3.5039,-3.5059,-3.5254,-3.5703,-3.5937,-3.625,-3.668,-3.7305,-3.7519,-3.7324,-3.7949,-3.8144,-3.793,-3.8164,-3.8379,-4.4568,-4.5799,-4.6627,-4.6527,-4.5045,-4.2936,-4.03,-3.7889,0.0,0.0,-3.2904,-3.2832,-3.3245,0.0,0.0,0.0,0.0,0.0,0.0,0.0,0.0,0.0,0.0,0.0,0.0,0.0,0.0,0.0,0.0,0.0,-4.7043,-4.723,-4.7305,-4.7305,-4.7807,-4.8083,-4.8083,-4.8661,-4.8937,-4.8937,-4.8937,-4.8937,-4.8937,-4.8485,-4.8209,-4.8058,-4.7531,-4.723,-4.7043,-4.6552,-4.5974,-4.5497,-4.5497,-4.507,-4.4392,-4.3966,-4.374,-4.3564,-4.3137,-4.2986,-4.2986,-4.2986,-4.2986,-4.2986,-4.2986,-4.2986,-4.2986,-4.2986,-4.2986,-4.2986,-4.2986,-4.2986,-4.3137,-4.3815,-4.4392,-4.4794,-4.4794,-4.4895,-4.492,-4.4669,-4.4719,-4.4644,-4.4066,-4.4028,-4.3339,-4.1242,-4.0964,-4.0509,-3.9181,-3.7603,-3.702,-3.8011,-3.5458,-3.3867,-3.4316,-3.4648,-3.5039,-3.5508,-3.5605,-3.582,-3.6152,-3.6582,-3.6953,-3.7285,-3.7715,-3.793,-3.793,-3.8359,-3.8398,-3.8066,-3.8418,-3.8574,-4.5849,-4.6928,-4.7657,-4.7179,-4.5045,-4.2459,-4.0199,0.0,0.0,-3.342,-3.3843,-3.3912,-3.1965,-3.2713,0.0,0.0,0.0,-3.5328,0.0,0.0,0.0,0.0,0.0,0.0,0.0,0.0,0.0,0.0,0.0,0.0,-4.7093,-4.7581,-4.7832,-4.7832,-4.8385,-4.8686,-4.8686,-4.9238,-4.9515,-4.9515,-4.9515,-4.9515,-4.9515,-4.9464,-4.9163,-4.8661,-4.8083,-4.7581,0.0,-4.6552,-4.5974,-4.5497,-4.5497,-4.4819,-4.3865,-4.3815,-4.3489,-4.3037,-4.2986,-4.2986,-4.2986,-4.2986,-4.2986,-4.2986,-4.2986,-4.2986,-4.2986,-4.2986,-4.2986,-4.2986,-4.2986,-4.2986,-4.3237,-4.4292,-4.4995,-4.5422,-4.5422,-4.5799,-4.5849,-4.4819,-4.5045,-4.5221,-4.4644,-4.3291,-4.2257,-4.1983,-4.0632,-3.9613,-3.9489,-3.8014,-3.7232,-3.7738,-3.5896,-3.4766,-3.5234,-3.5312,-3.5508,-3.5937,-3.6328,-3.6582,-3.6601,-3.7012,-3.7266,-3.7305,-3.7715,-3.793,-3.793,-3.8359,-3.8555,-3.8516,-3.8555,-3.8574,-4.5924,-4.7355,-4.8284,-4.7732,-4.5271,-4.2484,-4.0626,0.0,0.0,-3.3771,-3.3403,-3.2935,-3.2047,-3.2133,-3.2398,0.0,0.0,0.0,0.0,0.0,0.0,0.0,0.0,0.0,0.0,0.0,0.0,0.0,0.0,0.0,-4.7631,-4.7782,-4.7908,-4.7908,-4.8134,-4.841,-4.8761,-4.8636,-4.8912,-4.959,-4.9264,-4.9264,-4.959,-4.9264,-4.8987,-4.8711,-4.7832,-4.7129,0.0,-4.605,-4.5296,-4.4468,-4.4468,-4.3991,-4.3313,-4.3313,-4.3162,-4.2986,-4.2986,-4.2986,-4.2986,-4.2986,-4.2986,-4.2986,-4.2986,-4.2986,-4.2986,-4.2986,-4.2986,-4.2986,-4.2986,-4.3463,-4.4091,-4.4518,-4.5321,-4.5974,-4.5974,-4.615,-4.6175,-4.5723,-4.5824,-4.5475,-4.3842,-4.3264,-4.214,-3.9481,-3.9019,-3.8508,-3.7177,-3.6684,-3.663,-3.7092,-3.5909,-3.5293,-3.5742,-3.5762,-3.5957,-3.6387,-3.6582,-3.6777,-3.7031,-3.7461,-3.7793,-3.8066,-3.8476,-3.8691,-3.8691,-3.8867,-3.8828,-3.8574,-3.8574,-3.8574,-4.5447,-4.7129,-4.8309,-4.7405,-4.4945,-4.2258,0.0,0.0,0.0,-3.4048,-3.3269,-3.2616,-3.2265,-3.2039,-3.1964,0.0,0.0,-3.2893,0.0,0.0,0.0,0.0,0.0,0.0,0.0,0.0,0.0,0.0,0.0,0.0,-4.8184,-4.7857,-4.7682,-4.7682,-4.7832,-4.8033,-4.8284,-4.8209,-4.8485,-4.9088,-4.8887,-4.8887,-4.9088,-4.8686,-4.851,-4.846,-4.7355,-4.6677,0.0,-4.5522,-4.4669,-4.379,-4.379,-4.3463,-4.2986,-4.2986,-4.2986,-4.2986,-4.2986,-4.2986,-4.2986,-4.2986,-4.3087,-4.3187,-4.3037,-4.2986,-4.2986,-4.2986,-4.2986,-4.2986,-4.2986,-4.3689,-4.4418,-4.4593,-4.5372,-4.6125,-4.6276,-4.6301,-4.6301,-4.6301,-4.6301,-4.5608,-4.3501,-4.3035,-4.1742,-3.8272,-3.7881,-3.7516,-3.6112,-3.6211,-3.6523,-3.6816,-3.6328,-3.6035,-3.6191,-3.6211,-3.6348,-3.666,-3.6894,-3.7226,-3.7656,-3.8086,-3.8516,-3.8965,-3.9258,-3.9414,-3.9414,-3.9277,-3.9043,-3.875,-3.8633,-3.8574,-4.4493,-4.625,-4.7531,-4.5924,-4.3872,-4.1634,0.0,0.0,0.0,-3.4123,-3.3897,-3.3545,-3.2416,-3.2667,-3.2867,-3.2315,0.0,0.0,0.0,0.0,0.0,0.0,0.0,0.0,0.0,0.0,0.0,0.0,0.0,0.0,-4.8761,-4.7732,-4.7093,-4.7093,-4.7631,-4.7657,-4.7093,-4.8209,-4.8485,-4.7933,-4.851,-4.8485,-4.7933,-4.7908,-4.7908,-4.7857,-4.6778,-4.6326,0.0,-4.5095,-4.4292,-4.379,-4.379,-4.3463,-4.2986,-4.2986,-4.2986,-4.2986,-4.2986,-4.2986,-4.2986,-4.2986,-4.3338,-4.3689,-4.3137,-4.2986,-4.2986,-4.2986,-4.2986,-4.2986,-4.2986,-4.3388,-4.394,-4.4493,-4.507,-4.5648,-4.62,-4.6301,-4.6301,-4.6301,-4.6301,-4.5732,-4.3979,-4.2328,-4.0756,-3.9386,-3.7771,-3.6886,-3.7226,-3.7285,-3.7285,-3.7285,-3.7285,-3.7109,-3.6699,-3.666,-3.666,-3.668,-3.7461,-3.8105,-3.8555,-3.8965,-3.9414,-3.9883,-3.9883,-3.9883,-3.9883,-3.9434,-3.9199,-3.918,-3.8769,-3.8574,-4.2886,-4.3991,-4.4794,-4.3514,-4.1886,-4.0199,-3.917,0.0,0.0,0.0,-3.468,-3.4349,-3.3997,-3.3771,-3.3696,-3.3897,-3.3771,0.0,0.0,0.0,0.0,0.0,0.0,0.0,0.0,0.0,0.0,0.0,0.0,0.0,-4.7682,-4.733,-4.7068,-4.7068,-4.7244,-4.7305,-4.7068,-4.7481,-4.7732,-4.7908,-4.7732,-4.7732,-4.7908,-4.7531,-4.7179,-4.6778,-4.605,-4.5321,-4.4568,-4.4217,-4.374,-4.3237,-4.3237,-4.3137,-4.2986,-4.2986,-4.2986,-4.2986,-4.2986,-4.2986,-4.2986,-4.2986,-4.3087,-4.3212,-4.3037,-4.3237,-4.3463,-4.3087,-4.2986,-4.2986,-4.2986,-4.3388,-4.394,-4.4493,-4.507,-4.5326,-4.4646,-4.4497,-4.4189,-4.3044,-4.2769,-4.2264,-4.0515,-4.0017,-3.9302,-3.7771,-3.7479,-3.7363,-3.6934,-3.7129,-3.7187,-3.6894,-3.6875,-3.6934,-3.709,-3.709,-3.7344,-3.793,-3.8223,-3.8711,-3.9453,-3.9609,-3.9883,-4.0312,-4.0332,-4.0332,-4.0332,-3.9883,-3.9375,-3.8769,-3.8633,-3.8574,0.0,-4.2333,-4.2861,-4.1555,-4.03,0.0,0.0,0.0,0.0,0.0,0.0,0.0,0.0,-3.4274,-3.4022,0.0,0.0,0.0,0.0,0.0,0.0,0.0,0.0,0.0,0.0,0.0,0.0,0.0,0.0,0.0,-4.7093,-4.6928,-4.6828,-4.6828,-4.6828,-4.6828,-4.6828,-4.7029,-4.7179,-4.7305,-4.7179,-4.7179,-4.728,-4.6753,-4.6326,-4.5949,-4.5196,-4.4443,0.0,-4.3589,-4.3288,-4.2986,-4.2986,-4.2986,-4.2986,-4.2986,-4.2986,-4.2986,-4.2986,-4.2986,-4.2986,-4.2986,-4.2986,-4.3011,-4.3212,-4.3388,-4.3413,-4.3062,-4.2986,-4.3037,-4.3237,-4.3539,-4.3991,-4.4769,-4.5221,-4.5181,-4.3921,-4.3731,-4.3208,-4.1501,-4.1181,-4.0666,-3.8927,-3.8828,-3.8491,-3.7114,-3.7344,-3.7559,-3.7187,-3.7363,-3.7441,-3.7168,-3.7285,-3.7559,-3.7988,-3.7871,-3.8066,-3.8769,-3.8984,-3.9394,-4.0098,-4.0137,-4.0332,-4.0762,-4.0762,-4.0762,-4.0762,-4.0332,-3.9668,-3.8809,-3.8984,-3.9082,0.0,0.0,0.0,0.0,0.0,0.0,0.0,0.0,0.0,0.0,0.0,0.0,0.0,0.0,0.0,0.0,0.0,0.0,0.0,0.0,0.0,0.0,0.0,0.0,0.0,0.0,0.0,0.0,0.0,0.0,-4.7018,-4.6552,-4.625,-4.625,-4.62,-4.62,-4.625,-4.6803,-4.6803,-4.625,-4.6778,-4.6753,-4.6225,-4.5673,-4.5397,0.0,-4.4267,-4.379,-4.3689,-4.3187,-4.2986,-4.2986,-4.2986,-4.2986,-4.2986,-4.2986,-4.2986,-4.2986,-4.2986,-4.2986,-4.2986,-4.2986,-4.2986,-4.3087,-4.3639,-4.3413,-4.2986,-4.3037,-4.3037,-4.3162,-4.3714,-4.3865,-4.4141,-4.5221,-4.5438,-4.5002,-4.3798,-4.3396,-4.2832,-4.1181,-4.086,-4.0343,-3.8663,-3.8461,-3.8212,-3.7448,-3.7344,-3.7519,-3.7832,-3.791,-3.791,-3.7832,-3.8281,-3.875,-3.916,-3.8867,-3.8848,-3.9277,-3.9707,-4.0137,-4.0547,-4.0566,-4.0742,-4.1113,-4.1094,-4.1074,-4.1035,-4.0664,-4.0039,-3.9219,-3.9687,-3.9902,-3.8693,0.0,-3.8693,-3.7511,-3.7084,-3.6933,0.0,0.0,0.0,0.0,0.0,0.0,0.0,0.0,0.0,0.0,0.0,0.0,0.0,0.0,0.0,0.0,0.0,0.0,0.0,0.0,0.0,0.0,0.0,-4.6502,-4.6502,-4.5974,-4.5673,-4.5673,-4.5246,-4.5246,-4.5673,-4.6225,-4.6225,-4.5673,-4.5824,-4.5799,-4.5673,-4.5095,-4.4593,-4.4192,-4.3915,-4.3564,-4.3162,-4.3037,-4.2986,-4.2986,-4.2986,-4.2986,-4.2986,-4.2986,-4.2986,-4.2986,-4.2986,-4.2986,-4.2986,-4.2986,-4.2986,-4.3087,-4.3639,-4.3413,-4.3062,-4.3489,-4.3614,-4.374,-4.4292,-4.4418,-4.4618,-4.5321,-4.447,-4.3211,-4.2023,-4.0731,-3.93,-3.7575,-3.724,-3.7126,-3.6674,-3.7143,-3.754,-3.7336,-3.7851,-3.8066,-3.7519,-3.7734,-3.7676,-3.7031,-3.793,-3.875,-3.916,-3.9434,-3.9766,-4.0176,-4.0312,-4.0566,-4.0996,-4.1016,-4.0918,-4.0684,-4.0351,-4.0019,-3.9668,-3.9922,-3.9746,-3.9219,-3.9687,-3.9902,-3.8241,-3.7814,-3.7412,-3.6631,-3.6405,-3.6405,-3.6405,0.0,0.0,0.0,0.0,0.0,0.0,0.0,0.0,0.0,0.0,0.0,0.0,0.0,0.0,0.0,0.0,0.0,0.0,0.0,0.0,0.0,0.0,-4.5824,-4.5547,-4.5246,-4.5095,-4.5095,-4.4794,-4.4769,-4.5095,-4.5397,-4.5397,-4.5095,-4.5095,-4.5095,-4.507,-4.4493,-4.4091,-4.379,-4.3539,-4.3263,-4.2986,-4.2986,-4.2986,-4.2986,-4.2986,-4.2986,-4.2986,-4.2986,-4.2986,-4.2986,-4.2986,-4.2986,-4.2986,-4.2986,-4.3162,-4.3413,-4.3714,-4.3765,-4.379,-4.4091,-4.4192,-4.4317,-4.4869,-4.502,-4.5171,-4.5723,-4.4512,-4.2879,-4.1497,-3.9823,-3.8088,-3.6355,-3.6016,-3.6094,-3.6289,-3.6699,-3.7148,-3.7519,-3.7988,-3.8105,-3.7656,-3.7773,-3.7832,-3.7578,-3.834,-3.9121,-3.9746,-4.0215,-4.0586,-4.0801,-4.082,-4.0918,-4.1172,-4.1172,-4.0976,-4.0527,-4.0117,-3.9766,-3.9512,-3.9961,-4.0059,-3.9824,-4.0273,-4.0488,-3.8291,-3.7663,-3.7161,-3.6556,-3.6405,-3.6405,-3.6405,0.0,0.0,0.0,0.0,0.0,0.0,0.0,0.0,0.0,0.0,0.0,0.0,0.0,0.0,0.0,0.0,0.0,0.0,0.0,0.0,0.0,0.0,-4.5146,-4.4644,-4.4543,-4.4493,-4.4493,-4.4418,-4.4367,-4.4367,-4.4543,-4.4593,-4.4493,-4.4493,-4.4493,-4.4468,-4.3915,-4.3689,-4.3639,0.0,0.0,-4.2986,-4.2986,-4.2986,-4.2986,-4.2986,-4.2986,-4.2986,-4.2986,-4.2986,-4.2986,-4.2986,-4.2986,-4.2986,-4.2986,-4.3338,-4.3815,-4.389,-4.4367,-4.4895,-4.4895,-4.4895,-4.4995,-4.5497,-4.5673,-4.5764,-4.5899,-4.4559,-4.2832,-4.1181,-3.9431,-3.7796,-3.6366,-3.6113,-3.6269,-3.6777,-3.6914,-3.7226,-3.8008,-3.8184,-3.8203,-3.8125,-3.8184,-3.834,-3.8633,-3.9121,-3.9707,-4.0469,-4.0918,-4.1172,-4.1172,-4.1172,-4.1152,-4.1074,-4.1016,-4.0801,-4.043,-4.0,-3.9824,-3.9902,-4.0312,-4.0527,-4.0527,-4.0976,-4.1172,-3.8191,-3.7939,-3.7638,-3.6656,-3.6405,-3.6405,0.0,0.0,0.0,0.0,0.0,0.0,0.0,0.0,0.0,0.0,0.0,0.0,0.0,0.0,0.0,0.0,0.0,0.0,0.0,0.0,0.0,0.0,0.0,-4.4719,-4.4618,-4.4192,-4.3915,-4.3915,-4.3463,-4.3237,-4.3237,-4.4166,-4.4392,-4.3915,-4.3915,-4.3915,-4.3915,-4.3363,-4.3112,-4.3112,0.0,-4.2986,-4.2986,-4.2986,-4.2986,-4.2986,-4.2986,-4.2986,-4.2986,-4.2986,-4.2986,-4.2986,-4.2986,-4.2986,-4.2986,-4.2986,-4.3338,-4.389,-4.4342,-4.5221,-4.605,-4.605,-4.605,-4.6075,-4.615,-4.6527,-4.6387,-4.4532,-4.2832,-4.1117,-3.9366,-3.7642,-3.6454,-3.6573,-3.6562,-3.6816,-3.7598,-3.8047,-3.8457,-3.8926,-3.9336,-3.9453,-3.9062,-3.9355,-3.9473,-3.9141,-3.9824,-4.0371,-4.0508,-4.0918,-4.1172,-4.1172,-4.1172,-4.1016,-4.0644,-4.0273,-4.0059,-4.0,-3.9551,-3.9492,-3.9902,-4.0312,-4.0527,-4.0527,-4.0976,-4.1172,-3.8241,-3.8015,-3.7739,-3.6681,-3.6631,-3.6782,0.0,0.0,0.0,0.0,0.0,0.0,0.0,0.0,0.0,0.0,0.0,0.0,0.0,0.0,0.0,0.0,0.0,0.0,0.0,0.0,0.0,0.0,0.0,-4.4041,-4.374,-4.3212,-4.2911,-4.2911,-4.2384,-4.2082,-4.2082,-4.2585,-4.3011,-4.3363,-4.3062,-4.3062,-4.3338,-4.2785,-4.2766,-4.2986,0.0,-4.2986,-4.2986,-4.2986,-4.2986,-4.2986,-4.2986,-4.2986,-4.2986,-4.2986,-4.2986,-4.2986,-4.2986,-4.2986,-4.3037,-4.3313,-4.379,-4.4392,-4.5271,-4.61,-4.6753,-4.6753,-4.6753,-4.6702,-4.6376,-4.6502,-4.6177,-4.4175,-4.2391,-4.0731,-3.8993,-3.7442,-3.6426,-3.6641,-3.7031,-3.7539,-3.8164,-3.8437,-3.8711,-3.9141,-3.9375,-3.9453,-3.9238,-3.9609,-3.9902,-3.9922,-4.0273,-4.0625,-4.0859,-4.1055,-4.1172,-4.1172,-4.1172,-4.1074,-4.0879,-4.0469,-4.0234,-4.0234,-3.8614,-3.8614,-4.0234,-3.9222,-3.9527,-4.0879,-4.1074,-4.1172,-3.8241,-3.8015,-3.7739,-3.6681,0.0,0.0,0.0,0.0,0.0,0.0,0.0,0.0,0.0,0.0,0.0,0.0,0.0,0.0,0.0,0.0,0.0,0.0,0.0,0.0,0.0,0.0,0.0,0.0,-4.3689,-4.3413,-4.3011,-4.2514,-4.2213,-4.2213,-4.163,-4.1275,-4.1275,-4.1275,-4.1756,-4.2585,-4.2158,-4.2183,-4.2585,-4.2158,-4.2183,-4.2585,-4.2585,-4.2585,-4.2585,-4.2585,-4.266,-4.2785,-4.2785,-4.2861,-4.2936,-4.2685,-4.276,-4.2961,-4.2891,-4.2961,-4.3237,-4.3664,-4.4267,-4.4995,-4.5849,-4.6602,-4.7043,-4.6979,-4.6722,-4.6365,-4.582,-4.5831,-4.5306,-4.3044,-4.1565,-4.0127,-3.8479,-3.7413,-3.6758,-3.7051,-3.7637,-3.8281,-3.8926,-3.9023,-3.918,-3.9609,-3.9668,-3.9668,-3.9668,-3.998,-4.0312,-4.0644,-4.0684,-4.082,-4.1152,-4.1172,-4.1172,-4.1172,-4.1172,-4.1133,-4.1035,-4.0703,-4.0278,-3.9721,-3.8284,-3.8322,-3.9874,-3.875,-3.9231,-4.1172,-4.1172,-4.1172,-3.804,-3.8015,-3.7739,-3.6681,-3.643,0.0,-3.701,-3.7136,0.0,-3.7789,0.0,0.0,0.0,0.0,0.0,0.0,0.0,0.0,0.0,0.0,0.0,0.0,0.0,0.0,0.0,0.0,0.0,-4.379,-4.3313,-4.3011,-4.2986,-4.2514,-4.2213,-4.2213,-4.163,-4.1275,-4.1275,-4.1275,-4.1326,-4.1401,-4.1351,-4.1351,-4.1401,-4.1351,-4.1376,-4.1401,-4.1401,-4.1401,-4.1401,-4.1401,-4.1756,-4.2263,-4.2263,-4.259,-4.2861,-4.1831,-4.2108,-4.2911,-4.2439,-4.2886,-4.374,-4.379,-4.4543,-4.5447,-4.5522,-4.6276,-4.7029,-4.6527,-4.5576,-4.461,-4.406,-4.4299,-4.378,-3.9866,-3.8861,-3.8391,-3.7123,-3.6779,-3.7031,-3.8203,-3.8496,-3.8926,-4.0176,-4.0391,-4.0527,-4.0957,-4.1035,-4.1035,-4.1035,-4.1055,-4.1094,-4.1133,-4.1133,-4.1133,-4.1172,-4.1172,-4.1172,-4.1172,-4.1172,-4.0996,-4.0586,-4.0547,-3.9567,-3.7553,-3.9297,-3.9565,-3.8097,-3.9983,-4.0977,-4.1172,-4.1172,-4.1172,-3.7588,-3.7487,-3.7312,-3.6606,-3.6107,0.0,0.0,-3.7186,-3.7236,-3.7462,-3.7437,0.0,0.0,0.0,0.0,0.0,0.0,0.0,0.0,0.0,0.0,0.0,0.0,0.0,0.0,-4.3212,-4.3011,-4.2333,-4.2384,-4.2308,-4.1982,-4.143,-4.1128,-4.1128,-4.0601,-4.0325,-4.0325,-4.0325,-4.0325,-4.0325,-4.0651,-4.0949,-4.1275,-4.0924,-4.0974,-4.1275,-4.1275,-4.1275,-4.1275,-4.1275,-4.1401,-4.1656,-4.1656,-4.1781,-4.1957,-4.1882,-4.2108,-4.2539,-4.2665,-4.3162,-4.3865,-4.4192,-4.4844,-4.5623,-4.6301,-4.6803,-4.6834,-4.5599,-4.49,-4.4484,-4.3874,-4.3121,-4.1791,-3.9233,-3.8828,-3.8543,-3.7035,-3.7285,-3.7988,-3.8476,-3.9238,-3.9941,-4.043,-4.0527,-4.0586,-4.0742,-4.0762,-4.0762,-4.0762,-4.1016,-4.1172,-4.1172,-4.1172,-4.1172,-4.1172,-4.1172,-4.1172,-4.1172,-4.1172,-4.1094,-4.0937,-3.9618,-3.9131,-3.9715,-3.7855,-3.791,-3.9943,-3.9453,-3.9864,-4.1172,-4.1172,-4.1172,-3.7186,-3.6935,-3.6609,-3.6455,0.0,0.0,-3.7186,-3.7312,-3.7387,-3.809,-3.7965,-3.7638,-3.7262,0.0,0.0,0.0,0.0,0.0,0.0,0.0,0.0,0.0,0.0,0.0,-4.1932,-4.2233,-4.2158,-4.1351,-4.1681,-4.1731,-4.13,-4.0802,-4.0526,-4.0526,-3.9973,-3.9697,-3.9697,-3.9697,-3.9697,-3.9697,-4.0074,-4.045,-4.0802,-4.0425,-4.045,-4.0774,-4.0774,-4.0774,-4.0774,-4.0774,-4.0874,-4.1025,-4.1025,-4.1125,-4.13,-4.1555,-4.1911,-4.2263,-4.264,-4.3313,-4.4116,-4.4493,-4.5146,-4.5899,-4.6652,-4.6878,-4.6487,-4.4804,-4.3962,-4.3298,-4.2356,-4.1245,-3.9953,-3.8221,-3.8104,-3.8173,-3.7271,-3.7871,-3.8691,-3.9101,-3.9902,-4.0566,-4.0703,-4.0723,-4.0723,-4.0723,-4.0723,-4.0723,-4.0723,-4.0996,-4.1172,-4.1172,-4.1172,-4.1172,-4.1172,-4.1172,-4.1172,-4.1172,-4.1172,-4.1172,-4.1172,-3.9786,-3.9374,-4.0099,-3.7914,-3.7914,-4.0178,-3.9374,-3.9688,-4.1172,-4.1172,-4.1172,-3.6885,-3.6383,-3.5633,0.0,0.0,0.0,-3.7764,-3.7588,-3.7814,-4.0049,-3.8743,-3.7186,-3.7211,0.0,0.0,0.0,0.0,0.0,0.0,0.0,0.0,0.0,0.0,-4.1275,-4.1275,-4.1275,-4.1275,-4.1275,-4.1275,-4.1275,-4.1275,-4.0802,-4.0501,-4.0501,-3.9973,-3.9697,-3.9697,-3.9697,-3.9697,-3.9697,-3.9697,-3.9697,-3.9697,-3.9697,-3.9697,-3.9697,-3.9697,-3.9697,-3.9697,-3.9697,-4.0023,-4.0501,-4.0501,-4.0852,-4.12,-4.0727,-4.1229,-4.2213,-4.2213,-4.3237,-4.4618,-4.4618,-4.5397,-4.6301,-4.6301,-4.6301,-4.5914,-4.4189,-4.2454,-4.0795,-3.9059,-3.8618,-3.8175,-3.6423,-3.6367,-3.6914,-3.7754,-3.8281,-3.8984,-4.0273,-4.0527,-4.0664,-4.1094,-4.1172,-4.1172,-4.1172,-4.1172,-4.1172,-4.1172,-4.1172,-4.1172,-4.1172,-4.1172,-4.1172,-4.1172,-4.1172,-4.1172,-4.1172,-4.1172,-4.1172,-4.1172,-4.1172,-4.0178,-3.7975,-4.0021,-4.0099,-3.7975,-4.0099,-4.1172,-4.1172,-4.1172,-4.1172,-3.6556,-3.6358,0.0,0.0,0.0,0.0,0.0,-3.7588,0.0,0.0,-3.8768,-3.7889,-3.8291,0.0,0.0,-3.8241,-3.9672,-4.0827,0.0,0.0,0.0,0.0,0.0,-4.1125,-4.0802,-4.105,-4.0974,-4.0249,-4.0551,-4.0601,-4.0199,-4.0023,-3.9948,-3.9948,-3.9772,-3.9697,-3.9697,-3.9697,-3.9697,-3.9697,-3.9697,-3.9697,-3.9697,-3.9697,-3.9697,-3.9697,-3.9697,-3.9697,-3.9697,-3.9697,-3.9798,-3.9948,-3.9948,-4.0275,-4.0724,-4.0949,-4.1555,-4.2263,-4.2665,-4.3564,-4.4618,-4.4618,-4.5397,-4.6301,-4.6301,-4.5464,-4.4127,-4.2391,-4.0909,-3.9329,-3.7341,-3.7248,-3.751,-3.6681,-3.7031,-3.7695,-3.8262,-3.9199,-4.0059,-4.0449,-4.0781,-4.1016,-4.1152,-4.1172,-4.1172,-4.1172,-4.1172,-4.1172,-4.1172,-4.1172,-4.1172,-4.1172,-4.1172,-4.1172,-4.1172,-4.1172,-4.1172,-4.1172,-4.1172,-4.1172,-4.1172,-3.9707,-3.9276,-4.0178,-3.9374,-3.9295,-4.0178,-4.0841,-4.1172,-4.1172,-4.1172,-4.0353,-3.6031,0.0,0.0,0.0,0.0,0.0,0.0,0.0,0.0,0.0,0.0,-3.8517,-3.9094,-3.8818,0.0,-3.8668,-3.9722,-4.0526,0.0,0.0,0.0,0.0,0.0,-4.0551,-4.0224,-4.0501,-4.04,-3.9747,-3.9998,-4.0049,-3.9722,-3.9697,-3.9697,-3.9697,-3.9697,-3.9597,-3.9371,-3.9597,-3.9597,-3.9371,-3.9597,-3.9697,-3.9697,-3.9697,-3.9697,-3.9697,-3.9697,-3.9697,-3.9697,-3.9697,-3.9697,-3.9697,-3.9697,-4.0023,-4.0576,-4.1075,-4.1681,-4.2203,-4.2256,-4.3325,-4.4527,-4.4082,-4.4988,-4.6301,-4.6301,-4.5074,-4.338,-4.1855,-4.0366,-3.8797,-3.7005,-3.6914,-3.7187,-3.6777,-3.7441,-3.8301,-3.873,-3.9726,-4.0586,-4.0742,-4.0996,-4.1172,-4.1172,-4.1172,-4.1172,-4.1172,-4.1172,-4.1172,-4.1172,-4.1172,-4.1172,-4.1172,-4.1172,-4.1172,-4.1172,-4.1172,-4.1172,-4.1172,-4.1172,-4.1172,-4.1172,-3.9943,-3.9864,-4.1172,-3.9864,-3.9864,-4.1172,-4.1172,-4.1172,-4.1172,-4.1172,-4.0021,0.0,0.0,0.0,0.0,0.0,0.0,0.0,0.0,0.0,0.0,0.0,0.0,0.0,0.0,0.0,0.0,-4.0049,-4.0375,-4.0425,0.0,0.0,0.0,0.0,-3.9697,-3.9697,-3.9697,-3.9697,-3.9697,-3.9697,-3.9697,-3.9697,-3.9697,-3.9697,-3.9697,-3.9647,-3.9371,-3.8868,-3.932,-3.9295,-3.8793,-3.9295,-3.9546,-3.9546,-3.9647,-3.9697,-3.9697,-3.9697,-3.9697,-3.9697,-3.9697,-3.9697,-3.9697,-3.9697,-4.0074,-4.0651,-4.11,-4.1622,-4.2022,-4.1393,-4.25,-4.4027,-4.3144,-4.4281,-4.5985,-4.6035,-4.4829,-4.32,-4.1958,-4.036,-3.878,-3.7588,-3.7363,-3.7324,-3.6934,-3.7754,-3.875,-3.9219,-3.998,-4.0703,-4.1094,-4.1172,-4.1172,-4.1172,-4.1172,-4.1172,-4.1172,-4.1172,-4.1172,-4.1172,-4.1172,-4.1172,-4.1172,-4.1172,-4.1172,-4.1172,-4.1172,-4.1172,-4.1172,-4.1172,-4.1172,-4.1172,-4.1172,-4.1172,-4.1172,-4.1172,-4.1172,-4.1172,-4.1172,-4.1172,-4.1172,-4.1172,-3.9943,0.0,0.0,0.0,0.0,0.0,0.0,0.0,0.0,0.0,0.0,0.0,0.0,0.0,0.0,0.0,0.0,0.0,-3.9371,-3.9798,-3.9873,-3.9873,-3.9873,-3.9772,-3.9697,-3.9697,-3.9697,-3.9697,-3.9697,-3.9697,-3.9697,-3.9697,-3.9697,-3.9697,-3.9697,-3.927,-3.9045,-3.8919,-3.8542,-3.8316,-3.8191,-3.8316,-3.8366,-3.8391,-3.9295,-3.9697,-3.9697,-3.9697,-3.9697,-3.9697,-3.9697,-3.9697,-3.9697,-3.9697,-4.03,-4.1125,-4.125,-4.1355,-4.1417,-4.1282,-4.0971,-4.1022,-4.239,-4.3286,-4.3843,-4.4192,-4.3083,-4.1463,-4.0122,-3.8747,-3.7639,-3.7336,-3.7793,-3.8281,-3.8184,-3.8633,-3.9277,-4.0059,-4.0664,-4.1055,-4.1152,-4.1172,-4.1172,-4.1172,-4.1172,-4.1172,-4.1172,-4.1172,-4.1172,-4.1172,-4.1172,-4.1172,-4.1172,-4.1172,-4.1172,-4.1172,-4.1172,-4.1172,-4.1172,-4.1172,-4.1172,-4.1172,-4.1172,-4.1172,-4.1172,-4.1172,-4.1172,-4.1172,-4.1172,-4.1172,-4.1172,-4.1172,-3.9119,0.0,0.0,0.0,0.0,0.0,0.0,0.0,0.0,0.0,0.0,0.0,0.0,0.0,0.0,0.0,0.0,0.0,0.0,-3.8843,-3.8894,-3.8994,-3.927,-3.9295,-3.9396,-3.9672,-3.9697,-3.9597,-3.932,-3.9546,-3.9572,-3.932,-3.9295,-3.9295,-3.9295,-3.8743,-3.8341,-3.8065,-3.8015,-3.7864,-3.7613,-3.7889,-3.8015,-3.8015,-3.8617,-3.8894,-3.8894,-3.917,-3.9295,-3.932,-3.9597,-3.9697,-3.9697,-3.9697,-4.0375,-4.1275,-4.1275,-4.1254,-4.1117,-4.0323,-3.9947,-3.9916,-4.1283,-4.2395,-4.3235,-4.3874,-4.2824,-4.1239,-3.9884,-3.8462,-3.7344,-3.7539,-3.793,-3.8418,-3.9062,-3.9375,-3.9707,-4.0371,-4.0859,-4.1172,-4.1172,-4.1172,-4.1172,-4.1172,-4.1172,-4.1172,-4.1172,-4.1172,-4.1172,-4.1172,-4.1172,-4.1172,-4.1172,-4.1348,-4.1387,-4.1191,-4.1348,-4.1387,-4.1191,-4.1172,-4.1172,-4.1172,-4.1172,-4.1172,-4.1172,-4.1172,-4.1172,-4.1172,-4.1172,-4.1172,-4.1172,-4.1172,-3.8882,0.0,0.0,0.0,0.0,0.0,0.0,0.0,0.0,0.0,0.0,0.0,0.0,0.0,0.0,0.0,0.0,0.0,0.0,0.0,-3.8015,-3.8191,-3.8668,-3.8718,-3.8894,-3.9346,-3.9396,-3.922,-3.8768,-3.9145,-3.9195,-3.8743,-3.8718,-3.8718,-3.8718,-3.8165,-3.7638,-3.7186,-3.7538,-3.7487,-3.7036,-3.7513,-3.7713,-3.7713,-3.7713,-3.7814,-3.804,-3.8517,-3.8768,-3.8944,-3.9371,-3.9442,-3.9362,-3.9694,-4.0292,-4.0952,-4.0997,-4.0934,-4.0644,-3.9326,-3.8987,-3.937,-4.0553,-4.1646,-4.2711,-4.3655,-4.2742,-4.1089,-3.9872,-3.8557,-3.75,-3.793,-3.8086,-3.8437,-3.9609,-3.9961,-4.0117,-4.0547,-4.0918,-4.1172,-4.1172,-4.1172,-4.1172,-4.1172,-4.1172,-4.1172,-4.1172,-4.1172,-4.1172,-4.1172,-4.123,-4.1289,-4.1289,-4.166,-4.1738,-4.1308,-4.1601,-4.1621,-4.1211,-4.1172,-4.1172,-4.1172,-4.1172,-4.1172,-4.1172,-4.1172,-4.1172,-4.1172,-4.0841,-4.0607,-4.0607,-4.0607,-3.831,0.0,0.0,0.0,0.0,0.0,0.0,0.0,0.0,0.0,0.0,0.0,0.0,0.0,0.0,0.0,0.0,0.0,0.0,0.0,-3.8015,-3.804,-3.8115,-3.8115,-3.814,-3.8216,-3.8241,-3.8191,-3.814,-3.8191,-3.8191,-3.8115,-3.8115,-3.8115,-3.8115,-3.7588,-3.7262,-3.7186,-3.6832,-3.6581,-3.6505,-3.6581,-3.6631,-3.6631,-3.6631,-3.7111,-3.8015,-3.809,-3.8417,-3.8919,-3.8994,-3.8553,-3.795,-3.9702,-3.9981,-3.9426,-3.9826,-3.9651,-3.9205,-3.8963,-3.8051,-3.7565,-4.133,-4.1453,-4.0372,-4.173,-4.0913,-3.9323,-3.8427,-3.7975,-3.7949,-3.8379,-3.8769,-3.918,-3.9766,-4.0176,-4.0566,-4.0996,-4.1133,-4.1172,-4.1172,-4.1172,-4.1172,-4.1172,-4.1172,-4.1172,-4.1172,-4.1172,-4.1172,-4.1172,-4.1484,-4.1719,-4.1719,-4.209,-4.2168,-4.1758,-4.1758,-4.1621,-4.1211,-4.1172,-4.1172,-4.1172,-4.1172,-4.1172,-4.1172,-4.1172,-4.1172,-4.1172,-3.9276,-3.831,-3.831,-3.831,-3.6023,0.0,0.0,0.0,0.0,0.0,0.0,0.0,0.0,0.0,0.0,0.0,0.0,0.0,0.0,0.0,0.0,0.0,0.0,0.0,0.0,-3.7211,-3.7513,-3.7538,-3.7663,-3.7965,-3.8015,-3.8015,-3.8015,-3.8015,-3.8015,-3.8015,-3.7713,-3.7538,-3.7538,-3.701,-3.6782,-3.6782,-3.6531,-3.6405,-3.6405,-3.6405,-3.6405,-3.6405,-3.6405,-3.6681,-3.7111,-3.7412,-3.7864,-3.8367,-3.7857,-3.7601,-3.7631,-3.8825,-3.8625,-3.8006,-4.0314,-4.0185,-3.8979,-3.9607,-3.8553,-3.7297,-4.0191,-4.0177,-3.9282,-4.0382,-4.038,-3.9606,-3.8015,-3.7734,-3.791,-3.7871,-3.8359,-3.9023,-3.9726,-4.0215,-4.0644,-4.1074,-4.1172,-4.1172,-4.1172,-4.1172,-4.1172,-4.1172,-4.1172,-4.125,-4.1484,-4.1523,-4.1621,-4.1836,-4.2031,-4.2148,-4.2148,-4.2539,-4.2519,-4.1855,-4.2012,-4.1875,-4.1211,-4.1172,-4.1172,-4.1172,-4.1172,-4.1172,-4.1172,-3.9943,-3.9374,-3.9374,-3.7179,-3.6121,-3.6121,-3.7321,-3.554,0.0,0.0,0.0,0.0,0.0,0.0,0.0,0.0,0.0,0.0,0.0,0.0,0.0,0.0,0.0,0.0,0.0,0.0,0.0,0.0,-3.6556,-3.6935,-3.6985,-3.7136,-3.7538,-3.7588,-3.7588,-3.7588,-3.7588,-3.7588,-3.7588,-3.7186,-3.6985,-3.6985,-3.6631,-3.6405,-3.6405,-3.6405,-3.6329,-3.6157,-3.6355,-3.6329,-3.6157,-3.5998,-3.5906,-3.593,-3.6689,-3.6947,-3.6943,-3.6593,-3.6532,-3.661,-3.7559,-3.7234,-3.6702,-4.0001,-3.9861,-3.8293,-3.9544,-3.8663,-3.7276,-3.9254,-3.9258,-3.872,-3.9767,-3.9966,-3.9493,-3.7873,-3.7754,-3.8008,-3.7695,-3.8262,-3.9101,-3.9863,-4.0371,-4.0781,-4.1094,-4.1172,-4.1172,-4.1172,-4.1172,-4.1172,-4.1172,-4.1172,-4.1308,-4.1738,-4.1797,-4.1953,-4.2383,-4.2519,-4.2598,-4.2598,-4.2969,-4.293,-4.2187,-4.2305,-4.2109,-4.1387,-4.123,-4.1172,-4.1172,-4.1172,-4.1172,-4.1172,-3.8469,-3.7339,-3.7896,-3.5137,-3.4164,-3.4732,-3.5782,-3.4489,0.0,0.0,0.0,0.0,0.0,0.0,0.0,0.0,0.0,0.0,0.0,0.0,0.0,0.0,0.0,0.0,0.0,0.0,0.0,0.0,-3.6405,-3.6455,-3.6455,-3.6455,-3.648,-3.648,-3.648,-3.648,-3.648,-3.648,-3.648,-3.6455,-3.6455,-3.6455,-3.643,-3.6405,-3.6405,-3.6405,-3.6107,-3.5533,-3.6107,-3.6081,-3.5512,-3.4799,-3.4483,-3.4581,-3.5883,-3.5524,-3.4125,-3.5315,-3.5061,-3.4095,-3.6042,-3.6202,-3.5516,-3.7643,-3.7363,-3.6194,-3.7805,-3.7554,-3.6959,-3.9456,-3.9454,-3.8649,-4.0055,-3.9343,-3.7982,-3.7891,-3.8203,-3.8535,-3.8516,-3.916,-3.9941,-4.0391,-4.082,-4.1152,-4.1172,-4.1172,-4.1172,-4.1172,-4.1172,-4.1172,-4.1172,-4.1172,-4.1308,-4.1738,-4.1797,-4.1953,-4.2383,-4.2793,-4.3047,-4.3047,-4.3418,-4.3496,-4.3047,-4.2656,-4.2246,-4.1797,-4.1387,-4.1172,-4.1172,-4.1172,-4.1172,-4.1172,-3.702,-3.5863,-3.7896,-3.3676,-3.2612,-3.4651,-3.2694,-3.164,0.0,0.0,0.0,0.0,0.0,0.0,0.0,0.0,0.0,0.0,0.0,0.0,0.0,0.0,0.0,0.0,0.0,0.0,0.0,0.0,0.0,-3.6405,-3.6405,-3.6405,-3.6405,-3.6405,-3.6556,-3.6908,-3.6606,-3.6556,-3.6933,-3.6606,-3.6405,-3.6405,-3.6405,-3.6182,-3.5855,-3.6182,-3.5906,-3.4981,-3.5059,-3.4799,-3.4171,-3.3417,-3.2605,-3.1847,-3.3476,-3.4078,-3.3757,-3.3281,-3.332,-3.3791,-3.4874,-3.4616,-3.4024,-3.709,-3.7183,-3.6093,-3.7979,-3.7866,-3.7128,-3.8615,-3.847,-3.7837,-3.8577,-3.8608,-3.8281,-3.8008,-3.8437,-3.8926,-3.8652,-3.9434,-4.041,-4.084,-4.1055,-4.1172,-4.1172,-4.1172,-4.1172,-4.1172,-4.1172,-4.1172,-4.1172,-4.1387,-4.1719,-4.2148,-4.2441,-4.2773,-4.3183,-4.3379,-4.3476,-4.3476,-4.3613,-4.3535,-4.3105,-4.2676,-4.2246,-4.1836,-4.1406,-4.1172,-4.1172,-4.1172,-4.1172,-4.1172,-3.694,-3.5056,-3.588,-3.2858,-3.1805,-3.2628,-3.3186,-3.2776,0.0,0.0,0.0,0.0,0.0,0.0,0.0,0.0,0.0,0.0,0.0,0.0,0.0,0.0,0.0,0.0,0.0,0.0,0.0,0.0,0.0,-3.6081,-3.6081,-3.6157,-3.638,-3.6405,-3.6556,-3.6885,-3.6606,0.0,-3.6885,-3.6606,-3.6405,-3.6405,-3.6405,-3.6107,-3.5508,-3.6081,-3.5619,-3.4019,-3.427,-3.3857,-3.2808,-3.2007,-3.1219,-3.058,-3.1295,-3.1891,-3.2341,-3.1948,-3.2348,-3.3223,-3.359,-3.3437,-3.3339,-3.631,-3.6462,-3.5479,-3.7447,-3.7466,-3.6844,-3.7437,-3.7457,-3.7344,-3.7637,-3.791,-3.8086,-3.7793,-3.834,-3.8965,-3.8828,-3.9766,-4.082,-4.1113,-4.1172,-4.1172,-4.1172,-4.1172,-4.1172,-4.1172,-4.1172,-4.1211,-4.1367,-4.1621,-4.1992,-4.2558,-4.2891,-4.3223,-4.3652,-4.3711,-4.3711,-4.3711,-4.3711,-4.3594,-4.3301,-4.2754,-4.2305,-4.2031,-4.1484,-4.1172,-4.1172,-4.1172,-4.0841,-4.0099,-3.6522,-3.4732,-3.4651,-3.2463,-3.2134,-3.3594,-3.3594,-3.2443,0.0,0.0,0.0,0.0,0.0,0.0,0.0,0.0,0.0,0.0,0.0,0.0,0.0,0.0,0.0,0.0,0.0,0.0,0.0,0.0,0.0,-3.5533,-3.5533,-3.578,-3.6355,-3.6405,-3.6405,-3.638,-3.6405,-3.6405,-3.638,-3.6405,-3.6405,-3.6405,-3.6405,-3.6107,-3.5508,-3.6081,-3.5147,-3.2699,-3.3814,-3.3296,-3.1417,-3.0632,-3.0527,-3.0861,-2.9525,-2.9199,-2.9721,-3.142,-3.2136,-3.2148,-3.2168,-3.2676,-3.3587,-3.515,-3.5041,-3.432,-3.5891,-3.6278,-3.5996,-3.6035,-3.6601,-3.7285,-3.7285,-3.7305,-3.7324,-3.7324,-3.7949,-3.8711,-3.9141,-4.0215,-4.1172,-4.1172,-4.1172,-4.1172,-4.1172,-4.1172,-4.1172,-4.1172,-4.1172,-4.1308,-4.1719,-4.1816,-4.2109,-4.2949,-4.3086,-4.3242,-4.3652,-4.3711,-4.3711,-4.3711,-4.3711,-4.3691,-4.3691,-4.291,-4.2422,-4.2402,-4.1621,-4.1172,-4.1172,-4.1172,-4.0099,-3.7975,-3.5719,-3.4651,-3.4813,-3.2546,-3.3676,-3.7816,-3.3528,-3.0447,-3.3621,0.0,0.0,0.0,0.0,0.0,0.0,0.0,0.0,0.0,0.0,0.0,0.0,0.0,0.0,0.0,0.0,0.0,0.0,0.0,0.0,0.0,-3.6132,-3.6207,-3.638,-3.6405,-3.6207,0.0,-3.6132,-3.6182,-3.578,-3.6132,-3.6405,-3.6405,-3.6405,-3.6107,-3.5508,-3.6081,-3.5147,-3.2699,-3.282,-3.1884,-3.0061,-2.953,-2.9385,-2.947,-2.9738,-2.9902,-3.0096,-3.0534,-3.111,-3.1738,-3.2051,-3.25,-3.3109,-3.414,-3.4393,-3.4225,-3.531,-3.5653,-3.5664,-3.6289,-3.666,-3.6894,-3.7207,-3.75,-3.7812,-3.8125,-3.8848,-3.9707,-4.043,-4.0898,-4.1172,-4.1172,-4.1172,-4.1172,-4.1172,-4.1172,-4.1172,-4.1172,-4.1172,-4.1308,-4.1719,-4.2051,-4.2441,-4.2988,-4.334,-4.3574,-4.3691,-4.3711,-4.3711,-4.3711,-4.3711,-4.3574,-4.3281,-4.2734,-4.2305,-4.1992,-4.1465,-4.1172,-4.1172,-3.9688,-3.8548,-3.7896,-3.4246,-3.3839,-3.7002,-3.4813,-3.5218,-3.7816,-3.5242,-3.2145,-3.3897,-3.4299,0.0,0.0,0.0,0.0,-3.5755,-3.5881,-3.5981,0.0,0.0,0.0,0.0,0.0,0.0,0.0,0.0,0.0,0.0,0.0,0.0,0.0,-3.6006,-3.6107,-3.638,-3.6157,-3.5981,-3.5881,-3.5981,-3.5981,-3.5881,-3.6182,-3.6405,-3.6405,-3.6405,-3.6107,-3.5508,-3.5538,-3.4438,-3.22,-3.1723,-3.0678,-2.9254,-2.8996,-2.9121,-2.9473,-2.998,-3.0312,-3.0488,-3.0488,-3.0996,-3.1816,-3.207,-3.2637,-3.3379,-3.3887,-3.4316,-3.4687,-3.5215,-3.5625,-3.5976,-3.6289,-3.6641,-3.6953,-3.7012,-3.7461,-3.8008,-3.8457,-3.9336,-4.0312,-4.0996,-4.1172,-4.1172,-4.1172,-4.1172,-4.1172,-4.1172,-4.1172,-4.1172,-4.1172,-4.1172,-4.1367,-4.1953,-4.2266,-4.2637,-4.3242,-4.3711,-4.3984,-4.3984,-4.3984,-4.3984,-4.3984,-4.3652,-4.334,-4.3105,-4.2519,-4.207,-4.1816,-4.1406,-4.0763,-3.9864,-3.8548,-3.7002,-3.5218,-3.3594,-3.4066,-3.6748,-3.5383,-3.5383,-3.6685,-3.4833,-3.2184,-3.4073,-3.4474,-3.5027,-3.5458,-3.5583,0.0,-3.6304,-3.6405,-3.6405,-3.6405,0.0,0.0,0.0,0.0,0.0,0.0,0.0,0.0,0.0,0.0,0.0,0.0,-3.5583,-3.583,-3.6355,-3.5906,-3.5805,-3.6279,-3.5805,-3.578,-3.638,-3.6405,-3.6405,-3.6405,-3.6405,-3.6085,-3.5397,-3.4751,-3.3392,-3.1335,-3.0632,-2.979,-2.8926,-2.8965,-2.9434,-3.0195,-3.0254,-3.0508,-3.0898,-3.0937,-3.1406,-3.2109,-3.2148,-3.2891,-3.3945,-3.4082,-3.4648,-3.5332,-3.543,-3.5957,-3.6543,-3.6211,-3.6601,-3.7168,-3.6894,-3.7363,-3.8105,-3.8633,-3.9668,-4.0684,-4.1074,-4.1172,-4.1172,-4.1172,-4.1172,-4.1172,-4.1172,-4.1172,-4.1172,-4.1172,-4.1172,-4.1445,-4.2285,-4.2422,-4.2734,-4.3652,-4.4082,-4.4336,-4.4394,-4.4355,-4.4316,-4.4316,-4.3574,-4.3066,-4.3008,-4.2266,-4.1698,-4.1403,-4.1054,-3.9864,-3.7657,-3.7321,-3.546,-3.1805,-3.3708,-3.4866,-3.5097,-3.511,-3.4981,-3.4766,-3.3122,-3.1339,-3.5056,-3.5629,-3.6103,-3.6229,-3.6207,0.0,-3.638,-3.6405,-3.6405,0.0,0.0,0.0,0.0,0.0,0.0,0.0,0.0,0.0,0.0,0.0,0.0,0.0,0.0,-3.6279,-3.6405,-3.6304,-3.6056,-3.5683,-3.5558,-3.578,-3.638,-3.6405,-3.6405,-3.6405,-3.6405,-3.5808,-3.4631,-3.4484,-3.3109,-3.0542,-3.0369,-2.979,-2.8926,-2.9277,-2.9726,-3.0215,-3.0586,-3.0801,-3.0918,-3.125,-3.1484,-3.168,-3.2031,-3.2519,-3.3164,-3.4199,-3.4687,-3.4941,-3.5644,-3.5996,-3.6191,-3.6465,-3.666,-3.6894,-3.75,-3.8047,-3.8691,-3.9824,-4.0586,-4.1074,-4.1152,-4.1172,-4.1172,-4.1172,-4.1172,-4.1172,-4.1172,-4.1172,-4.1172,-4.1172,-4.1172,-4.1445,-4.2285,-4.2422,-4.2851,-4.4082,-4.4023,-4.3984,-4.4355,-4.4062,-4.3848,-4.3848,-4.3379,-4.293,-4.2578,-4.209,-4.0911,-3.8774,-3.8603,-3.7578,-3.5379,-3.3594,-3.3104,-3.4002,-3.4687,-3.5031,-3.5097,-3.6765,-3.5921,-3.2868,-3.2719,-3.1467,-3.5433,-3.5956,-3.6405,-3.6405,-3.6405,0.0,0.0,-3.6405,-3.6405,-3.6405,0.0,0.0,0.0,0.0,0.0,0.0,0.0,0.0,0.0,0.0,0.0,0.0,0.0,-3.6405,-3.6405,-3.6107,-3.5855,-3.5508,-3.5805,-3.6081,-3.638,-3.6405,-3.6405,-3.6405,-3.6107,-3.5443,-3.4434,-3.3466,-3.2057,-3.0276,-2.9843,-2.9493,-2.9258,-2.9687,-3.0117,-3.0547,-3.0781,-3.0898,-3.0918,-3.1348,-3.1641,-3.1875,-3.2305,-3.2871,-3.3535,-3.4394,-3.4844,-3.5137,-3.5801,-3.6152,-3.6387,-3.6601,-3.6953,-3.7422,-3.8047,-3.8711,-3.9375,-4.0019,-4.0508,-4.084,-4.084,-4.1016,-4.1172,-4.1172,-4.1172,-4.1172,-4.1172,-4.1172,-4.1172,-4.1172,-4.1348,-4.168,-4.2324,-4.2617,-4.3047,-4.3926,-4.4043,-4.4141,-4.4375,-4.4199,-4.3965,-4.373,-4.3125,-4.2578,-4.2148,-4.0731,-3.9342,-3.7993,-3.6922,-3.5298,-3.3104,-3.3022,-3.3592,-3.4915,-3.5015,-3.4714,-3.3891,-3.5164,-3.4652,-3.2476,-3.1698,-3.0737,-3.5236,-3.5441,-3.5595,-3.5595,-3.581,-3.6051,0.0,0.0,0.0,0.0,0.0,0.0,0.0,0.0,0.0,0.0,0.0,0.0,0.0,0.0,0.0,0.0,-3.6355,-3.626,-3.5852,-3.5506,-3.5425,-3.5658,-3.6107,-3.6405,-3.6405,-3.6405,-3.6405,-3.6405,-3.5697,-3.4892,-3.4019,-3.2198,-3.0838,-3.0056,-2.9272,-2.9199,-2.9707,-3.0039,-3.0449,-3.0898,-3.0898,-3.0937,-3.1055,-3.1465,-3.1894,-3.2324,-3.2656,-3.3262,-3.4004,-3.4512,-3.4941,-3.5351,-3.5937,-3.6367,-3.6699,-3.6855,-3.748,-3.8242,-3.8594,-3.9258,-3.9902,-3.9902,-4.0137,-4.041,-4.0508,-4.0781,-4.1074,-4.1152,-4.1172,-4.1172,-4.1172,-4.1172,-4.1191,-4.1269,-4.1641,-4.2031,-4.2363,-4.2793,-4.3242,-4.3769,-4.4082,-4.4297,-4.4394,-4.4258,-4.4004,-4.3633,-4.2812,-4.2008,-4.1243,-3.9184,-3.7578,-3.6682,-3.5056,-3.3267,-3.1475,-3.3576,-3.4899,-3.5097,-3.4897,-3.4123,-3.2818,-3.2778,-3.2514,-3.2135,-3.065,-2.9967,-3.4365,-3.3653,-3.2783,-3.2783,-3.37,-3.4749,-3.523,0.0,-3.7086,-3.7086,0.0,0.0,0.0,0.0,0.0,0.0,0.0,0.0,0.0,0.0,0.0,0.0,-3.6056,-3.5707,-3.4006,-3.4246,-3.5041,-3.621,-3.638,-3.6405,-3.6405,-3.6405,-3.6405,-3.6405,-3.5162,-3.3899,-3.2532,-3.1119,-2.9951,-2.9065,-2.8941,-2.9336,-3.0137,-3.0176,-3.0449,-3.0898,-3.0898,-3.1094,-3.1484,-3.1914,-3.2344,-3.2734,-3.2773,-3.3086,-3.3594,-3.4394,-3.4726,-3.4961,-3.6172,-3.6641,-3.6797,-3.7539,-3.8359,-3.9062,-3.9121,-3.9492,-3.9902,-3.9902,-3.9922,-4.0059,-4.043,-4.0566,-4.0684,-4.1074,-4.1172,-4.1172,-4.1172,-4.1172,-4.1289,-4.166,-4.207,-4.2363,-4.2422,-4.2793,-4.3359,-4.4199,-4.4004,-4.3926,-4.4355,-4.3711,-4.3203,-4.3144,-4.2383,-4.1103,-3.9054,-3.829,-3.6264,-3.2381,-3.1887,-3.164,-3.1392,-3.3733,-3.5064,-3.5097,-3.3956,-3.3348,-3.316,-3.1743,-3.0758,-3.0218,-3.0258,-3.0167,-3.3086,-3.2733,-3.2482,-3.3304,-3.4181,-3.5132,-3.6137,-3.6357,-3.6377,-3.6377,0.0,0.0,0.0,0.0,0.0,0.0,-3.2147,0.0,0.0,0.0,0.0,0.0,0.0,0.0,-3.3296,-3.3201,-3.384,-3.5453,-3.5429,-3.5642,-3.6358,-3.6707,-3.6349,-3.5283,-3.4366,-3.3004,-3.1162,-3.0514,-2.977,-2.8926,-2.9414,-2.9844,-3.0215,-3.0469,-3.0703,-3.0898,-3.1152,-3.1348,-3.1562,-3.2246,-3.25,-3.248,-3.2969,-3.3262,-3.3535,-3.4394,-3.4707,-3.4883,-3.6211,-3.6836,-3.7168,-3.8027,-3.8555,-3.8828,-3.8828,-3.8984,-3.9141,-3.9141,-3.9492,-3.9941,-4.0117,-4.0527,-4.0957,-4.1133,-4.1172,-4.1172,-4.1172,-4.1367,-4.1582,-4.1758,-4.2344,-4.2812,-4.2812,-4.3164,-4.3574,-4.3945,-4.3828,-4.3769,-4.3965,-4.3457,-4.2988,-4.2734,-4.2168,-4.0791,-3.8326,-3.685,-3.4732,-3.1557,-3.1654,-3.2907,-3.5455,-3.546,-3.5624,-3.5968,-3.4114,-3.2703,-3.1847,-3.1283,-3.0835,-3.0421,-3.0381,-3.0207,-3.1724,-3.1469,-3.1418,-3.2454,-3.3371,-3.4342,-3.5463,-3.5537,-3.545,-3.545,-3.4347,0.0,0.0,0.0,0.0,0.0,0.0,-3.1401,0.0,0.0,0.0,0.0,0.0,0.0,0.0,-3.2066,-3.2353,-3.4113,-3.4035,-3.4532,-3.6008,-3.6039,-3.5623,-3.4649,-3.3322,-3.194,-3.0496,-3.0045,-2.9608,-2.9277,-2.9902,-3.0273,-3.0391,-3.0742,-3.0898,-3.0918,-3.1328,-3.1582,-3.1758,-3.25,-3.2676,-3.2578,-3.3184,-3.3496,-3.3691,-3.4434,-3.4785,-3.5078,-3.6387,-3.7109,-3.7578,-3.8203,-3.8398,-3.8398,-3.8398,-3.8476,-3.8594,-3.8711,-3.9219,-3.9766,-4.0,-4.0527,-4.1035,-4.1152,-4.1172,-4.1172,-4.1172,-4.1504,-4.1836,-4.1953,-4.2578,-4.3105,-4.3223,-4.3496,-4.3711,-4.3711,-4.3711,-4.3711,-4.3711,-4.3242,-4.2773,-4.2461,-4.1358,-3.9692,-3.7197,-3.5056,-3.3151,-3.1692,-3.2403,-3.4403,-3.7643,-3.6609,-3.5861,-3.5707,-3.3649,-3.2084,-3.0915,-3.1209,-3.1196,-3.0902,-3.0608,-3.0327,-3.0359,-2.9408,-2.8441,-2.8495,-2.986,-3.1285,-3.1836,-3.3257,-3.445,-3.445,-3.4397,-3.3656,-3.1487,0.0,0.0,0.0,0.0,0.0,0.0,0.0,0.0,0.0,0.0,0.0,0.0,-3.0774,-3.0507,-3.228,-3.2381,-3.3188,-3.5175,-3.3889,-3.3788,-3.5149,-3.2046,-3.0569,-3.1,-2.9627,-2.9372,-3.0156,-3.0176,-3.043,-3.0859,-3.0879,-3.0898,-3.0918,-3.1328,-3.1758,-3.2187,-3.2617,-3.3027,-3.3379,-3.3418,-3.3691,-3.4101,-3.4531,-3.498,-3.5547,-3.6836,-3.7559,-3.791,-3.793,-3.7949,-3.7949,-3.7949,-3.8242,-3.8652,-3.9062,-3.9199,-3.9414,-4.0273,-4.0527,-4.0644,-4.1074,-4.1172,-4.1172,-4.1172,-4.1504,-4.1914,-4.2324,-4.2773,-4.3203,-4.3613,-4.3691,-4.3711,-4.3711,-4.3711,-4.3711,-4.3711,-4.2969,-4.2441,-4.2422,-3.9781,-3.7179,-3.4975,-3.2776,-3.1609,-3.1924,-3.4023,-3.5345,-3.5758,-3.6316,-3.5517,-3.3395,-3.2,-3.1289,-3.1209,-3.1517,-3.1503,-3.1209,-3.0915,-3.0621,-2.9006,-2.8654,-2.8495,-2.9408,-3.0597,-3.1826,-3.2887,-3.3323,-3.3553,-3.3553,-3.2539,-3.1309,-3.0244,0.0,0.0,0.0,0.0,0.0,0.0,0.0,0.0,0.0,0.0,0.0,0.0,0.0,0.0,-3.0854,-3.1081,-3.1761,-3.3183,-3.3463,-3.3064,-3.1987,-3.1455,-3.0686,-2.9593,-2.9695,-2.9902,-3.0195,-3.0508,-3.0742,-3.0898,-3.0898,-3.0898,-3.0937,-3.1641,-3.1875,-3.1797,-3.25,-3.2715,-3.2656,-3.3203,-3.3516,-3.373,-3.4434,-3.5,-3.5586,-3.6855,-3.7383,-3.7598,-3.8164,-3.7969,-3.7617,-3.8184,-3.8457,-3.8652,-3.9082,-3.9629,-4.0137,-4.0449,-4.0742,-4.0996,-4.1133,-4.1172,-4.125,-4.1523,-4.1914,-4.2266,-4.2402,-4.3008,-4.3457,-4.332,-4.3516,-4.3711,-4.3711,-4.3711,-4.3594,-4.332,-4.2773,-4.1725,-4.0037,-3.87,-3.6442,-3.2776,-3.2085,-3.2502,-3.4106,-3.5537,-3.6997,-3.8569,-3.6273,-3.474,-3.4171,-3.2242,-3.1316,-3.1517,-3.1623,-3.1623,-3.1517,-3.1223,-3.0929,-2.8301,-2.8301,-2.8534,-2.9538,-3.0396,-3.1264,-3.2262,-3.242,-3.2322,-3.2322,-3.1177,-3.0059,-2.9648,0.0,0.0,0.0,0.0,0.0,0.0,-2.8418,0.0,0.0,0.0,0.0,0.0,0.0,-2.8318,-2.9472,-2.9527,-3.0171,-3.1812,-3.2005,-3.1678,-3.0884,-3.0694,-3.0253,-2.9375,-2.9922,-3.0273,-3.0449,-3.0742,-3.0898,-3.0898,-3.0898,-3.0898,-3.0937,-3.1641,-3.1777,-3.1562,-3.2285,-3.25,-3.2461,-3.3144,-3.3613,-3.3965,-3.4687,-3.5332,-3.6016,-3.7129,-3.7422,-3.7422,-3.8105,-3.7969,-3.7656,-3.8359,-3.8672,-3.8887,-3.9316,-3.9961,-4.0527,-4.0527,-4.084,-4.1172,-4.1172,-4.1172,-4.125,-4.1523,-4.1914,-4.2207,-4.2207,-4.2891,-4.3398,-4.3125,-4.3418,-4.3652,-4.3496,-4.3476,-4.332,-4.2891,-4.1798,-4.0334,-3.867,-3.6731,-3.4213,-3.0669,-3.062,-3.1821,-3.4307,-3.5173,-3.6275,-3.7789,-3.5591,-3.4147,-3.3651,-3.2107,-3.153,-3.1824,-3.1717,-3.1664,-3.1664,-3.1476,-3.1289]}]]